<?xml version='1.0' encoding='UTF-8'?><gpx version="1.1" creator="JPX - https://github.com/jenetics/jpx" xmlns="http://www.topografix.com/GPX/1/1"><trk><trkseg><trkpt lat="50.44498985926662" lon="3.95096913287762"><ele>32.0</ele><time>2026-03-22T15:07:07.995Z</time></trkpt><trkpt lat="50.44492598336151" lon="3.9510220285853093"><ele>32.0</ele><time>2026-03-22T15:07:12.997Z</time></trkpt></trkseg><trkseg><trkpt lat="50.44468938323721" lon="3.95120892732092"><ele>32.0</ele><time>2026-03-22T15:29:28Z</time></trkpt><trkpt lat="50.44462081897134" lon="3.9511918875020684"><ele>32.0</ele><time>2026-03-22T15:29:30Z</time></trkpt><trkpt lat="50.444546010369706" lon="3.9511923681270904"><ele>32.0</ele><time>2026-03-22T15:29:31Z</time></trkpt><trkpt lat="50.444715642832584" lon="3.95109182942869"><ele>32.0</ele><time>2026-03-22T15:29:34.042Z</time></trkpt><trkpt lat="50.44488595137566" lon="3.950980614744848"><ele>31.999999999999996</ele><time>2026-03-22T15:29:39.036Z</time></trkpt><trkpt lat="50.444950628087106" lon="3.9509444622615044"><ele>32.0</ele><time>2026-03-22T15:29:41Z</time></trkpt><trkpt lat="50.44501440169936" lon="3.9509602652398903"><ele>32.0</ele><time>2026-03-22T15:29:45Z</time></trkpt><trkpt lat="50.445075951928786" lon="3.951005816035081"><ele>32.0</ele><time>2026-03-22T15:29:47Z</time></trkpt><trkpt lat="50.44511481897179" lon="3.951116197701487"><ele>31.999999999999996</ele><time>2026-03-22T15:29:48Z</time></trkpt><trkpt lat="50.44513866688145" lon="3.951269271132972"><ele>32.0</ele><time>2026-03-22T15:29:49Z</time></trkpt><trkpt lat="50.445201452848636" lon="3.9514035563111185"><ele>32.0</ele><time>2026-03-22T15:29:50Z</time></trkpt><trkpt lat="50.445247197259114" lon="3.9515678241715184"><ele>32.0</ele><time>2026-03-22T15:29:50.999Z</time></trkpt><trkpt lat="50.44528845818259" lon="3.951754718145568"><ele>32.0</ele><time>2026-03-22T15:29:51.999Z</time></trkpt><trkpt lat="50.44534899057403" lon="3.951940545887479"><ele>32.0</ele><time>2026-03-22T15:29:52.999Z</time></trkpt><trkpt lat="50.44539631578885" lon="3.95215393740243"><ele>32.0</ele><time>2026-03-22T15:29:53.999Z</time></trkpt><trkpt lat="50.44544484899964" lon="3.952327373403223"><ele>32.0</ele><time>2026-03-22T15:29:54.999Z</time></trkpt><trkpt lat="50.44548616094378" lon="3.9524788783890026"><ele>32.0</ele><time>2026-03-22T15:29:55.999Z</time></trkpt><trkpt lat="50.445527413971085" lon="3.952623056560901"><ele>32.0</ele><time>2026-03-22T15:29:56.999Z</time></trkpt><trkpt lat="50.445563344116536" lon="3.9527627372377454"><ele>32.0</ele><time>2026-03-22T15:29:57.999Z</time></trkpt><trkpt lat="50.445598026267476" lon="3.9528853047853234"><ele>31.999999999999996</ele><time>2026-03-22T15:29:58.999Z</time></trkpt><trkpt lat="50.44563158601559" lon="3.952985272385348"><ele>32.0</ele><time>2026-03-22T15:29:59.999Z</time></trkpt><trkpt lat="50.445661930899064" lon="3.953099395739183"><ele>32.0</ele><time>2026-03-22T15:30:00.999Z</time></trkpt><trkpt lat="50.445696558945706" lon="3.953232386453956"><ele>32.0</ele><time>2026-03-22T15:30:01.999Z</time></trkpt><trkpt lat="50.44573427777301" lon="3.953369475909859"><ele>31.999999999999996</ele><time>2026-03-22T15:30:02.999Z</time></trkpt><trkpt lat="50.44577648812663" lon="3.95351380538513"><ele>32.0</ele><time>2026-03-22T15:30:03.999Z</time></trkpt><trkpt lat="50.44581304285646" lon="3.9536470011145393"><ele>31.833333333333332</ele><time>2026-03-22T15:30:04.999Z</time></trkpt><trkpt lat="50.445842411258546" lon="3.9537545670422807"><ele>31.666666666666664</ele><time>2026-03-22T15:30:05.999Z</time></trkpt><trkpt lat="50.44590292595052" lon="3.953852949874621"><ele>31.5</ele><time>2026-03-22T15:30:07.999Z</time></trkpt><trkpt lat="50.445977393448494" lon="3.9538197856000554"><ele>31.333333333333336</ele><time>2026-03-22T15:30:09.999Z</time></trkpt><trkpt lat="50.446023232587095" lon="3.9537269247220856"><ele>31.166666666666668</ele><time>2026-03-22T15:30:11.999Z</time></trkpt><trkpt lat="50.44605073029165" lon="3.9535684866400707"><ele>31.0</ele><time>2026-03-22T15:30:13.999Z</time></trkpt><trkpt lat="50.44607518905788" lon="3.9534709897237703"><ele>31.200000000000003</ele><time>2026-03-22T15:30:14.999Z</time></trkpt><trkpt lat="50.44610954723737" lon="3.953353640951116"><ele>31.400000000000002</ele><time>2026-03-22T15:30:15.999Z</time></trkpt><trkpt lat="50.446143993263" lon="3.953222595121701"><ele>31.6</ele><time>2026-03-22T15:30:16.999Z</time></trkpt><trkpt lat="50.446184539823136" lon="3.9530808755196256"><ele>31.8</ele><time>2026-03-22T15:30:17.999Z</time></trkpt><trkpt lat="50.44623100441966" lon="3.9529363766267225"><ele>32.0</ele><time>2026-03-22T15:30:18.999Z</time></trkpt><trkpt lat="50.44627515738757" lon="3.9527908335078976"><ele>32.166666666666664</ele><time>2026-03-22T15:30:19.999Z</time></trkpt><trkpt lat="50.44632715221489" lon="3.9526657761250337"><ele>32.33333333333333</ele><time>2026-03-22T15:30:20.999Z</time></trkpt><trkpt lat="50.446350964867165" lon="3.952538769142355"><ele>32.5</ele><time>2026-03-22T15:30:21.999Z</time></trkpt><trkpt lat="50.44638318820296" lon="3.9524405347393223"><ele>32.666666666666664</ele><time>2026-03-22T15:30:22.999Z</time></trkpt><trkpt lat="50.44642540769097" lon="3.952336060011021"><ele>32.833333333333336</ele><time>2026-03-22T15:30:24.999Z</time></trkpt><trkpt lat="50.44654046467295" lon="3.9523330643871244"><ele>33.0</ele><time>2026-03-22T15:30:28.999Z</time></trkpt><trkpt lat="50.4465988744735" lon="3.9524029729163592"><ele>33.0</ele><time>2026-03-22T15:30:29.999Z</time></trkpt><trkpt lat="50.44666405248267" lon="3.952490909998168"><ele>33.0</ele><time>2026-03-22T15:30:30.999Z</time></trkpt><trkpt lat="50.44673685209649" lon="3.9525841062004656"><ele>33.0</ele><time>2026-03-22T15:30:31.999Z</time></trkpt><trkpt lat="50.4468195842711" lon="3.952683735923826"><ele>33.0</ele><time>2026-03-22T15:30:32.999Z</time></trkpt><trkpt lat="50.44690817871197" lon="3.9527959217835376"><ele>33.0</ele><time>2026-03-22T15:30:33.999Z</time></trkpt><trkpt lat="50.44700429951547" lon="3.952918218372091"><ele>33.0</ele><time>2026-03-22T15:30:34.999Z</time></trkpt><trkpt lat="50.44711040925488" lon="3.953052090095857"><ele>33.0</ele><time>2026-03-22T15:30:35.999Z</time></trkpt><trkpt lat="50.44721192011035" lon="3.953189256697159"><ele>33.0</ele><time>2026-03-22T15:30:36.999Z</time></trkpt><trkpt lat="50.44731594398751" lon="3.953327332064909"><ele>33.0</ele><time>2026-03-22T15:30:37.999Z</time></trkpt><trkpt lat="50.44741885338299" lon="3.953473965231101"><ele>33.5</ele><time>2026-03-22T15:30:38.999Z</time></trkpt><trkpt lat="50.447522169907785" lon="3.9536224041285464"><ele>34.0</ele><time>2026-03-22T15:30:39.999Z</time></trkpt><trkpt lat="50.451263369864705" lon="3.9582233234508215"><ele>35.0</ele><time>2026-03-22T15:31:40.999Z</time></trkpt><trkpt lat="50.45141382479392" lon="3.9583979421723723"><ele>36.0</ele><time>2026-03-22T15:31:41.999Z</time></trkpt><trkpt lat="50.45156986223861" lon="3.958563050104106"><ele>37.0</ele><time>2026-03-22T15:31:42.999Z</time></trkpt><trkpt lat="50.451724154599304" lon="3.958727903682632"><ele>37.0</ele><time>2026-03-22T15:31:43.999Z</time></trkpt><trkpt lat="50.45187760398139" lon="3.958899328422149"><ele>37.0</ele><time>2026-03-22T15:31:44.999Z</time></trkpt><trkpt lat="50.45203715926869" lon="3.959072010896172"><ele>37.0</ele><time>2026-03-22T15:31:45.999Z</time></trkpt><trkpt lat="50.452193196918664" lon="3.959259872688092"><ele>37.0</ele><time>2026-03-22T15:31:46.999Z</time></trkpt><trkpt lat="50.452351521531284" lon="3.9594532408113263"><ele>37.0</ele><time>2026-03-22T15:31:47.999Z</time></trkpt><trkpt lat="50.45250995551054" lon="3.959657191490066"><ele>37.0</ele><time>2026-03-22T15:31:48.999Z</time></trkpt><trkpt lat="50.452671990853545" lon="3.95986943404056"><ele>36.66666666666667</ele><time>2026-03-22T15:31:49.999Z</time></trkpt><trkpt lat="50.45283827290566" lon="3.9600833200597334"><ele>36.333333333333336</ele><time>2026-03-22T15:31:50.999Z</time></trkpt><trkpt lat="50.4530028866887" lon="3.960289890083854"><ele>36.0</ele><time>2026-03-22T15:31:51.999Z</time></trkpt><trkpt lat="50.453159816144044" lon="3.9604858039101822"><ele>36.666666666666664</ele><time>2026-03-22T15:31:52.999Z</time></trkpt><trkpt lat="50.45331266674982" lon="3.9606722321817385"><ele>37.33333333333333</ele><time>2026-03-22T15:31:53.999Z</time></trkpt><trkpt lat="50.4534640489475" lon="3.9608337068849457"><ele>38.0</ele><time>2026-03-22T15:31:54.999Z</time></trkpt><trkpt lat="50.45362508572302" lon="3.960958711368966"><ele>38.0</ele><time>2026-03-22T15:31:55.999Z</time></trkpt><trkpt lat="50.45379286804139" lon="3.9610435766950203"><ele>38.0</ele><time>2026-03-22T15:31:56.999Z</time></trkpt><trkpt lat="50.45397379598557" lon="3.961092324167191"><ele>38.0</ele><time>2026-03-22T15:31:57.999Z</time></trkpt><trkpt lat="50.45415008493186" lon="3.961099582489982"><ele>38.0</ele><time>2026-03-22T15:31:58.999Z</time></trkpt><trkpt lat="50.45432187004229" lon="3.961090027176008"><ele>38.0</ele><time>2026-03-22T15:31:59.999Z</time></trkpt><trkpt lat="50.454494802599115" lon="3.9610723273721207"><ele>38.0</ele><time>2026-03-22T15:32:00.999Z</time></trkpt><trkpt lat="50.45467810621562" lon="3.9610370609566528"><ele>37.666666666666664</ele><time>2026-03-22T15:32:01.999Z</time></trkpt><trkpt lat="50.45485321931324" lon="3.9610072773381213"><ele>37.333333333333336</ele><time>2026-03-22T15:32:02.999Z</time></trkpt><trkpt lat="50.455025948856466" lon="3.960983149769262"><ele>37.0</ele><time>2026-03-22T15:32:03.999Z</time></trkpt><trkpt lat="50.45520078937635" lon="3.9609541510606388"><ele>37.0</ele><time>2026-03-22T15:32:04.999Z</time></trkpt><trkpt lat="50.45537858664848" lon="3.9609254876378976"><ele>37.0</ele><time>2026-03-22T15:32:05.999Z</time></trkpt><trkpt lat="50.455546596151684" lon="3.9608965736953343"><ele>37.0</ele><time>2026-03-22T15:32:06.998Z</time></trkpt><trkpt lat="50.455701854244445" lon="3.960867832926344"><ele>37.75</ele><time>2026-03-22T15:32:07.998Z</time></trkpt><trkpt lat="50.45585014108868" lon="3.9608431144871923"><ele>38.5</ele><time>2026-03-22T15:32:08.998Z</time></trkpt><trkpt lat="50.45598752154085" lon="3.960820881062357"><ele>39.25</ele><time>2026-03-22T15:32:09.998Z</time></trkpt><trkpt lat="50.456116230989096" lon="3.960796714907561"><ele>40.0</ele><time>2026-03-22T15:32:10.998Z</time></trkpt><trkpt lat="50.45624198331475" lon="3.960756296041349"><ele>39.5</ele><time>2026-03-22T15:32:11.998Z</time></trkpt><trkpt lat="50.456377251382044" lon="3.960707408485876"><ele>39.0</ele><time>2026-03-22T15:32:12.998Z</time></trkpt><trkpt lat="50.45651927246265" lon="3.9607074023792257"><ele>38.5</ele><time>2026-03-22T15:32:13.998Z</time></trkpt><trkpt lat="50.45664595802045" lon="3.960727586891305"><ele>38.0</ele><time>2026-03-22T15:32:14.998Z</time></trkpt><trkpt lat="50.45678671738902" lon="3.9607019954303637"><ele>38.0</ele><time>2026-03-22T15:32:15.998Z</time></trkpt><trkpt lat="50.456929111504266" lon="3.960683663936463"><ele>38.0</ele><time>2026-03-22T15:32:16.998Z</time></trkpt><trkpt lat="50.45707935209917" lon="3.9606557606579553"><ele>38.0</ele><time>2026-03-22T15:32:17.998Z</time></trkpt><trkpt lat="50.45723447380663" lon="3.9606288111924033"><ele>38.0</ele><time>2026-03-22T15:32:18.998Z</time></trkpt><trkpt lat="50.45738935542207" lon="3.96060196407337"><ele>38.0</ele><time>2026-03-22T15:32:19.998Z</time></trkpt><trkpt lat="50.45754793980547" lon="3.9605672974721435"><ele>38.0</ele><time>2026-03-22T15:32:20.998Z</time></trkpt><trkpt lat="50.45770779990372" lon="3.9605442602803413"><ele>38.0</ele><time>2026-03-22T15:32:21.998Z</time></trkpt><trkpt lat="50.45786553850933" lon="3.960523951596405"><ele>38.0</ele><time>2026-03-22T15:32:22.998Z</time></trkpt><trkpt lat="50.45802435719456" lon="3.960504282425152"><ele>38.0</ele><time>2026-03-22T15:32:23.998Z</time></trkpt><trkpt lat="50.45818105814041" lon="3.960482308030643"><ele>38.0</ele><time>2026-03-22T15:32:24.998Z</time></trkpt><trkpt lat="50.45833856432157" lon="3.9604562688416447"><ele>38.0</ele><time>2026-03-22T15:32:25.998Z</time></trkpt><trkpt lat="50.458486345963536" lon="3.9604246231019125"><ele>38.0</ele><time>2026-03-22T15:32:26.998Z</time></trkpt><trkpt lat="50.45863110307101" lon="3.960398550466068"><ele>38.0</ele><time>2026-03-22T15:32:27.998Z</time></trkpt><trkpt lat="50.45877780394967" lon="3.960376048426209"><ele>38.0</ele><time>2026-03-22T15:32:28.998Z</time></trkpt><trkpt lat="50.45892444963224" lon="3.9603567540208764"><ele>38.0</ele><time>2026-03-22T15:32:29.998Z</time></trkpt><trkpt lat="50.45907374252904" lon="3.9603252140513194"><ele>38.0</ele><time>2026-03-22T15:32:30.998Z</time></trkpt><trkpt lat="50.459224127287705" lon="3.960298670947284"><ele>38.33333333333333</ele><time>2026-03-22T15:32:31.998Z</time></trkpt><trkpt lat="50.45937310716491" lon="3.9602742360001937"><ele>38.666666666666664</ele><time>2026-03-22T15:32:32.998Z</time></trkpt><trkpt lat="50.45952240022195" lon="3.9602089377493064"><ele>39.0</ele><time>2026-03-22T15:32:33.998Z</time></trkpt><trkpt lat="50.459666538061754" lon="3.9600990877622855"><ele>40.0</ele><time>2026-03-22T15:32:34.998Z</time></trkpt><trkpt lat="50.459799081332605" lon="3.959960851934067"><ele>41.0</ele><time>2026-03-22T15:32:35.998Z</time></trkpt><trkpt lat="50.4599132585582" lon="3.959779184721333"><ele>42.0</ele><time>2026-03-22T15:32:36.998Z</time></trkpt><trkpt lat="50.46002022466029" lon="3.95959563227029"><ele>42.0</ele><time>2026-03-22T15:32:37.998Z</time></trkpt><trkpt lat="50.46010998205385" lon="3.959394082888964"><ele>42.0</ele><time>2026-03-22T15:32:38.998Z</time></trkpt><trkpt lat="50.460186437248794" lon="3.9591825420653475"><ele>42.0</ele><time>2026-03-22T15:32:39.998Z</time></trkpt><trkpt lat="50.46010353006285" lon="3.9467620988484162"><ele>38.666666666666664</ele><time>2026-03-22T15:33:40.999Z</time></trkpt><trkpt lat="50.46017940858319" lon="3.9465652611873523"><ele>35.33333333333333</ele><time>2026-03-22T15:33:41.999Z</time></trkpt><trkpt lat="50.460257650527446" lon="3.9463578989891603"><ele>32.0</ele><time>2026-03-22T15:33:42.999Z</time></trkpt><trkpt lat="50.460338230072914" lon="3.9461582735056813"><ele>32.0</ele><time>2026-03-22T15:33:43.999Z</time></trkpt><trkpt lat="50.46041460813363" lon="3.945951576844515"><ele>32.0</ele><time>2026-03-22T15:33:44.999Z</time></trkpt><trkpt lat="50.46049267190441" lon="3.9457446956023774"><ele>32.0</ele><time>2026-03-22T15:33:45.999Z</time></trkpt><trkpt lat="50.46057569325584" lon="3.945532985020101"><ele>32.33333333333333</ele><time>2026-03-22T15:33:46.999Z</time></trkpt><trkpt lat="50.46065596249714" lon="3.9453180376236325"><ele>32.666666666666664</ele><time>2026-03-22T15:33:47.999Z</time></trkpt><trkpt lat="50.46074303941576" lon="3.9451060171661902"><ele>33.0</ele><time>2026-03-22T15:33:48.999Z</time></trkpt><trkpt lat="50.46082326205041" lon="3.944893442450522"><ele>33.0</ele><time>2026-03-22T15:33:49.999Z</time></trkpt><trkpt lat="50.46090560988009" lon="3.9446886155635137"><ele>33.0</ele><time>2026-03-22T15:33:50.999Z</time></trkpt><trkpt lat="50.460987520424545" lon="3.944497861979312"><ele>33.0</ele><time>2026-03-22T15:33:51.999Z</time></trkpt><trkpt lat="50.461077393048775" lon="3.94431090732107"><ele>32.666666666666664</ele><time>2026-03-22T15:33:52.999Z</time></trkpt><trkpt lat="50.46117013651256" lon="3.944122084434541"><ele>32.33333333333333</ele><time>2026-03-22T15:33:53.999Z</time></trkpt><trkpt lat="50.46126221103813" lon="3.943922354141321"><ele>32.0</ele><time>2026-03-22T15:33:54.999Z</time></trkpt><trkpt lat="50.4613486006056" lon="3.943713555664038"><ele>31.666666666666664</ele><time>2026-03-22T15:33:55.999Z</time></trkpt><trkpt lat="50.461437554909274" lon="3.9435058897494204"><ele>31.333333333333336</ele><time>2026-03-22T15:33:56.999Z</time></trkpt><trkpt lat="50.46153138376316" lon="3.9432883859137027"><ele>31.0</ele><time>2026-03-22T15:33:57.999Z</time></trkpt><trkpt lat="50.46162941943223" lon="3.9430807704745954"><ele>31.0</ele><time>2026-03-22T15:33:58.999Z</time></trkpt><trkpt lat="50.46172588107401" lon="3.9428580010998595"><ele>31.0</ele><time>2026-03-22T15:33:59.999Z</time></trkpt><trkpt lat="50.46182201704896" lon="3.942643848470962"><ele>31.0</ele><time>2026-03-22T15:34:00.999Z</time></trkpt><trkpt lat="50.461914838721924" lon="3.9424571460884765"><ele>31.0</ele><time>2026-03-22T15:34:01.999Z</time></trkpt><trkpt lat="50.46200242969042" lon="3.942294676306535"><ele>31.0</ele><time>2026-03-22T15:34:02.999Z</time></trkpt><trkpt lat="50.46208382097856" lon="3.94214189682998"><ele>31.0</ele><time>2026-03-22T15:34:03.999Z</time></trkpt><trkpt lat="50.462161684863744" lon="3.941998634020121"><ele>31.0</ele><time>2026-03-22T15:34:04.999Z</time></trkpt><trkpt lat="50.46223897611878" lon="3.941860668926107"><ele>30.75</ele><time>2026-03-22T15:34:05.999Z</time></trkpt><trkpt lat="50.46231925961007" lon="3.9417242100386036"><ele>30.5</ele><time>2026-03-22T15:34:06.999Z</time></trkpt><trkpt lat="50.462402346986735" lon="3.9415930949949987"><ele>30.25</ele><time>2026-03-22T15:34:07.999Z</time></trkpt><trkpt lat="50.462481244518756" lon="3.9414653553262826"><ele>30.0</ele><time>2026-03-22T15:34:08.999Z</time></trkpt><trkpt lat="50.462556651221426" lon="3.941340792485393"><ele>29.8</ele><time>2026-03-22T15:34:09.999Z</time></trkpt><trkpt lat="50.462624957708265" lon="3.941234428530052"><ele>29.6</ele><time>2026-03-22T15:34:10.999Z</time></trkpt><trkpt lat="50.462681370100725" lon="3.9411435159686476"><ele>29.4</ele><time>2026-03-22T15:34:11.999Z</time></trkpt><trkpt lat="50.46272964852399" lon="3.941071429056647"><ele>29.2</ele><time>2026-03-22T15:34:12.999Z</time></trkpt><trkpt lat="50.46284515380184" lon="3.9410210429278663"><ele>29.0</ele><time>2026-03-22T15:34:14.999Z</time></trkpt><trkpt lat="50.46296495067038" lon="3.9408516989982307"><ele>28.999999999999996</ele><time>2026-03-22T15:34:17.999Z</time></trkpt><trkpt lat="50.46297920100821" lon="3.9407450245238866"><ele>29.0</ele><time>2026-03-22T15:34:18.999Z</time></trkpt><trkpt lat="50.46302274067043" lon="3.940653083845488"><ele>29.0</ele><time>2026-03-22T15:34:19.999Z</time></trkpt><trkpt lat="50.46308484671779" lon="3.940571964026935"><ele>29.0</ele><time>2026-03-22T15:34:20.999Z</time></trkpt><trkpt lat="50.4631472367224" lon="3.9404777420869173"><ele>28.999999999999996</ele><time>2026-03-22T15:34:21.998Z</time></trkpt><trkpt lat="50.463211306838325" lon="3.9403783507412053"><ele>29.0</ele><time>2026-03-22T15:34:22.998Z</time></trkpt><trkpt lat="50.463281287663186" lon="3.940276504081984"><ele>29.0</ele><time>2026-03-22T15:34:23.998Z</time></trkpt><trkpt lat="50.46334807397415" lon="3.9401614023168032"><ele>29.0</ele><time>2026-03-22T15:34:24.998Z</time></trkpt><trkpt lat="50.46342058946622" lon="3.9400491024092292"><ele>29.0</ele><time>2026-03-22T15:34:25.998Z</time></trkpt><trkpt lat="50.463498130001845" lon="3.93993408130909"><ele>29.0</ele><time>2026-03-22T15:34:26.998Z</time></trkpt><trkpt lat="50.46357878098242" lon="3.939817298200638"><ele>29.0</ele><time>2026-03-22T15:34:27.998Z</time></trkpt><trkpt lat="50.46366617922129" lon="3.9396855479976423"><ele>29.5</ele><time>2026-03-22T15:34:28.998Z</time></trkpt><trkpt lat="50.46375009686174" lon="3.9395326836613576"><ele>30.0</ele><time>2026-03-22T15:34:29.998Z</time></trkpt><trkpt lat="50.4638252701747" lon="3.9393579762765536"><ele>30.5</ele><time>2026-03-22T15:34:30.998Z</time></trkpt><trkpt lat="50.463888648968016" lon="3.939179779572426"><ele>31.0</ele><time>2026-03-22T15:34:31.998Z</time></trkpt><trkpt lat="50.4639368659303" lon="3.9390036643197273"><ele>31.25</ele><time>2026-03-22T15:34:32.998Z</time></trkpt><trkpt lat="50.46398354016355" lon="3.938831271546338"><ele>31.5</ele><time>2026-03-22T15:34:33.998Z</time></trkpt><trkpt lat="50.46403326148974" lon="3.9386610059821816"><ele>31.75</ele><time>2026-03-22T15:34:34.998Z</time></trkpt><trkpt lat="50.46407981079038" lon="3.9384881519276966"><ele>32.0</ele><time>2026-03-22T15:34:35.998Z</time></trkpt><trkpt lat="50.46412540930992" lon="3.9383153424414803"><ele>32.25</ele><time>2026-03-22T15:34:36.998Z</time></trkpt><trkpt lat="50.46417606331671" lon="3.9381433001525674"><ele>32.5</ele><time>2026-03-22T15:34:37.998Z</time></trkpt><trkpt lat="50.46423045698718" lon="3.937969581477861"><ele>32.75</ele><time>2026-03-22T15:34:38.998Z</time></trkpt><trkpt lat="50.464283838972676" lon="3.9377928288837256"><ele>33.0</ele><time>2026-03-22T15:34:39.998Z</time></trkpt><trkpt lat="50.4667295747341" lon="3.927264824960108"><ele>33.75</ele><time>2026-03-22T15:35:41Z</time></trkpt><trkpt lat="50.466831997415014" lon="3.9271118217059544"><ele>34.5</ele><time>2026-03-22T15:35:42Z</time></trkpt><trkpt lat="50.46693081149037" lon="3.9269566997670853"><ele>35.25</ele><time>2026-03-22T15:35:42.999Z</time></trkpt><trkpt lat="50.46702613743879" lon="3.9268009935706"><ele>36.0</ele><time>2026-03-22T15:35:43.999Z</time></trkpt><trkpt lat="50.46711675121677" lon="3.9266413372563043"><ele>36.0</ele><time>2026-03-22T15:35:44.999Z</time></trkpt><trkpt lat="50.467201616172424" lon="3.9264783806833763"><ele>36.0</ele><time>2026-03-22T15:35:45.999Z</time></trkpt><trkpt lat="50.467284354625185" lon="3.926308999075891"><ele>36.0</ele><time>2026-03-22T15:35:46.999Z</time></trkpt><trkpt lat="50.46736206925908" lon="3.9261352387143975"><ele>36.0</ele><time>2026-03-22T15:35:47.999Z</time></trkpt><trkpt lat="50.467436196255484" lon="3.9259580601927686"><ele>35.0</ele><time>2026-03-22T15:35:48.999Z</time></trkpt><trkpt lat="50.467506528354335" lon="3.92578058134438"><ele>34.0</ele><time>2026-03-22T15:35:49.999Z</time></trkpt><trkpt lat="50.46757500694165" lon="3.925598128797383"><ele>33.0</ele><time>2026-03-22T15:35:50.999Z</time></trkpt><trkpt lat="50.467643505626235" lon="3.9254210591156915"><ele>32.0</ele><time>2026-03-22T15:35:51.999Z</time></trkpt><trkpt lat="50.46771036459644" lon="3.9252484137091037"><ele>32.0</ele><time>2026-03-22T15:35:52.999Z</time></trkpt><trkpt lat="50.467776669254526" lon="3.9250759883787683"><ele>32.0</ele><time>2026-03-22T15:35:53.999Z</time></trkpt><trkpt lat="50.46784304554287" lon="3.9249056192516347"><ele>32.0</ele><time>2026-03-22T15:35:54.999Z</time></trkpt><trkpt lat="50.4679092358046" lon="3.9247339660403497"><ele>32.0</ele><time>2026-03-22T15:35:55.999Z</time></trkpt><trkpt lat="50.46797494275238" lon="3.9245642960263707"><ele>31.75</ele><time>2026-03-22T15:35:56.999Z</time></trkpt><trkpt lat="50.46804226186805" lon="3.9243945602814296"><ele>31.5</ele><time>2026-03-22T15:35:57.999Z</time></trkpt><trkpt lat="50.46810948299558" lon="3.9242206692039012"><ele>31.25</ele><time>2026-03-22T15:35:58.999Z</time></trkpt><trkpt lat="50.4681771565193" lon="3.9240429594046327"><ele>31.0</ele><time>2026-03-22T15:35:59.999Z</time></trkpt><trkpt lat="50.46824512244309" lon="3.9238659119793584"><ele>31.0</ele><time>2026-03-22T15:36:00.999Z</time></trkpt><trkpt lat="50.46831435608182" lon="3.9236912300843447"><ele>31.0</ele><time>2026-03-22T15:36:01.999Z</time></trkpt><trkpt lat="50.468382228733894" lon="3.9235137800116244"><ele>31.0</ele><time>2026-03-22T15:36:02.999Z</time></trkpt><trkpt lat="50.468450099797465" lon="3.923338603563901"><ele>31.0</ele><time>2026-03-22T15:36:03.999Z</time></trkpt><trkpt lat="50.46851464747023" lon="3.9231720795681535"><ele>31.0</ele><time>2026-03-22T15:36:04.999Z</time></trkpt><trkpt lat="50.46857476823925" lon="3.923013191629423"><ele>31.0</ele><time>2026-03-22T15:36:05.999Z</time></trkpt><trkpt lat="50.468633034112955" lon="3.922859235139508"><ele>31.0</ele><time>2026-03-22T15:36:06.999Z</time></trkpt><trkpt lat="50.468703405788716" lon="3.9227265231325177"><ele>31.0</ele><time>2026-03-22T15:36:07.999Z</time></trkpt><trkpt lat="50.46874756439882" lon="3.922564359123324"><ele>31.0</ele><time>2026-03-22T15:36:08.999Z</time></trkpt><trkpt lat="50.46880973423076" lon="3.9224192575722907"><ele>31.0</ele><time>2026-03-22T15:36:09.999Z</time></trkpt><trkpt lat="50.468880292870104" lon="3.922278719533738"><ele>31.0</ele><time>2026-03-22T15:36:10.999Z</time></trkpt><trkpt lat="50.46891490294698" lon="3.922127992816668"><ele>31.0</ele><time>2026-03-22T15:36:11.999Z</time></trkpt><trkpt lat="50.468977115249906" lon="3.9219853015353205"><ele>31.0</ele><time>2026-03-22T15:36:12.999Z</time></trkpt><trkpt lat="50.46903585754741" lon="3.9218271633979915"><ele>31.5</ele><time>2026-03-22T15:36:13.999Z</time></trkpt><trkpt lat="50.46910221520197" lon="3.921662430543168"><ele>32.0</ele><time>2026-03-22T15:36:14.999Z</time></trkpt><trkpt lat="50.46916410374364" lon="3.9214935123791204"><ele>32.5</ele><time>2026-03-22T15:36:15.999Z</time></trkpt><trkpt lat="50.46922816598546" lon="3.9213306065872713"><ele>33.0</ele><time>2026-03-22T15:36:16.999Z</time></trkpt><trkpt lat="50.469290250919904" lon="3.921162514496894"><ele>33.0</ele><time>2026-03-22T15:36:17.999Z</time></trkpt><trkpt lat="50.469358111136664" lon="3.920991526605956"><ele>33.0</ele><time>2026-03-22T15:36:18.999Z</time></trkpt><trkpt lat="50.46944071487078" lon="3.920818075360306"><ele>33.0</ele><time>2026-03-22T15:36:19.999Z</time></trkpt><trkpt lat="50.46951318125543" lon="3.92063402888373"><ele>33.0</ele><time>2026-03-22T15:36:20.999Z</time></trkpt><trkpt lat="50.46958759530264" lon="3.9204450422174664"><ele>33.0</ele><time>2026-03-22T15:36:21.999Z</time></trkpt><trkpt lat="50.46966042480459" lon="3.920260081215906"><ele>33.0</ele><time>2026-03-22T15:36:22.999Z</time></trkpt><trkpt lat="50.469719101014334" lon="3.9200701919375867"><ele>33.0</ele><time>2026-03-22T15:36:23.999Z</time></trkpt><trkpt lat="50.46978654705074" lon="3.919905625704804"><ele>33.0</ele><time>2026-03-22T15:36:24.999Z</time></trkpt><trkpt lat="50.469846464480305" lon="3.9197480764289265"><ele>33.0</ele><time>2026-03-22T15:36:25.999Z</time></trkpt><trkpt lat="50.4698955479" lon="3.919620467761632"><ele>33.0</ele><time>2026-03-22T15:36:26.999Z</time></trkpt><trkpt lat="50.46993650414269" lon="3.9195229200670973"><ele>33.0</ele><time>2026-03-22T15:36:27.999Z</time></trkpt><trkpt lat="50.470007992226556" lon="3.919424041888485"><ele>33.0</ele><time>2026-03-22T15:36:29.999Z</time></trkpt><trkpt lat="50.47007345663355" lon="3.9194334562442394"><ele>33.0</ele><time>2026-03-22T15:36:31.999Z</time></trkpt><trkpt lat="50.470133040521524" lon="3.919466669977151"><ele>33.0</ele><time>2026-03-22T15:36:35.999Z</time></trkpt><trkpt lat="50.47006402866083" lon="3.9193968084332753"><ele>31.0</ele><time>2026-03-22T15:36:38.999Z</time></trkpt><trkpt lat="50.47068558194611" lon="3.9169315686251545"><ele>31.5</ele><time>2026-03-22T15:40:40.999Z</time></trkpt><trkpt lat="50.470715876144006" lon="3.9167233152369256"><ele>32.0</ele><time>2026-03-22T15:40:41.999Z</time></trkpt><trkpt lat="50.47074027162621" lon="3.9165274084851327"><ele>32.5</ele><time>2026-03-22T15:40:42.999Z</time></trkpt><trkpt lat="50.470764936710665" lon="3.91633011372047"><ele>33.0</ele><time>2026-03-22T15:40:43.999Z</time></trkpt><trkpt lat="50.47079079860776" lon="3.9161250576746625"><ele>33.0</ele><time>2026-03-22T15:40:44.999Z</time></trkpt><trkpt lat="50.47082044528525" lon="3.9159228185209503"><ele>33.0</ele><time>2026-03-22T15:40:45.999Z</time></trkpt><trkpt lat="50.470850463353585" lon="3.915720846847021"><ele>33.0</ele><time>2026-03-22T15:40:46.999Z</time></trkpt><trkpt lat="50.470876527928716" lon="3.9155327920065335"><ele>33.0</ele><time>2026-03-22T15:40:47.999Z</time></trkpt><trkpt lat="50.47090453781435" lon="3.9153484290306317"><ele>32.75</ele><time>2026-03-22T15:40:48.999Z</time></trkpt><trkpt lat="50.47093310857302" lon="3.9151688791573083"><ele>32.5</ele><time>2026-03-22T15:40:49.999Z</time></trkpt><trkpt lat="50.47095928233326" lon="3.9149907493421807"><ele>32.25</ele><time>2026-03-22T15:40:50.999Z</time></trkpt><trkpt lat="50.47098812660855" lon="3.914813447135962"><ele>32.0</ele><time>2026-03-22T15:40:51.999Z</time></trkpt><trkpt lat="50.471016521855866" lon="3.914640507037471"><ele>32.0</ele><time>2026-03-22T15:40:52.999Z</time></trkpt><trkpt lat="50.47103876088517" lon="3.914468905904822"><ele>32.0</ele><time>2026-03-22T15:40:53.999Z</time></trkpt><trkpt lat="50.471065179247134" lon="3.9143007881946503"><ele>32.0</ele><time>2026-03-22T15:40:54.999Z</time></trkpt><trkpt lat="50.47108890674347" lon="3.914121405774111"><ele>32.0</ele><time>2026-03-22T15:40:55.999Z</time></trkpt><trkpt lat="50.471113365485266" lon="3.9139373925449994"><ele>32.0</ele><time>2026-03-22T15:40:56.999Z</time></trkpt><trkpt lat="50.47113879397797" lon="3.9137447182967953"><ele>32.0</ele><time>2026-03-22T15:40:57.999Z</time></trkpt><trkpt lat="50.47116372462059" lon="3.9135567410089114"><ele>32.0</ele><time>2026-03-22T15:40:58.999Z</time></trkpt><trkpt lat="50.47119062393928" lon="3.9133903620873935"><ele>32.0</ele><time>2026-03-22T15:40:59.999Z</time></trkpt><trkpt lat="50.471216514148864" lon="3.9132255217207454"><ele>31.999999999999996</ele><time>2026-03-22T15:41:00.999Z</time></trkpt><trkpt lat="50.471240341319" lon="3.9130653805104045"><ele>32.0</ele><time>2026-03-22T15:41:01.999Z</time></trkpt><trkpt lat="50.47125944607666" lon="3.912920862970241"><ele>32.0</ele><time>2026-03-22T15:41:02.999Z</time></trkpt><trkpt lat="50.47127898457301" lon="3.9127934547870438"><ele>32.0</ele><time>2026-03-22T15:41:03.999Z</time></trkpt><trkpt lat="50.47129411367231" lon="3.912663021420137"><ele>31.999999999999996</ele><time>2026-03-22T15:41:04.999Z</time></trkpt><trkpt lat="50.47131299025509" lon="3.912548040194618"><ele>32.0</ele><time>2026-03-22T15:41:05.999Z</time></trkpt><trkpt lat="50.47133438310936" lon="3.9124203039961674"><ele>31.833333333333332</ele><time>2026-03-22T15:41:07.999Z</time></trkpt><trkpt lat="50.47135581185386" lon="3.9122708155481316"><ele>31.666666666666664</ele><time>2026-03-22T15:41:09.999Z</time></trkpt><trkpt lat="50.47136928231658" lon="3.912172420937326"><ele>31.5</ele><time>2026-03-22T15:41:10.999Z</time></trkpt><trkpt lat="50.47138660251478" lon="3.9120570495137175"><ele>31.333333333333336</ele><time>2026-03-22T15:41:11.999Z</time></trkpt><trkpt lat="50.471406711407134" lon="3.911930508055697"><ele>31.166666666666668</ele><time>2026-03-22T15:41:12.999Z</time></trkpt><trkpt lat="50.471425586280674" lon="3.9117909571763354"><ele>31.0</ele><time>2026-03-22T15:41:13.999Z</time></trkpt><trkpt lat="50.47144289396368" lon="3.9116429154455368"><ele>30.75</ele><time>2026-03-22T15:41:14.999Z</time></trkpt><trkpt lat="50.47146318432632" lon="3.9114856188317138"><ele>30.5</ele><time>2026-03-22T15:41:15.999Z</time></trkpt><trkpt lat="50.47148629144137" lon="3.9113070497125593"><ele>30.25</ele><time>2026-03-22T15:41:16.999Z</time></trkpt><trkpt lat="50.47151503168238" lon="3.9111272255941874"><ele>30.0</ele><time>2026-03-22T15:41:17.999Z</time></trkpt><trkpt lat="50.47154570411687" lon="3.9109280386168566"><ele>30.0</ele><time>2026-03-22T15:41:18.999Z</time></trkpt><trkpt lat="50.4715754850215" lon="3.9107178955342885"><ele>30.0</ele><time>2026-03-22T15:41:19.999Z</time></trkpt><trkpt lat="50.471607386883704" lon="3.9105144317573886"><ele>30.0</ele><time>2026-03-22T15:41:20.999Z</time></trkpt><trkpt lat="50.47163728939896" lon="3.910315991269201"><ele>30.0</ele><time>2026-03-22T15:41:22.001Z</time></trkpt><trkpt lat="50.4716737590434" lon="3.910125460936984"><ele>30.5</ele><time>2026-03-22T15:41:23.001Z</time></trkpt><trkpt lat="50.47171628980389" lon="3.909935450559844"><ele>31.0</ele><time>2026-03-22T15:41:24Z</time></trkpt><trkpt lat="50.47176359451491" lon="3.9097467242640906"><ele>31.5</ele><time>2026-03-22T15:41:25Z</time></trkpt><trkpt lat="50.47181299964827" lon="3.9095614198286364"><ele>32.0</ele><time>2026-03-22T15:41:26.001Z</time></trkpt><trkpt lat="50.471866267415585" lon="3.909378043314376"><ele>32.0</ele><time>2026-03-22T15:41:27Z</time></trkpt><trkpt lat="50.47192662667868" lon="3.9091979220903244"><ele>32.0</ele><time>2026-03-22T15:41:28Z</time></trkpt><trkpt lat="50.47198984198419" lon="3.9090206394768154"><ele>32.0</ele><time>2026-03-22T15:41:29Z</time></trkpt><trkpt lat="50.4720575995846" lon="3.908844005254147"><ele>32.0</ele><time>2026-03-22T15:41:30Z</time></trkpt><trkpt lat="50.472129877041326" lon="3.908678135726224"><ele>32.0</ele><time>2026-03-22T15:41:31Z</time></trkpt><trkpt lat="50.472206099476935" lon="3.908517954176545"><ele>32.0</ele><time>2026-03-22T15:41:32Z</time></trkpt><trkpt lat="50.47228653665131" lon="3.9083612166861204"><ele>32.0</ele><time>2026-03-22T15:41:33Z</time></trkpt><trkpt lat="50.472368744905864" lon="3.90821348105628"><ele>32.0</ele><time>2026-03-22T15:41:34Z</time></trkpt><trkpt lat="50.472452271661986" lon="3.9080734172364378"><ele>32.0</ele><time>2026-03-22T15:41:35Z</time></trkpt><trkpt lat="50.472541693771326" lon="3.9079235151109413"><ele>32.0</ele><time>2026-03-22T15:41:36Z</time></trkpt><trkpt lat="50.47263128054331" lon="3.907778433353702"><ele>32.0</ele><time>2026-03-22T15:41:37Z</time></trkpt><trkpt lat="50.47272481036504" lon="3.9076392889506315"><ele>32.0</ele><time>2026-03-22T15:41:38Z</time></trkpt><trkpt lat="50.47281871705656" lon="3.907491554952291"><ele>32.0</ele><time>2026-03-22T15:41:39Z</time></trkpt><trkpt lat="50.4729152560932" lon="3.907346970609454"><ele>32.0</ele><time>2026-03-22T15:41:40Z</time></trkpt><trkpt lat="50.47406519405739" lon="3.8965731727833868"><ele>32.25</ele><time>2026-03-22T15:42:40.999Z</time></trkpt><trkpt lat="50.474060144171546" lon="3.8963610277397014"><ele>32.5</ele><time>2026-03-22T15:42:41.999Z</time></trkpt><trkpt lat="50.47405933227143" lon="3.8961514292253496"><ele>32.75</ele><time>2026-03-22T15:42:42.999Z</time></trkpt><trkpt lat="50.47406754468679" lon="3.895938561132901"><ele>33.0</ele><time>2026-03-22T15:42:43.999Z</time></trkpt><trkpt lat="50.47408700500344" lon="3.8957218644030034"><ele>33.0</ele><time>2026-03-22T15:42:44.999Z</time></trkpt><trkpt lat="50.47410984907998" lon="3.8955007477107064"><ele>33.0</ele><time>2026-03-22T15:42:45.999Z</time></trkpt><trkpt lat="50.47414390288994" lon="3.8952721738777094"><ele>33.0</ele><time>2026-03-22T15:42:46.999Z</time></trkpt><trkpt lat="50.47418814785561" lon="3.895040346667838"><ele>33.0</ele><time>2026-03-22T15:42:47.999Z</time></trkpt><trkpt lat="50.47424434593809" lon="3.894801172684353"><ele>32.666666666666664</ele><time>2026-03-22T15:42:48.999Z</time></trkpt><trkpt lat="50.47431116716778" lon="3.8945682969592887"><ele>32.33333333333333</ele><time>2026-03-22T15:42:49.999Z</time></trkpt><trkpt lat="50.474382781640124" lon="3.8943591808451057"><ele>32.0</ele><time>2026-03-22T15:42:50.999Z</time></trkpt><trkpt lat="50.474445438351765" lon="3.894164578430991"><ele>32.0</ele><time>2026-03-22T15:42:51.999Z</time></trkpt><trkpt lat="50.47450421693976" lon="3.8939827739838964"><ele>32.0</ele><time>2026-03-22T15:42:52.998Z</time></trkpt><trkpt lat="50.474565462535864" lon="3.893799129968411"><ele>32.0</ele><time>2026-03-22T15:42:53.998Z</time></trkpt><trkpt lat="50.47462620476874" lon="3.893610324582771"><ele>32.0</ele><time>2026-03-22T15:42:54.998Z</time></trkpt><trkpt lat="50.47468731603604" lon="3.893421732430573"><ele>32.5</ele><time>2026-03-22T15:42:55.998Z</time></trkpt><trkpt lat="50.47475319731661" lon="3.8932301477046107"><ele>33.0</ele><time>2026-03-22T15:42:56.998Z</time></trkpt><trkpt lat="50.47482295285919" lon="3.8930410524118644"><ele>33.5</ele><time>2026-03-22T15:42:57.998Z</time></trkpt><trkpt lat="50.474899630242064" lon="3.892851698500451"><ele>34.0</ele><time>2026-03-22T15:42:58.998Z</time></trkpt><trkpt lat="50.474982355261474" lon="3.892665446431909"><ele>33.66666666666667</ele><time>2026-03-22T15:42:59.998Z</time></trkpt><trkpt lat="50.475067332134245" lon="3.892477206762151"><ele>33.333333333333336</ele><time>2026-03-22T15:43:00.998Z</time></trkpt><trkpt lat="50.475157319212016" lon="3.892286915273189"><ele>33.0</ele><time>2026-03-22T15:43:01.998Z</time></trkpt><trkpt lat="50.47525028431218" lon="3.8920970966643718"><ele>33.0</ele><time>2026-03-22T15:43:02.998Z</time></trkpt><trkpt lat="50.47535189283556" lon="3.89191209188462"><ele>33.0</ele><time>2026-03-22T15:43:03.998Z</time></trkpt><trkpt lat="50.47545766936584" lon="3.8917345405951798"><ele>33.0</ele><time>2026-03-22T15:43:04.998Z</time></trkpt><trkpt lat="50.475566476764484" lon="3.8915467610689993"><ele>33.666666666666664</ele><time>2026-03-22T15:43:05.998Z</time></trkpt><trkpt lat="50.4756800220813" lon="3.891360755895133"><ele>34.33333333333333</ele><time>2026-03-22T15:43:06.998Z</time></trkpt><trkpt lat="50.47579265204636" lon="3.8911694598866498"><ele>35.0</ele><time>2026-03-22T15:43:07.998Z</time></trkpt><trkpt lat="50.475908356050255" lon="3.890973366390543"><ele>34.33333333333333</ele><time>2026-03-22T15:43:08.998Z</time></trkpt><trkpt lat="50.47600914314017" lon="3.8907883340342715"><ele>33.666666666666664</ele><time>2026-03-22T15:43:09.998Z</time></trkpt><trkpt lat="50.476124110934016" lon="3.890620345937767"><ele>33.0</ele><time>2026-03-22T15:43:10.998Z</time></trkpt><trkpt lat="50.47625684909812" lon="3.890389431022581"><ele>33.0</ele><time>2026-03-22T15:43:11.998Z</time></trkpt><trkpt lat="50.47637146527598" lon="3.8901906605523164"><ele>33.0</ele><time>2026-03-22T15:43:12.998Z</time></trkpt><trkpt lat="50.47648401586263" lon="3.8899902604394496"><ele>33.0</ele><time>2026-03-22T15:43:13.998Z</time></trkpt><trkpt lat="50.47659996869878" lon="3.889796297723411"><ele>33.0</ele><time>2026-03-22T15:43:14.998Z</time></trkpt><trkpt lat="50.47671728927286" lon="3.889602515141042"><ele>33.0</ele><time>2026-03-22T15:43:15.998Z</time></trkpt><trkpt lat="50.47683208251365" lon="3.8894108352687446"><ele>33.0</ele><time>2026-03-22T15:43:16.998Z</time></trkpt><trkpt lat="50.47694800232603" lon="3.889220484038006"><ele>33.0</ele><time>2026-03-22T15:43:17.998Z</time></trkpt><trkpt lat="50.477062649106855" lon="3.8890261272397195"><ele>33.0</ele><time>2026-03-22T15:43:18.998Z</time></trkpt><trkpt lat="50.477181935616834" lon="3.888827811816796"><ele>33.0</ele><time>2026-03-22T15:43:19.998Z</time></trkpt><trkpt lat="50.477300723335034" lon="3.888631959898431"><ele>33.666666666666664</ele><time>2026-03-22T15:43:20.998Z</time></trkpt><trkpt lat="50.47741805961721" lon="3.888435976648402"><ele>34.33333333333333</ele><time>2026-03-22T15:43:21.998Z</time></trkpt><trkpt lat="50.47753875881032" lon="3.888235611574071"><ele>35.0</ele><time>2026-03-22T15:43:22.998Z</time></trkpt><trkpt lat="50.47765949377731" lon="3.888033067352032"><ele>35.0</ele><time>2026-03-22T15:43:23.998Z</time></trkpt><trkpt lat="50.47777648334066" lon="3.8878341063118023"><ele>35.0</ele><time>2026-03-22T15:43:24.998Z</time></trkpt><trkpt lat="50.47788306812709" lon="3.88764987187305"><ele>35.0</ele><time>2026-03-22T15:43:25.998Z</time></trkpt><trkpt lat="50.47799198430254" lon="3.887470289024824"><ele>35.0</ele><time>2026-03-22T15:43:26.997Z</time></trkpt><trkpt lat="50.478097117838786" lon="3.8872831991806227"><ele>35.0</ele><time>2026-03-22T15:43:27.999Z</time></trkpt><trkpt lat="50.47819951464817" lon="3.8871055773113934"><ele>35.0</ele><time>2026-03-22T15:43:28.999Z</time></trkpt><trkpt lat="50.4782958687698" lon="3.886948504152689"><ele>35.0</ele><time>2026-03-22T15:43:29.999Z</time></trkpt><trkpt lat="50.478380953358574" lon="3.88680110069653"><ele>35.0</ele><time>2026-03-22T15:43:30.999Z</time></trkpt><trkpt lat="50.47846332203219" lon="3.8866513059949503"><ele>35.0</ele><time>2026-03-22T15:43:31.999Z</time></trkpt><trkpt lat="50.478549179731715" lon="3.8864929050370223"><ele>35.0</ele><time>2026-03-22T15:43:32.999Z</time></trkpt><trkpt lat="50.478645769878185" lon="3.886356148650124"><ele>35.0</ele><time>2026-03-22T15:43:33.999Z</time></trkpt><trkpt lat="50.478717050009614" lon="3.886232193616324"><ele>35.0</ele><time>2026-03-22T15:43:34.999Z</time></trkpt><trkpt lat="50.47878050245722" lon="3.8861208925385395"><ele>35.0</ele><time>2026-03-22T15:43:35.999Z</time></trkpt><trkpt lat="50.47884083832342" lon="3.886018779640165"><ele>35.0</ele><time>2026-03-22T15:43:36.999Z</time></trkpt><trkpt lat="50.4789038161562" lon="3.885935904417982"><ele>35.0</ele><time>2026-03-22T15:43:37.999Z</time></trkpt><trkpt lat="50.47897963796227" lon="3.8858620403937145"><ele>36.0</ele><time>2026-03-22T15:43:38.999Z</time></trkpt><trkpt lat="50.479064253958285" lon="3.8858238210132257"><ele>37.0</ele><time>2026-03-22T15:43:39.999Z</time></trkpt><trkpt lat="50.47829785365257" lon="3.8793257202506077"><ele>35.66666666666667</ele><time>2026-03-22T15:44:40.998Z</time></trkpt><trkpt lat="50.4782595376193" lon="3.8789862745376618"><ele>34.333333333333336</ele><time>2026-03-22T15:44:41.998Z</time></trkpt><trkpt lat="50.478220259897434" lon="3.8786386125490324"><ele>33.0</ele><time>2026-03-22T15:44:42.998Z</time></trkpt><trkpt lat="50.478180090020956" lon="3.8782777541426623"><ele>33.0</ele><time>2026-03-22T15:44:43.998Z</time></trkpt><trkpt lat="50.47814058069337" lon="3.877906649456277"><ele>33.0</ele><time>2026-03-22T15:44:44.998Z</time></trkpt><trkpt lat="50.47809965220866" lon="3.877530283362245"><ele>33.5</ele><time>2026-03-22T15:44:45.998Z</time></trkpt><trkpt lat="50.4780568622432" lon="3.8771535972549938"><ele>34.0</ele><time>2026-03-22T15:44:46.998Z</time></trkpt><trkpt lat="50.478013388878594" lon="3.876772942205204"><ele>34.0</ele><time>2026-03-22T15:44:47.998Z</time></trkpt><trkpt lat="50.477970104114924" lon="3.876393920702662"><ele>34.0</ele><time>2026-03-22T15:44:48.998Z</time></trkpt><trkpt lat="50.47792899524128" lon="3.8760207272162317"><ele>32.5</ele><time>2026-03-22T15:44:49.998Z</time></trkpt><trkpt lat="50.477884960734954" lon="3.8756517124432937"><ele>31.0</ele><time>2026-03-22T15:44:50.998Z</time></trkpt><trkpt lat="50.477834373655334" lon="3.8752934556447656"><ele>33.0</ele><time>2026-03-22T15:44:51.998Z</time></trkpt><trkpt lat="50.477771652392406" lon="3.874932239461391"><ele>35.0</ele><time>2026-03-22T15:44:52.998Z</time></trkpt><trkpt lat="50.4777006749072" lon="3.874572173033826"><ele>35.5</ele><time>2026-03-22T15:44:53.998Z</time></trkpt><trkpt lat="50.47762600808838" lon="3.8742059337566728"><ele>36.0</ele><time>2026-03-22T15:44:54.998Z</time></trkpt><trkpt lat="50.47755604093695" lon="3.8738385168011744"><ele>36.0</ele><time>2026-03-22T15:44:55.998Z</time></trkpt><trkpt lat="50.47748431138889" lon="3.873463081902702"><ele>36.0</ele><time>2026-03-22T15:44:56.998Z</time></trkpt><trkpt lat="50.47741665142487" lon="3.8730886077329467"><ele>34.5</ele><time>2026-03-22T15:44:57.998Z</time></trkpt><trkpt lat="50.47735300022161" lon="3.8727108668149164"><ele>33.0</ele><time>2026-03-22T15:44:58.998Z</time></trkpt><trkpt lat="50.477304285584" lon="3.8723299880048208"><ele>33.0</ele><time>2026-03-22T15:44:59.998Z</time></trkpt><trkpt lat="50.477263557329636" lon="3.871944479152842"><ele>33.0</ele><time>2026-03-22T15:45:00.998Z</time></trkpt><trkpt lat="50.477221402654685" lon="3.8715485870863673"><ele>34.5</ele><time>2026-03-22T15:45:01.998Z</time></trkpt><trkpt lat="50.47717676607691" lon="3.8711434732890795"><ele>36.0</ele><time>2026-03-22T15:45:02.998Z</time></trkpt><trkpt lat="50.47713082433895" lon="3.8707288184485935"><ele>35.5</ele><time>2026-03-22T15:45:03.998Z</time></trkpt><trkpt lat="50.47708490094991" lon="3.870306397115012"><ele>35.0</ele><time>2026-03-22T15:45:04.998Z</time></trkpt><trkpt lat="50.477037901023266" lon="3.869877046010117"><ele>35.0</ele><time>2026-03-22T15:45:05.998Z</time></trkpt><trkpt lat="50.47699100042061" lon="3.869446129877084"><ele>35.0</ele><time>2026-03-22T15:45:06.998Z</time></trkpt><trkpt lat="50.476941003145775" lon="3.8690189544903624"><ele>35.0</ele><time>2026-03-22T15:45:07.998Z</time></trkpt><trkpt lat="50.47689164234722" lon="3.868593474358516"><ele>35.0</ele><time>2026-03-22T15:45:08.998Z</time></trkpt><trkpt lat="50.476842641433976" lon="3.868173110450029"><ele>34.0</ele><time>2026-03-22T15:45:09.998Z</time></trkpt><trkpt lat="50.47679209918665" lon="3.867752326367629"><ele>33.0</ele><time>2026-03-22T15:45:10.998Z</time></trkpt><trkpt lat="50.476748112843644" lon="3.867323027921053"><ele>32.5</ele><time>2026-03-22T15:45:11.998Z</time></trkpt><trkpt lat="50.476700663953125" lon="3.8669031480524962"><ele>32.0</ele><time>2026-03-22T15:45:12.998Z</time></trkpt><trkpt lat="50.476650765898924" lon="3.866474393346369"><ele>32.0</ele><time>2026-03-22T15:45:13.998Z</time></trkpt><trkpt lat="50.47660439744029" lon="3.8660521874152254"><ele>32.0</ele><time>2026-03-22T15:45:14.998Z</time></trkpt><trkpt lat="50.47655545569479" lon="3.865626984124594"><ele>34.0</ele><time>2026-03-22T15:45:15.998Z</time></trkpt><trkpt lat="50.47650575978513" lon="3.86520084352692"><ele>36.0</ele><time>2026-03-22T15:45:16.998Z</time></trkpt><trkpt lat="50.47644510881421" lon="3.864788998693721"><ele>36.0</ele><time>2026-03-22T15:45:17.998Z</time></trkpt><trkpt lat="50.476410922167865" lon="3.8643386564114044"><ele>36.0</ele><time>2026-03-22T15:45:18.998Z</time></trkpt><trkpt lat="50.47636215785797" lon="3.8639102304373525"><ele>36.0</ele><time>2026-03-22T15:45:19.998Z</time></trkpt><trkpt lat="50.47631406506719" lon="3.863475979527512"><ele>36.0</ele><time>2026-03-22T15:45:20.998Z</time></trkpt><trkpt lat="50.476265668491415" lon="3.863033780064295"><ele>36.0</ele><time>2026-03-22T15:45:21.998Z</time></trkpt><trkpt lat="50.476213904768805" lon="3.8625886785895167"><ele>36.0</ele><time>2026-03-22T15:45:22.998Z</time></trkpt><trkpt lat="50.47616182155054" lon="3.8621350884898233"><ele>35.5</ele><time>2026-03-22T15:45:23.998Z</time></trkpt><trkpt lat="50.47611593612872" lon="3.861687041678602"><ele>35.0</ele><time>2026-03-22T15:45:24.998Z</time></trkpt><trkpt lat="50.476064539002465" lon="3.861239117875247"><ele>35.0</ele><time>2026-03-22T15:45:25.998Z</time></trkpt><trkpt lat="50.476013457117965" lon="3.860792882239748"><ele>35.0</ele><time>2026-03-22T15:45:26.998Z</time></trkpt><trkpt lat="50.4759754782572" lon="3.860363722909731"><ele>35.0</ele><time>2026-03-22T15:45:27.998Z</time></trkpt><trkpt lat="50.47594827394141" lon="3.859938092270378"><ele>35.0</ele><time>2026-03-22T15:45:28.998Z</time></trkpt><trkpt lat="50.47591450822691" lon="3.859505621289586"><ele>34.5</ele><time>2026-03-22T15:45:29.998Z</time></trkpt><trkpt lat="50.47589072887963" lon="3.859084035954533"><ele>34.0</ele><time>2026-03-22T15:45:30.998Z</time></trkpt><trkpt lat="50.4758783129822" lon="3.858676936361992"><ele>33.5</ele><time>2026-03-22T15:45:31.998Z</time></trkpt><trkpt lat="50.47585615390062" lon="3.858307868807291"><ele>33.0</ele><time>2026-03-22T15:45:32.998Z</time></trkpt><trkpt lat="50.47583782723952" lon="3.8579541559000066"><ele>32.666666666666664</ele><time>2026-03-22T15:45:34Z</time></trkpt><trkpt lat="50.475824868032426" lon="3.8576141754490445"><ele>32.33333333333333</ele><time>2026-03-22T15:45:35Z</time></trkpt><trkpt lat="50.47582475098755" lon="3.8572926019866483"><ele>32.0</ele><time>2026-03-22T15:45:36Z</time></trkpt><trkpt lat="50.47582660497303" lon="3.8569880134562764"><ele>33.0</ele><time>2026-03-22T15:45:37Z</time></trkpt><trkpt lat="50.4758285089804" lon="3.856701842067908"><ele>34.0</ele><time>2026-03-22T15:45:38Z</time></trkpt><trkpt lat="50.47582213043794" lon="3.8564393793424303"><ele>35.0</ele><time>2026-03-22T15:45:39Z</time></trkpt><trkpt lat="50.47582109746749" lon="3.85618239895626"><ele>36.0</ele><time>2026-03-22T15:45:40Z</time></trkpt><trkpt lat="50.47699310430512" lon="3.843393859342318"><ele>36.0</ele><time>2026-03-22T15:46:40.999Z</time></trkpt><trkpt lat="50.47704867073345" lon="3.843123958513049"><ele>36.0</ele><time>2026-03-22T15:46:41.999Z</time></trkpt><trkpt lat="50.477111462526906" lon="3.842841035996575"><ele>36.0</ele><time>2026-03-22T15:46:42.999Z</time></trkpt><trkpt lat="50.47717850081816" lon="3.8425416093374025"><ele>38.333333333333336</ele><time>2026-03-22T15:46:43.999Z</time></trkpt><trkpt lat="50.477245232786345" lon="3.8422362083250876"><ele>40.66666666666667</ele><time>2026-03-22T15:46:44.999Z</time></trkpt><trkpt lat="50.47730920995663" lon="3.8419399135780874"><ele>43.0</ele><time>2026-03-22T15:46:45.999Z</time></trkpt><trkpt lat="50.477364721094624" lon="3.8416855201647495"><ele>43.0</ele><time>2026-03-22T15:46:46.999Z</time></trkpt><trkpt lat="50.47741375380801" lon="3.8414616296739905"><ele>43.0</ele><time>2026-03-22T15:46:47.999Z</time></trkpt><trkpt lat="50.477457645975946" lon="3.8412688081108888"><ele>43.0</ele><time>2026-03-22T15:46:48.999Z</time></trkpt><trkpt lat="50.4774975753308" lon="3.841103848521763"><ele>43.0</ele><time>2026-03-22T15:46:49.999Z</time></trkpt><trkpt lat="50.47752945762065" lon="3.8409695442970677"><ele>42.8</ele><time>2026-03-22T15:46:50.999Z</time></trkpt><trkpt lat="50.47755090030218" lon="3.8408675281339306"><ele>42.599999999999994</ele><time>2026-03-22T15:46:51.999Z</time></trkpt><trkpt lat="50.47757503504779" lon="3.8407464695650493"><ele>42.400000000000006</ele><time>2026-03-22T15:46:53.999Z</time></trkpt><trkpt lat="50.47760242229434" lon="3.8406456158610722"><ele>42.2</ele><time>2026-03-22T15:47:16.998Z</time></trkpt><trkpt lat="50.477645972780344" lon="3.840436222571593"><ele>42.0</ele><time>2026-03-22T15:47:18.998Z</time></trkpt><trkpt lat="50.477676432152776" lon="3.840277585048455"><ele>42.0</ele><time>2026-03-22T15:47:19.998Z</time></trkpt><trkpt lat="50.4777255136712" lon="3.840064114895767"><ele>42.0</ele><time>2026-03-22T15:47:20.998Z</time></trkpt><trkpt lat="50.47778200140907" lon="3.83981005049475"><ele>42.0</ele><time>2026-03-22T15:47:21.998Z</time></trkpt><trkpt lat="50.477848304046525" lon="3.8395110168429025"><ele>42.333333333333336</ele><time>2026-03-22T15:47:22.998Z</time></trkpt><trkpt lat="50.4779158378379" lon="3.839185454305399"><ele>42.66666666666667</ele><time>2026-03-22T15:47:23.998Z</time></trkpt><trkpt lat="50.4779867359989" lon="3.838857889542358"><ele>43.0</ele><time>2026-03-22T15:47:24.998Z</time></trkpt><trkpt lat="50.4780574804611" lon="3.8385358261324223"><ele>44.333333333333336</ele><time>2026-03-22T15:47:25.998Z</time></trkpt><trkpt lat="50.4781312463059" lon="3.8382100358151776"><ele>45.666666666666664</ele><time>2026-03-22T15:47:26.998Z</time></trkpt><trkpt lat="50.47820261220793" lon="3.837899035405386"><ele>47.0</ele><time>2026-03-22T15:47:27.998Z</time></trkpt><trkpt lat="50.47827303183797" lon="3.8376014005705303"><ele>47.33333333333333</ele><time>2026-03-22T15:47:28.998Z</time></trkpt><trkpt lat="50.47833968936995" lon="3.837294376054088"><ele>47.666666666666664</ele><time>2026-03-22T15:47:29.998Z</time></trkpt><trkpt lat="50.47841059076041" lon="3.8369806822746853"><ele>48.0</ele><time>2026-03-22T15:47:30.998Z</time></trkpt><trkpt lat="50.478479802079896" lon="3.8366643930988187"><ele>47.333333333333336</ele><time>2026-03-22T15:47:31.998Z</time></trkpt><trkpt lat="50.47854713758186" lon="3.836342797981274"><ele>46.66666666666667</ele><time>2026-03-22T15:47:32.998Z</time></trkpt><trkpt lat="50.47860955947383" lon="3.8360223347914952"><ele>46.0</ele><time>2026-03-22T15:47:33.998Z</time></trkpt><trkpt lat="50.478659944794416" lon="3.835699289953019"><ele>45.0</ele><time>2026-03-22T15:47:34.998Z</time></trkpt><trkpt lat="50.47870137972671" lon="3.8353763730954835"><ele>44.0</ele><time>2026-03-22T15:47:35.998Z</time></trkpt><trkpt lat="50.478735226988086" lon="3.835049127790335"><ele>43.0</ele><time>2026-03-22T15:47:36.998Z</time></trkpt><trkpt lat="50.478755245675316" lon="3.8347178106940443"><ele>42.0</ele><time>2026-03-22T15:47:37.998Z</time></trkpt><trkpt lat="50.47876039245983" lon="3.834365632309244"><ele>41.0</ele><time>2026-03-22T15:47:39Z</time></trkpt><trkpt lat="50.47875588021256" lon="3.8340108869247045"><ele>37.0</ele><time>2026-03-22T15:47:40Z</time></trkpt><trkpt lat="50.47531193364485" lon="3.816919060735699"><ele>37.333333333333336</ele><time>2026-03-22T15:48:40.999Z</time></trkpt><trkpt lat="50.47527812084034" lon="3.816703497110383"><ele>37.666666666666664</ele><time>2026-03-22T15:48:41.999Z</time></trkpt><trkpt lat="50.47524513897614" lon="3.816474016965004"><ele>38.0</ele><time>2026-03-22T15:48:42.999Z</time></trkpt><trkpt lat="50.475208211112474" lon="3.8162312473469293"><ele>38.666666666666664</ele><time>2026-03-22T15:48:43.999Z</time></trkpt><trkpt lat="50.47517149889695" lon="3.8159698654511187"><ele>39.333333333333336</ele><time>2026-03-22T15:48:44.999Z</time></trkpt><trkpt lat="50.475134426622326" lon="3.8157056956528215"><ele>40.0</ele><time>2026-03-22T15:48:45.999Z</time></trkpt><trkpt lat="50.47509726532258" lon="3.8154683040572137"><ele>40.0</ele><time>2026-03-22T15:48:46.999Z</time></trkpt><trkpt lat="50.47506341253796" lon="3.815247011351588"><ele>40.0</ele><time>2026-03-22T15:48:47.999Z</time></trkpt><trkpt lat="50.475034972874695" lon="3.815023136354902"><ele>40.0</ele><time>2026-03-22T15:48:48.999Z</time></trkpt><trkpt lat="50.47500426032518" lon="3.8148026599206704"><ele>40.0</ele><time>2026-03-22T15:48:49.999Z</time></trkpt><trkpt lat="50.474965060337226" lon="3.814583788542433"><ele>40.0</ele><time>2026-03-22T15:48:50.999Z</time></trkpt><trkpt lat="50.474934014538796" lon="3.814372118084862"><ele>40.0</ele><time>2026-03-22T15:48:51.999Z</time></trkpt><trkpt lat="50.47490790664468" lon="3.814146234568747"><ele>40.0</ele><time>2026-03-22T15:48:52.999Z</time></trkpt><trkpt lat="50.474880096671136" lon="3.81393697648869"><ele>40.0</ele><time>2026-03-22T15:48:53.999Z</time></trkpt><trkpt lat="50.474854293218584" lon="3.813762643285766"><ele>39.5</ele><time>2026-03-22T15:48:54.999Z</time></trkpt><trkpt lat="50.47484620399738" lon="3.8136242385122854"><ele>39.0</ele><time>2026-03-22T15:48:55.999Z</time></trkpt><trkpt lat="50.47486112310947" lon="3.8134963537590565"><ele>38.5</ele><time>2026-03-22T15:48:56.999Z</time></trkpt><trkpt lat="50.474873300183745" lon="3.813376863714585"><ele>38.0</ele><time>2026-03-22T15:48:57.999Z</time></trkpt><trkpt lat="50.474873825294914" lon="3.8132671672030156"><ele>37.5</ele><time>2026-03-22T15:48:58.999Z</time></trkpt><trkpt lat="50.47483898470461" lon="3.813137932230281"><ele>37.0</ele><time>2026-03-22T15:49:00.999Z</time></trkpt><trkpt lat="50.47477435209716" lon="3.813127022995366"><ele>37.0</ele><time>2026-03-22T15:49:03.999Z</time></trkpt><trkpt lat="50.47470665752959" lon="3.8132371863095393"><ele>37.0</ele><time>2026-03-22T15:49:06.999Z</time></trkpt><trkpt lat="50.47470817073383" lon="3.8133531631715987"><ele>37.0</ele><time>2026-03-22T15:49:07.999Z</time></trkpt><trkpt lat="50.474736834707144" lon="3.8134902750953414"><ele>37.0</ele><time>2026-03-22T15:49:08.999Z</time></trkpt><trkpt lat="50.47477010512786" lon="3.8136539902570954"><ele>37.0</ele><time>2026-03-22T15:49:09.999Z</time></trkpt><trkpt lat="50.47480157695782" lon="3.813848506189937"><ele>37.0</ele><time>2026-03-22T15:49:10.999Z</time></trkpt><trkpt lat="50.47483530331762" lon="3.8140697859844104"><ele>37.0</ele><time>2026-03-22T15:49:11.999Z</time></trkpt><trkpt lat="50.47486926342989" lon="3.814316436835083"><ele>37.0</ele><time>2026-03-22T15:49:12.999Z</time></trkpt><trkpt lat="50.474909071612124" lon="3.81458474169685"><ele>38.0</ele><time>2026-03-22T15:49:13.999Z</time></trkpt><trkpt lat="50.474954208893486" lon="3.814863477505535"><ele>39.0</ele><time>2026-03-22T15:49:14.999Z</time></trkpt><trkpt lat="50.474992920670765" lon="3.8151163361531593"><ele>40.0</ele><time>2026-03-22T15:49:15.999Z</time></trkpt><trkpt lat="50.47503407573388" lon="3.815335716182915"><ele>40.0</ele><time>2026-03-22T15:49:16.999Z</time></trkpt><trkpt lat="50.475063621217416" lon="3.8155635228541565"><ele>40.0</ele><time>2026-03-22T15:49:17.999Z</time></trkpt><trkpt lat="50.47509532088599" lon="3.8157832804846805"><ele>40.0</ele><time>2026-03-22T15:49:18.999Z</time></trkpt><trkpt lat="50.47512530048529" lon="3.815991113709312"><ele>40.0</ele><time>2026-03-22T15:49:19.999Z</time></trkpt><trkpt lat="50.47515209555052" lon="3.816176870262999"><ele>39.66666666666667</ele><time>2026-03-22T15:49:20.999Z</time></trkpt><trkpt lat="50.47517663493416" lon="3.8163425655360332"><ele>39.333333333333336</ele><time>2026-03-22T15:49:21.998Z</time></trkpt><trkpt lat="50.47519743536185" lon="3.8164756317171524"><ele>39.0</ele><time>2026-03-22T15:49:22.998Z</time></trkpt><trkpt lat="50.475214353558215" lon="3.8165838621287644"><ele>38.666666666666664</ele><time>2026-03-22T15:49:23.998Z</time></trkpt><trkpt lat="50.47524087044613" lon="3.8167522670229435"><ele>38.33333333333333</ele><time>2026-03-22T15:49:25.998Z</time></trkpt><trkpt lat="50.47526914309463" lon="3.816855278758174"><ele>38.0</ele><time>2026-03-22T15:49:27.998Z</time></trkpt><trkpt lat="50.47544850797856" lon="3.816758449884527"><ele>38.0</ele><time>2026-03-22T15:49:28.998Z</time></trkpt><trkpt lat="50.47554734629238" lon="3.8167221198688215"><ele>38.0</ele><time>2026-03-22T15:49:29.998Z</time></trkpt><trkpt lat="50.47565488699755" lon="3.816644552338559"><ele>38.0</ele><time>2026-03-22T15:49:30.998Z</time></trkpt><trkpt lat="50.47577672369304" lon="3.8165700497313013"><ele>38.0</ele><time>2026-03-22T15:49:31.998Z</time></trkpt><trkpt lat="50.475915922614476" lon="3.816501039214223"><ele>38.0</ele><time>2026-03-22T15:49:32.998Z</time></trkpt><trkpt lat="50.4760600120496" lon="3.816433729585894"><ele>38.0</ele><time>2026-03-22T15:49:33.998Z</time></trkpt><trkpt lat="50.47618749507844" lon="3.8163530993401693"><ele>38.0</ele><time>2026-03-22T15:49:34.998Z</time></trkpt><trkpt lat="50.47629572248001" lon="3.8162365326166983"><ele>38.0</ele><time>2026-03-22T15:49:35.998Z</time></trkpt><trkpt lat="50.476376197492314" lon="3.816087792464307"><ele>39.75</ele><time>2026-03-22T15:49:36.998Z</time></trkpt><trkpt lat="50.476437272172866" lon="3.8159021714026387"><ele>41.5</ele><time>2026-03-22T15:49:37.998Z</time></trkpt><trkpt lat="50.476465886201" lon="3.8156885865455554"><ele>43.25</ele><time>2026-03-22T15:49:38.998Z</time></trkpt><trkpt lat="50.47649008874809" lon="3.8154721506065896"><ele>45.0</ele><time>2026-03-22T15:49:39.998Z</time></trkpt><trkpt lat="50.48571435477687" lon="3.8101660526006347"><ele>51.33333333333333</ele><time>2026-03-22T15:50:40.999Z</time></trkpt><trkpt lat="50.485915882221995" lon="3.8100727840138453"><ele>57.666666666666664</ele><time>2026-03-22T15:50:41.999Z</time></trkpt><trkpt lat="50.48611974895522" lon="3.8099799382305384"><ele>64.0</ele><time>2026-03-22T15:50:42.999Z</time></trkpt><trkpt lat="50.486328705619506" lon="3.8098836017200335"><ele>65.33333333333333</ele><time>2026-03-22T15:50:43.999Z</time></trkpt><trkpt lat="50.48653581578587" lon="3.8097869757699514"><ele>66.66666666666667</ele><time>2026-03-22T15:50:44.999Z</time></trkpt><trkpt lat="50.486744588749836" lon="3.8096897824681513"><ele>68.0</ele><time>2026-03-22T15:50:45.999Z</time></trkpt><trkpt lat="50.486953222053685" lon="3.809592122111087"><ele>67.5</ele><time>2026-03-22T15:50:46.999Z</time></trkpt><trkpt lat="50.4871684740271" lon="3.809493484857695"><ele>67.0</ele><time>2026-03-22T15:50:47.999Z</time></trkpt><trkpt lat="50.487384881771284" lon="3.809394810866982"><ele>67.66666666666666</ele><time>2026-03-22T15:50:48.999Z</time></trkpt><trkpt lat="50.48759647284691" lon="3.8092921622989966"><ele>68.33333333333333</ele><time>2026-03-22T15:50:49.999Z</time></trkpt><trkpt lat="50.48779996301551" lon="3.80919302576054"><ele>69.0</ele><time>2026-03-22T15:50:50.999Z</time></trkpt><trkpt lat="50.488002164464" lon="3.8090996674457758"><ele>70.0</ele><time>2026-03-22T15:50:51.999Z</time></trkpt><trkpt lat="50.488197891129786" lon="3.8090097111744012"><ele>71.0</ele><time>2026-03-22T15:50:52.999Z</time></trkpt><trkpt lat="50.48839084163906" lon="3.8089175264450463"><ele>72.0</ele><time>2026-03-22T15:50:53.999Z</time></trkpt><trkpt lat="50.488582454277875" lon="3.808828004165653"><ele>72.33333333333333</ele><time>2026-03-22T15:50:54.999Z</time></trkpt><trkpt lat="50.48878032115861" lon="3.80873874599063"><ele>72.66666666666666</ele><time>2026-03-22T15:50:55.999Z</time></trkpt><trkpt lat="50.48897434182729" lon="3.8086479946713583"><ele>73.0</ele><time>2026-03-22T15:50:56.999Z</time></trkpt><trkpt lat="50.48917070812747" lon="3.808559603979829"><ele>74.0</ele><time>2026-03-22T15:50:57.999Z</time></trkpt><trkpt lat="50.48936542206437" lon="3.808487531841913"><ele>75.0</ele><time>2026-03-22T15:50:58.999Z</time></trkpt><trkpt lat="50.48954393926487" lon="3.808397873993725"><ele>76.0</ele><time>2026-03-22T15:50:59.999Z</time></trkpt><trkpt lat="50.489758686461016" lon="3.8082956600371465"><ele>77.0</ele><time>2026-03-22T15:51:00.999Z</time></trkpt><trkpt lat="50.48995763501595" lon="3.8081960599327775"><ele>78.0</ele><time>2026-03-22T15:51:01.999Z</time></trkpt><trkpt lat="50.49015434954414" lon="3.8081059754319284"><ele>79.0</ele><time>2026-03-22T15:51:02.999Z</time></trkpt><trkpt lat="50.490344657974234" lon="3.808022137561567"><ele>80.33333333333333</ele><time>2026-03-22T15:51:03.999Z</time></trkpt><trkpt lat="50.490526331006905" lon="3.8079370218233968"><ele>81.66666666666667</ele><time>2026-03-22T15:51:04.999Z</time></trkpt><trkpt lat="50.49070631025141" lon="3.8078600631349624"><ele>83.0</ele><time>2026-03-22T15:51:05.999Z</time></trkpt><trkpt lat="50.49088446888673" lon="3.8077783214329965"><ele>83.0</ele><time>2026-03-22T15:51:06.999Z</time></trkpt><trkpt lat="50.49105349511838" lon="3.8076973814624613"><ele>83.0</ele><time>2026-03-22T15:51:07.999Z</time></trkpt><trkpt lat="50.49122185270678" lon="3.807613475741113"><ele>83.0</ele><time>2026-03-22T15:51:08.999Z</time></trkpt><trkpt lat="50.4913835095399" lon="3.807538151296818"><ele>83.25</ele><time>2026-03-22T15:51:09.999Z</time></trkpt><trkpt lat="50.49152753866018" lon="3.807472724165214"><ele>83.5</ele><time>2026-03-22T15:51:10.999Z</time></trkpt><trkpt lat="50.491671087447756" lon="3.807405276633535"><ele>83.75</ele><time>2026-03-22T15:51:11.999Z</time></trkpt><trkpt lat="50.49181324483518" lon="3.8073347331659946"><ele>84.0</ele><time>2026-03-22T15:51:12.999Z</time></trkpt><trkpt lat="50.491953822233604" lon="3.8072738602344343"><ele>84.0</ele><time>2026-03-22T15:51:13.999Z</time></trkpt><trkpt lat="50.49208753652436" lon="3.8072127992943092"><ele>84.0</ele><time>2026-03-22T15:51:14.999Z</time></trkpt><trkpt lat="50.49222460708596" lon="3.80714619429232"><ele>84.0</ele><time>2026-03-22T15:51:15.999Z</time></trkpt><trkpt lat="50.49236102385987" lon="3.807082129635416"><ele>84.0</ele><time>2026-03-22T15:51:16.999Z</time></trkpt><trkpt lat="50.49250003351541" lon="3.80702355664627"><ele>83.75</ele><time>2026-03-22T15:51:17.999Z</time></trkpt><trkpt lat="50.49264031135198" lon="3.8069574632124517"><ele>83.5</ele><time>2026-03-22T15:51:18.999Z</time></trkpt><trkpt lat="50.4927810216171" lon="3.8068900672561004"><ele>83.25</ele><time>2026-03-22T15:51:19.999Z</time></trkpt><trkpt lat="50.492924875351676" lon="3.806823532042838"><ele>83.0</ele><time>2026-03-22T15:51:20.999Z</time></trkpt><trkpt lat="50.493072895467556" lon="3.8067535967972255"><ele>83.0</ele><time>2026-03-22T15:51:21.999Z</time></trkpt><trkpt lat="50.493217575760696" lon="3.8066866796757566"><ele>83.0</ele><time>2026-03-22T15:51:22.999Z</time></trkpt><trkpt lat="50.49336620870738" lon="3.8066238939514294"><ele>83.0</ele><time>2026-03-22T15:51:23.999Z</time></trkpt><trkpt lat="50.493516109360904" lon="3.806555450233789"><ele>83.0</ele><time>2026-03-22T15:51:24.999Z</time></trkpt><trkpt lat="50.49366942665004" lon="3.806482904994482"><ele>83.0</ele><time>2026-03-22T15:51:25.999Z</time></trkpt><trkpt lat="50.493826288443316" lon="3.806408980170175"><ele>83.0</ele><time>2026-03-22T15:51:26.999Z</time></trkpt><trkpt lat="50.49398783029993" lon="3.8063276794410497"><ele>81.66666666666667</ele><time>2026-03-22T15:51:27.999Z</time></trkpt><trkpt lat="50.49415070229222" lon="3.806249875849254"><ele>80.33333333333333</ele><time>2026-03-22T15:51:28.999Z</time></trkpt><trkpt lat="50.49432699631995" lon="3.8061699332897816"><ele>79.0</ele><time>2026-03-22T15:51:29.999Z</time></trkpt><trkpt lat="50.49450462497183" lon="3.806091306716152"><ele>78.66666666666666</ele><time>2026-03-22T15:51:30.999Z</time></trkpt><trkpt lat="50.49469121535829" lon="3.8060054611042697"><ele>78.33333333333333</ele><time>2026-03-22T15:51:31.999Z</time></trkpt><trkpt lat="50.494878147212816" lon="3.8059173467741383"><ele>78.0</ele><time>2026-03-22T15:51:32.999Z</time></trkpt><trkpt lat="50.49506332010729" lon="3.805832469615452"><ele>78.0</ele><time>2026-03-22T15:51:33.999Z</time></trkpt><trkpt lat="50.495251672377755" lon="3.8057459424693763"><ele>78.0</ele><time>2026-03-22T15:51:34.998Z</time></trkpt><trkpt lat="50.49544036485676" lon="3.8056604483220244"><ele>78.0</ele><time>2026-03-22T15:51:35.998Z</time></trkpt><trkpt lat="50.495630652284646" lon="3.8055745393070706"><ele>78.33333333333333</ele><time>2026-03-22T15:51:36.998Z</time></trkpt><trkpt lat="50.495814735447475" lon="3.805493640596342"><ele>78.66666666666666</ele><time>2026-03-22T15:51:37.998Z</time></trkpt><trkpt lat="50.4959947458557" lon="3.8054112160777205"><ele>79.0</ele><time>2026-03-22T15:51:38.998Z</time></trkpt><trkpt lat="50.49617078689922" lon="3.8053281402862815"><ele>73.0</ele><time>2026-03-22T15:51:39.998Z</time></trkpt><trkpt lat="50.506175878215316" lon="3.80078945573997"><ele>72.33333333333333</ele><time>2026-03-22T15:52:41Z</time></trkpt><trkpt lat="50.506322317929246" lon="3.8007240993642815"><ele>71.66666666666667</ele><time>2026-03-22T15:52:42Z</time></trkpt><trkpt lat="50.50647401401389" lon="3.8006553875735696"><ele>71.0</ele><time>2026-03-22T15:52:43Z</time></trkpt><trkpt lat="50.50662083916398" lon="3.800591742909891"><ele>71.0</ele><time>2026-03-22T15:52:44Z</time></trkpt><trkpt lat="50.50676640283436" lon="3.8005307926255663"><ele>71.0</ele><time>2026-03-22T15:52:45Z</time></trkpt><trkpt lat="50.50690822493718" lon="3.800468752290142"><ele>71.0</ele><time>2026-03-22T15:52:46Z</time></trkpt><trkpt lat="50.50705221592209" lon="3.8004035999125216"><ele>71.0</ele><time>2026-03-22T15:52:47Z</time></trkpt><trkpt lat="50.50719862058478" lon="3.800336079211757"><ele>71.0</ele><time>2026-03-22T15:52:48Z</time></trkpt><trkpt lat="50.507345725835485" lon="3.800268345024352"><ele>71.0</ele><time>2026-03-22T15:52:49Z</time></trkpt><trkpt lat="50.50749404079645" lon="3.800205336691603"><ele>71.0</ele><time>2026-03-22T15:52:50Z</time></trkpt><trkpt lat="50.507638108686365" lon="3.8001424420288767"><ele>71.0</ele><time>2026-03-22T15:52:51Z</time></trkpt><trkpt lat="50.50778442370823" lon="3.8000725914559963"><ele>71.0</ele><time>2026-03-22T15:52:51.999Z</time></trkpt><trkpt lat="50.507937728015285" lon="3.8000039589626846"><ele>71.0</ele><time>2026-03-22T15:52:52.999Z</time></trkpt><trkpt lat="50.50809085934976" lon="3.799936089767436"><ele>72.0</ele><time>2026-03-22T15:52:53.999Z</time></trkpt><trkpt lat="50.508245803299495" lon="3.7998654481668224"><ele>73.0</ele><time>2026-03-22T15:52:54.999Z</time></trkpt><trkpt lat="50.508397869942776" lon="3.79979430918633"><ele>74.0</ele><time>2026-03-22T15:52:55.999Z</time></trkpt><trkpt lat="50.50854982843447" lon="3.7997207516960048"><ele>74.0</ele><time>2026-03-22T15:52:56.999Z</time></trkpt><trkpt lat="50.5087027717271" lon="3.799652630110196"><ele>74.0</ele><time>2026-03-22T15:52:57.999Z</time></trkpt><trkpt lat="50.508856023214115" lon="3.79958484484809"><ele>74.0</ele><time>2026-03-22T15:52:58.999Z</time></trkpt><trkpt lat="50.509010238182185" lon="3.79951424200766"><ele>73.66666666666667</ele><time>2026-03-22T15:52:59.999Z</time></trkpt><trkpt lat="50.509168880200654" lon="3.7994406551761717"><ele>73.33333333333333</ele><time>2026-03-22T15:53:00.999Z</time></trkpt><trkpt lat="50.50932603744779" lon="3.7993722115394193"><ele>73.0</ele><time>2026-03-22T15:53:01.999Z</time></trkpt><trkpt lat="50.50948468367239" lon="3.7993017407193452"><ele>71.33333333333333</ele><time>2026-03-22T15:53:02.999Z</time></trkpt><trkpt lat="50.50964849417131" lon="3.7992244871034475"><ele>69.66666666666667</ele><time>2026-03-22T15:53:03.999Z</time></trkpt><trkpt lat="50.50981397533132" lon="3.799146763246351"><ele>68.0</ele><time>2026-03-22T15:53:04.999Z</time></trkpt><trkpt lat="50.50998339130597" lon="3.7990681137206375"><ele>68.0</ele><time>2026-03-22T15:53:05.999Z</time></trkpt><trkpt lat="50.51015280444231" lon="3.7989925526816077"><ele>68.0</ele><time>2026-03-22T15:53:06.999Z</time></trkpt><trkpt lat="50.510323601628464" lon="3.79891777669195"><ele>68.0</ele><time>2026-03-22T15:53:07.999Z</time></trkpt><trkpt lat="50.51048483174819" lon="3.798847582224699"><ele>67.66666666666667</ele><time>2026-03-22T15:53:08.999Z</time></trkpt><trkpt lat="50.51065068287599" lon="3.798775564029803"><ele>67.33333333333333</ele><time>2026-03-22T15:53:09.999Z</time></trkpt><trkpt lat="50.51081587560378" lon="3.798699236689271"><ele>67.0</ele><time>2026-03-22T15:53:10.999Z</time></trkpt><trkpt lat="50.51097967643638" lon="3.7986219481079013"><ele>67.0</ele><time>2026-03-22T15:53:11.999Z</time></trkpt><trkpt lat="50.51114231285515" lon="3.798543009184395"><ele>67.0</ele><time>2026-03-22T15:53:12.999Z</time></trkpt><trkpt lat="50.511310039180266" lon="3.7984687128969794"><ele>67.0</ele><time>2026-03-22T15:53:13.999Z</time></trkpt><trkpt lat="50.511476113989765" lon="3.798402951451147"><ele>67.66666666666666</ele><time>2026-03-22T15:53:14.999Z</time></trkpt><trkpt lat="50.51164571453023" lon="3.7983274815505634"><ele>68.33333333333333</ele><time>2026-03-22T15:53:15.999Z</time></trkpt><trkpt lat="50.51181493553085" lon="3.7982474535280084"><ele>69.0</ele><time>2026-03-22T15:53:16.999Z</time></trkpt><trkpt lat="50.511984895766155" lon="3.798169024585227"><ele>69.0</ele><time>2026-03-22T15:53:17.999Z</time></trkpt><trkpt lat="50.512155188868874" lon="3.7980929381723345"><ele>69.0</ele><time>2026-03-22T15:53:18.999Z</time></trkpt><trkpt lat="50.51231994087891" lon="3.7980195043339187"><ele>69.0</ele><time>2026-03-22T15:53:19.999Z</time></trkpt><trkpt lat="50.51248547279618" lon="3.797945258328821"><ele>69.0</ele><time>2026-03-22T15:53:20.999Z</time></trkpt><trkpt lat="50.51263785450017" lon="3.7978804271362687"><ele>69.0</ele><time>2026-03-22T15:53:21.999Z</time></trkpt><trkpt lat="50.51278468974861" lon="3.797815553763721"><ele>69.0</ele><time>2026-03-22T15:53:22.999Z</time></trkpt><trkpt lat="50.51293641002623" lon="3.7977442084755446"><ele>70.0</ele><time>2026-03-22T15:53:23.999Z</time></trkpt><trkpt lat="50.51308618273168" lon="3.7976763741066106"><ele>71.0</ele><time>2026-03-22T15:53:24.999Z</time></trkpt><trkpt lat="50.51323764731003" lon="3.7976082500549393"><ele>72.0</ele><time>2026-03-22T15:53:25.999Z</time></trkpt><trkpt lat="50.51338657779662" lon="3.797542333982684"><ele>72.66666666666667</ele><time>2026-03-22T15:53:26.999Z</time></trkpt><trkpt lat="50.51354147728424" lon="3.797471993784741"><ele>73.33333333333334</ele><time>2026-03-22T15:53:27.999Z</time></trkpt><trkpt lat="50.513700398717766" lon="3.7974028699523754"><ele>74.0</ele><time>2026-03-22T15:53:28.999Z</time></trkpt><trkpt lat="50.513864354932835" lon="3.7973313881878634"><ele>74.33333333333334</ele><time>2026-03-22T15:53:29.999Z</time></trkpt><trkpt lat="50.5140286923473" lon="3.7972544810951216"><ele>74.66666666666667</ele><time>2026-03-22T15:53:30.999Z</time></trkpt><trkpt lat="50.514192011131406" lon="3.797179768981786"><ele>75.0</ele><time>2026-03-22T15:53:31.999Z</time></trkpt><trkpt lat="50.51435857945204" lon="3.797100734212999"><ele>75.0</ele><time>2026-03-22T15:53:32.999Z</time></trkpt><trkpt lat="50.51452138315543" lon="3.7970240793078553"><ele>75.0</ele><time>2026-03-22T15:53:33.999Z</time></trkpt><trkpt lat="50.51468383787167" lon="3.796949646844655"><ele>75.0</ele><time>2026-03-22T15:53:34.999Z</time></trkpt><trkpt lat="50.51484824713741" lon="3.7968750669613875"><ele>77.33333333333333</ele><time>2026-03-22T15:53:35.999Z</time></trkpt><trkpt lat="50.51502023244161" lon="3.7968073006754217"><ele>79.66666666666666</ele><time>2026-03-22T15:53:36.999Z</time></trkpt><trkpt lat="50.51519750966666" lon="3.79673153888645"><ele>82.0</ele><time>2026-03-22T15:53:37.999Z</time></trkpt><trkpt lat="50.51537590749891" lon="3.7966427075322815"><ele>82.0</ele><time>2026-03-22T15:53:38.999Z</time></trkpt><trkpt lat="50.515557125843394" lon="3.7965645268091626"><ele>82.0</ele><time>2026-03-22T15:53:39.999Z</time></trkpt><trkpt lat="50.5244068790032" lon="3.7917700688634968"><ele>81.0</ele><time>2026-03-22T15:54:41Z</time></trkpt><trkpt lat="50.524519856068885" lon="3.7917414269493435"><ele>80.0</ele><time>2026-03-22T15:54:42Z</time></trkpt><trkpt lat="50.52463379528412" lon="3.7917251103529366"><ele>79.0</ele><time>2026-03-22T15:54:43Z</time></trkpt><trkpt lat="50.524743877155345" lon="3.7917311457065153"><ele>78.0</ele><time>2026-03-22T15:54:44Z</time></trkpt><trkpt lat="50.524853086055366" lon="3.791750490049938"><ele>77.0</ele><time>2026-03-22T15:54:45Z</time></trkpt><trkpt lat="50.52496665284904" lon="3.7917791678603683"><ele>76.75</ele><time>2026-03-22T15:54:46Z</time></trkpt><trkpt lat="50.52508377487008" lon="3.79182512550644"><ele>76.5</ele><time>2026-03-22T15:54:47Z</time></trkpt><trkpt lat="50.52520694578029" lon="3.7918820464856124"><ele>76.25</ele><time>2026-03-22T15:54:48Z</time></trkpt><trkpt lat="50.52533389995938" lon="3.7919436998792793"><ele>76.0</ele><time>2026-03-22T15:54:49Z</time></trkpt><trkpt lat="50.525458974440255" lon="3.792011332658809"><ele>76.0</ele><time>2026-03-22T15:54:50Z</time></trkpt><trkpt lat="50.52558073393768" lon="3.7920767612018116"><ele>76.0</ele><time>2026-03-22T15:54:51Z</time></trkpt><trkpt lat="50.52570174623338" lon="3.792138371039351"><ele>76.0</ele><time>2026-03-22T15:54:52Z</time></trkpt><trkpt lat="50.525822002714456" lon="3.792199023183613"><ele>76.0</ele><time>2026-03-22T15:54:53Z</time></trkpt><trkpt lat="50.525941863712674" lon="3.792257228274322"><ele>76.0</ele><time>2026-03-22T15:54:54Z</time></trkpt><trkpt lat="50.52606145650238" lon="3.7923153133584004"><ele>76.0</ele><time>2026-03-22T15:54:55Z</time></trkpt><trkpt lat="50.52617873094135" lon="3.7923805110276154"><ele>76.0</ele><time>2026-03-22T15:54:56Z</time></trkpt><trkpt lat="50.52629329022925" lon="3.79244151359144"><ele>76.0</ele><time>2026-03-22T15:54:57Z</time></trkpt><trkpt lat="50.52640794299588" lon="3.79249910005036"><ele>75.5</ele><time>2026-03-22T15:54:58Z</time></trkpt><trkpt lat="50.526525659641024" lon="3.792556287786515"><ele>75.0</ele><time>2026-03-22T15:54:59Z</time></trkpt><trkpt lat="50.526642726817244" lon="3.792615744658381"><ele>74.5</ele><time>2026-03-22T15:55:00Z</time></trkpt><trkpt lat="50.52676191574347" lon="3.7926763130490566"><ele>74.0</ele><time>2026-03-22T15:55:01Z</time></trkpt><trkpt lat="50.526880164309695" lon="3.7927423647046243"><ele>74.0</ele><time>2026-03-22T15:55:02Z</time></trkpt><trkpt lat="50.52699921907448" lon="3.7928048062859556"><ele>74.0</ele><time>2026-03-22T15:55:03Z</time></trkpt><trkpt lat="50.527118190527226" lon="3.7928656664584195"><ele>74.0</ele><time>2026-03-22T15:55:04Z</time></trkpt><trkpt lat="50.527237451149354" lon="3.792928091154678"><ele>74.0</ele><time>2026-03-22T15:55:05Z</time></trkpt><trkpt lat="50.52735692582016" lon="3.7929828943560158"><ele>73.75</ele><time>2026-03-22T15:55:05.999Z</time></trkpt><trkpt lat="50.52747861359906" lon="3.7930303279621"><ele>73.5</ele><time>2026-03-22T15:55:06.999Z</time></trkpt><trkpt lat="50.52760046264552" lon="3.793077511810352"><ele>73.25</ele><time>2026-03-22T15:55:07.999Z</time></trkpt><trkpt lat="50.52772379541231" lon="3.793124252748453"><ele>73.0</ele><time>2026-03-22T15:55:08.999Z</time></trkpt><trkpt lat="50.527847166046996" lon="3.79316243225642"><ele>73.0</ele><time>2026-03-22T15:55:09.999Z</time></trkpt><trkpt lat="50.52797110329805" lon="3.7931965994498236"><ele>73.0</ele><time>2026-03-22T15:55:10.999Z</time></trkpt><trkpt lat="50.52809047229446" lon="3.793231570867101"><ele>73.0</ele><time>2026-03-22T15:55:11.999Z</time></trkpt><trkpt lat="50.52820481683843" lon="3.793273670065631"><ele>73.0</ele><time>2026-03-22T15:55:12.999Z</time></trkpt><trkpt lat="50.52832163128168" lon="3.7933194744960717"><ele>73.0</ele><time>2026-03-22T15:55:13.999Z</time></trkpt><trkpt lat="50.52844086277031" lon="3.7933621668385467"><ele>73.0</ele><time>2026-03-22T15:55:14.999Z</time></trkpt><trkpt lat="50.52855756103079" lon="3.7934085595738503"><ele>73.0</ele><time>2026-03-22T15:55:15.999Z</time></trkpt><trkpt lat="50.528674155526254" lon="3.793460105980857"><ele>73.0</ele><time>2026-03-22T15:55:16.999Z</time></trkpt><trkpt lat="50.52879164854573" lon="3.7935133644676573"><ele>73.0</ele><time>2026-03-22T15:55:17.999Z</time></trkpt><trkpt lat="50.52890716106554" lon="3.79356153429326"><ele>73.0</ele><time>2026-03-22T15:55:18.999Z</time></trkpt><trkpt lat="50.529019221527655" lon="3.793605397126424"><ele>73.0</ele><time>2026-03-22T15:55:19.999Z</time></trkpt><trkpt lat="50.52912537042515" lon="3.7936470754557137"><ele>73.0</ele><time>2026-03-22T15:55:20.999Z</time></trkpt><trkpt lat="50.529234007380865" lon="3.793681088873152"><ele>73.0</ele><time>2026-03-22T15:55:21.999Z</time></trkpt><trkpt lat="50.52933496069639" lon="3.7937383016196953"><ele>73.0</ele><time>2026-03-22T15:55:22.999Z</time></trkpt><trkpt lat="50.52942013166345" lon="3.7937707013210535"><ele>73.0</ele><time>2026-03-22T15:55:23.999Z</time></trkpt><trkpt lat="50.52949534463895" lon="3.793802695281385"><ele>73.0</ele><time>2026-03-22T15:55:24.999Z</time></trkpt><trkpt lat="50.52956636788095" lon="3.793836813184193"><ele>73.0</ele><time>2026-03-22T15:55:25.999Z</time></trkpt><trkpt lat="50.529652565050014" lon="3.793871179672885"><ele>73.0</ele><time>2026-03-22T15:55:26.999Z</time></trkpt><trkpt lat="50.52975788860912" lon="3.7939109094332752"><ele>72.5</ele><time>2026-03-22T15:55:27.999Z</time></trkpt><trkpt lat="50.52988154435625" lon="3.7939569379057887"><ele>72.0</ele><time>2026-03-22T15:55:28.999Z</time></trkpt><trkpt lat="50.53002067751604" lon="3.794009746511709"><ele>71.5</ele><time>2026-03-22T15:55:29.999Z</time></trkpt><trkpt lat="50.53016935294585" lon="3.7940698824084302"><ele>71.0</ele><time>2026-03-22T15:55:30.999Z</time></trkpt><trkpt lat="50.53032778646952" lon="3.794128998529344"><ele>71.0</ele><time>2026-03-22T15:55:31.999Z</time></trkpt><trkpt lat="50.530492562872425" lon="3.7941914937265824"><ele>71.0</ele><time>2026-03-22T15:55:32.998Z</time></trkpt><trkpt lat="50.53065744227062" lon="3.7942553698996253"><ele>71.0</ele><time>2026-03-22T15:55:33.998Z</time></trkpt><trkpt lat="50.53082626188224" lon="3.7943251311593453"><ele>71.33333333333334</ele><time>2026-03-22T15:55:34.998Z</time></trkpt><trkpt lat="50.53100114328516" lon="3.794398260113154"><ele>71.66666666666667</ele><time>2026-03-22T15:55:35.998Z</time></trkpt><trkpt lat="50.53117017262502" lon="3.7944666335036956"><ele>72.0</ele><time>2026-03-22T15:55:36.998Z</time></trkpt><trkpt lat="50.53133116078167" lon="3.794520491174432"><ele>71.33333333333333</ele><time>2026-03-22T15:55:37.998Z</time></trkpt><trkpt lat="50.53148929729346" lon="3.794581890950813"><ele>70.66666666666666</ele><time>2026-03-22T15:55:38.998Z</time></trkpt><trkpt lat="50.53164706663792" lon="3.794627410744923"><ele>70.0</ele><time>2026-03-22T15:55:39.998Z</time></trkpt><trkpt lat="50.54102609444491" lon="3.799272188232669"><ele>69.33333333333333</ele><time>2026-03-22T15:56:40.999Z</time></trkpt><trkpt lat="50.54116856213278" lon="3.799398625616646"><ele>68.66666666666667</ele><time>2026-03-22T15:56:41.999Z</time></trkpt><trkpt lat="50.54130899218966" lon="3.799514591185264"><ele>68.0</ele><time>2026-03-22T15:56:42.999Z</time></trkpt><trkpt lat="50.54145156565162" lon="3.7996377842331945"><ele>67.33333333333334</ele><time>2026-03-22T15:56:43.999Z</time></trkpt><trkpt lat="50.5415941358252" lon="3.7997616270984333"><ele>66.66666666666667</ele><time>2026-03-22T15:56:44.999Z</time></trkpt><trkpt lat="50.541740151644596" lon="3.799882582032274"><ele>66.0</ele><time>2026-03-22T15:56:45.999Z</time></trkpt><trkpt lat="50.5418856923923" lon="3.8000090686734964"><ele>66.0</ele><time>2026-03-22T15:56:46.999Z</time></trkpt><trkpt lat="50.54203248972778" lon="3.8001353177803097"><ele>66.0</ele><time>2026-03-22T15:56:47.999Z</time></trkpt><trkpt lat="50.54217607833323" lon="3.8002602322338905"><ele>66.0</ele><time>2026-03-22T15:56:48.999Z</time></trkpt><trkpt lat="50.542318547176414" lon="3.8003856861045415"><ele>66.66666666666667</ele><time>2026-03-22T15:56:49.999Z</time></trkpt><trkpt lat="50.5424650598777" lon="3.8005079301664955"><ele>67.33333333333334</ele><time>2026-03-22T15:56:50.999Z</time></trkpt><trkpt lat="50.5426093831611" lon="3.8006347577374124"><ele>68.0</ele><time>2026-03-22T15:56:51.999Z</time></trkpt><trkpt lat="50.542751542963416" lon="3.8007617317296796"><ele>68.0</ele><time>2026-03-22T15:56:52.999Z</time></trkpt><trkpt lat="50.54289558457174" lon="3.8008816607999703"><ele>68.0</ele><time>2026-03-22T15:56:53.999Z</time></trkpt><trkpt lat="50.54304482895047" lon="3.800999750106861"><ele>68.0</ele><time>2026-03-22T15:56:54.999Z</time></trkpt><trkpt lat="50.543196494541995" lon="3.801108890323952"><ele>68.0</ele><time>2026-03-22T15:56:55.999Z</time></trkpt><trkpt lat="50.54335218713058" lon="3.8012040797128885"><ele>68.0</ele><time>2026-03-22T15:56:56.999Z</time></trkpt><trkpt lat="50.543515418448536" lon="3.8012695506138177"><ele>68.0</ele><time>2026-03-22T15:56:57.999Z</time></trkpt><trkpt lat="50.54368035031716" lon="3.8013192960499884"><ele>68.33333333333334</ele><time>2026-03-22T15:56:58.999Z</time></trkpt><trkpt lat="50.543848074501916" lon="3.801334432999221"><ele>68.66666666666667</ele><time>2026-03-22T15:56:59.999Z</time></trkpt><trkpt lat="50.54401409964456" lon="3.8013230400828215"><ele>69.0</ele><time>2026-03-22T15:57:00.999Z</time></trkpt><trkpt lat="50.544184398500235" lon="3.8012962173926765"><ele>69.0</ele><time>2026-03-22T15:57:01.999Z</time></trkpt><trkpt lat="50.54435450802102" lon="3.8012791904917447"><ele>69.0</ele><time>2026-03-22T15:57:02.999Z</time></trkpt><trkpt lat="50.544526591445454" lon="3.8012692960351613"><ele>69.0</ele><time>2026-03-22T15:57:03.999Z</time></trkpt><trkpt lat="50.54469977775784" lon="3.8012588823380833"><ele>69.0</ele><time>2026-03-22T15:57:04.999Z</time></trkpt><trkpt lat="50.544868941781104" lon="3.8012449948644003"><ele>69.0</ele><time>2026-03-22T15:57:05.999Z</time></trkpt><trkpt lat="50.545034823492834" lon="3.8012309959410917"><ele>69.0</ele><time>2026-03-22T15:57:06.999Z</time></trkpt><trkpt lat="50.5451978093115" lon="3.8012162943906906"><ele>69.0</ele><time>2026-03-22T15:57:07.999Z</time></trkpt><trkpt lat="50.545357378697176" lon="3.8011998547287167"><ele>69.0</ele><time>2026-03-22T15:57:08.999Z</time></trkpt><trkpt lat="50.545515116683916" lon="3.8011933007366547"><ele>69.0</ele><time>2026-03-22T15:57:09.999Z</time></trkpt><trkpt lat="50.54566870132006" lon="3.8012162802982403"><ele>68.66666666666667</ele><time>2026-03-22T15:57:10.999Z</time></trkpt><trkpt lat="50.545817402009675" lon="3.8012899250859333"><ele>68.33333333333334</ele><time>2026-03-22T15:57:11.999Z</time></trkpt><trkpt lat="50.545962740584535" lon="3.801389795760044"><ele>68.0</ele><time>2026-03-22T15:57:12.999Z</time></trkpt><trkpt lat="50.546110023336766" lon="3.8014924946710376"><ele>68.0</ele><time>2026-03-22T15:57:13.998Z</time></trkpt><trkpt lat="50.54626167261197" lon="3.801591460062064"><ele>68.0</ele><time>2026-03-22T15:57:14.998Z</time></trkpt><trkpt lat="50.54641387088052" lon="3.801697553006089"><ele>68.0</ele><time>2026-03-22T15:57:15.998Z</time></trkpt><trkpt lat="50.54656914570208" lon="3.801802056488505"><ele>67.66666666666667</ele><time>2026-03-22T15:57:16.998Z</time></trkpt><trkpt lat="50.546724948277976" lon="3.8019045334213915"><ele>67.33333333333333</ele><time>2026-03-22T15:57:17.998Z</time></trkpt><trkpt lat="50.54688045347019" lon="3.8020108945928164"><ele>67.0</ele><time>2026-03-22T15:57:18.998Z</time></trkpt><trkpt lat="50.54703284054463" lon="3.8021125011191725"><ele>67.33333333333333</ele><time>2026-03-22T15:57:19.998Z</time></trkpt><trkpt lat="50.547188974512984" lon="3.8021806785030923"><ele>67.66666666666667</ele><time>2026-03-22T15:57:20.998Z</time></trkpt><trkpt lat="50.54735246615367" lon="3.802224185792762"><ele>68.0</ele><time>2026-03-22T15:57:21.998Z</time></trkpt><trkpt lat="50.547512574820814" lon="3.8022348517930147"><ele>68.0</ele><time>2026-03-22T15:57:22.998Z</time></trkpt><trkpt lat="50.54768007837885" lon="3.8022516669613773"><ele>68.0</ele><time>2026-03-22T15:57:23.998Z</time></trkpt><trkpt lat="50.54784433278484" lon="3.8022729692759323"><ele>68.0</ele><time>2026-03-22T15:57:24.998Z</time></trkpt><trkpt lat="50.54800700196211" lon="3.802303273213785"><ele>68.33333333333334</ele><time>2026-03-22T15:57:25.998Z</time></trkpt><trkpt lat="50.54816799109632" lon="3.802352822068825"><ele>68.66666666666667</ele><time>2026-03-22T15:57:26.998Z</time></trkpt><trkpt lat="50.548330813757836" lon="3.8024225555929463"><ele>69.0</ele><time>2026-03-22T15:57:27.998Z</time></trkpt><trkpt lat="50.54849070627907" lon="3.802500058323591"><ele>69.0</ele><time>2026-03-22T15:57:28.998Z</time></trkpt><trkpt lat="50.54865091102232" lon="3.80258373950959"><ele>69.0</ele><time>2026-03-22T15:57:29.998Z</time></trkpt><trkpt lat="50.548812289334606" lon="3.8026705746179195"><ele>69.0</ele><time>2026-03-22T15:57:30.998Z</time></trkpt><trkpt lat="50.54897781322393" lon="3.802752071908789"><ele>69.0</ele><time>2026-03-22T15:57:31.998Z</time></trkpt><trkpt lat="50.54914612926749" lon="3.8028280987301275"><ele>69.0</ele><time>2026-03-22T15:57:32.998Z</time></trkpt><trkpt lat="50.54931341346394" lon="3.8029071973269035"><ele>69.0</ele><time>2026-03-22T15:57:33.998Z</time></trkpt><trkpt lat="50.549480289410525" lon="3.802987399850072"><ele>69.0</ele><time>2026-03-22T15:57:34.998Z</time></trkpt><trkpt lat="50.54964225758997" lon="3.803065823044302"><ele>69.0</ele><time>2026-03-22T15:57:35.998Z</time></trkpt><trkpt lat="50.54979958208486" lon="3.803139219783092"><ele>69.0</ele><time>2026-03-22T15:57:36.998Z</time></trkpt><trkpt lat="50.54995243024892" lon="3.8032130240117494"><ele>69.0</ele><time>2026-03-22T15:57:37.998Z</time></trkpt><trkpt lat="50.55010915108871" lon="3.803285635362337"><ele>69.0</ele><time>2026-03-22T15:57:38.998Z</time></trkpt><trkpt lat="50.550262943161755" lon="3.803360631979517"><ele>69.0</ele><time>2026-03-22T15:57:39.998Z</time></trkpt><trkpt lat="50.55887097637458" lon="3.806246589600068"><ele>67.66666666666667</ele><time>2026-03-22T15:58:40.999Z</time></trkpt><trkpt lat="50.55904402478014" lon="3.8062479707601815"><ele>66.33333333333334</ele><time>2026-03-22T15:58:41.999Z</time></trkpt><trkpt lat="50.55921679709626" lon="3.806247988538174"><ele>65.0</ele><time>2026-03-22T15:58:42.999Z</time></trkpt><trkpt lat="50.55938988038556" lon="3.8062480340015274"><ele>65.33333333333334</ele><time>2026-03-22T15:58:43.999Z</time></trkpt><trkpt lat="50.55956429730147" lon="3.8062486203740957"><ele>65.66666666666667</ele><time>2026-03-22T15:58:44.999Z</time></trkpt><trkpt lat="50.55973955006256" lon="3.806248000573529"><ele>66.0</ele><time>2026-03-22T15:58:45.999Z</time></trkpt><trkpt lat="50.55991368934244" lon="3.806249821128197"><ele>66.0</ele><time>2026-03-22T15:58:46.999Z</time></trkpt><trkpt lat="50.56009047268564" lon="3.8062430895351724"><ele>66.0</ele><time>2026-03-22T15:58:47.999Z</time></trkpt><trkpt lat="50.56026816151536" lon="3.8062347206685656"><ele>66.0</ele><time>2026-03-22T15:58:48.999Z</time></trkpt><trkpt lat="50.56044615256224" lon="3.8062334912356803"><ele>66.0</ele><time>2026-03-22T15:58:49.999Z</time></trkpt><trkpt lat="50.5606252536945" lon="3.8062348250271727"><ele>66.0</ele><time>2026-03-22T15:58:50.999Z</time></trkpt><trkpt lat="50.560799589689815" lon="3.806235237348365"><ele>66.0</ele><time>2026-03-22T15:58:51.999Z</time></trkpt><trkpt lat="50.56097377632106" lon="3.8062352641171686"><ele>66.0</ele><time>2026-03-22T15:58:52.999Z</time></trkpt><trkpt lat="50.56114863574402" lon="3.8062337861115143"><ele>66.0</ele><time>2026-03-22T15:58:53.999Z</time></trkpt><trkpt lat="50.56132394145463" lon="3.8062312403307152"><ele>66.0</ele><time>2026-03-22T15:58:54.999Z</time></trkpt><trkpt lat="50.561495635758774" lon="3.80622916458032"><ele>66.0</ele><time>2026-03-22T15:58:55.999Z</time></trkpt><trkpt lat="50.561667841840695" lon="3.806228130248512"><ele>66.0</ele><time>2026-03-22T15:58:56.999Z</time></trkpt><trkpt lat="50.56183824522328" lon="3.8062301551690263"><ele>66.0</ele><time>2026-03-22T15:58:57.999Z</time></trkpt><trkpt lat="50.56200417256608" lon="3.8062264787827274"><ele>66.33333333333333</ele><time>2026-03-22T15:58:58.999Z</time></trkpt><trkpt lat="50.56215739084723" lon="3.80622545959681"><ele>66.66666666666666</ele><time>2026-03-22T15:58:59.999Z</time></trkpt><trkpt lat="50.562310441766684" lon="3.8062166770861956"><ele>67.0</ele><time>2026-03-22T15:59:00.999Z</time></trkpt><trkpt lat="50.562460956433426" lon="3.806216816857025"><ele>67.0</ele><time>2026-03-22T15:59:01.999Z</time></trkpt><trkpt lat="50.562610737819554" lon="3.8062158291401564"><ele>67.0</ele><time>2026-03-22T15:59:02.999Z</time></trkpt><trkpt lat="50.5627629508972" lon="3.806215598079637"><ele>67.0</ele><time>2026-03-22T15:59:03.999Z</time></trkpt><trkpt lat="50.56290479861983" lon="3.8062088291187637"><ele>67.0</ele><time>2026-03-22T15:59:04.999Z</time></trkpt><trkpt lat="50.56306251642362" lon="3.8062189322842457"><ele>66.66666666666666</ele><time>2026-03-22T15:59:05.999Z</time></trkpt><trkpt lat="50.56321539791132" lon="3.806212527335572"><ele>66.33333333333333</ele><time>2026-03-22T15:59:06.999Z</time></trkpt><trkpt lat="50.56336536977568" lon="3.806209559367629"><ele>66.0</ele><time>2026-03-22T15:59:07.999Z</time></trkpt><trkpt lat="50.56351372143258" lon="3.806208396552428"><ele>66.0</ele><time>2026-03-22T15:59:08.999Z</time></trkpt><trkpt lat="50.563665202386304" lon="3.806214992037975"><ele>66.0</ele><time>2026-03-22T15:59:09.999Z</time></trkpt><trkpt lat="50.56382256130274" lon="3.8062070123500864"><ele>66.0</ele><time>2026-03-22T15:59:10.999Z</time></trkpt><trkpt lat="50.563980721868546" lon="3.8062065705117787"><ele>64.33333333333333</ele><time>2026-03-22T15:59:11.999Z</time></trkpt><trkpt lat="50.56414006114571" lon="3.806203120598918"><ele>62.666666666666664</ele><time>2026-03-22T15:59:12.999Z</time></trkpt><trkpt lat="50.5643016510926" lon="3.8062011759342385"><ele>61.0</ele><time>2026-03-22T15:59:13.999Z</time></trkpt><trkpt lat="50.564463002845926" lon="3.80619932709532"><ele>60.666666666666664</ele><time>2026-03-22T15:59:14.999Z</time></trkpt><trkpt lat="50.56462569561794" lon="3.8061973897336845"><ele>60.33333333333333</ele><time>2026-03-22T15:59:15.999Z</time></trkpt><trkpt lat="50.56478888222037" lon="3.806194784732444"><ele>60.0</ele><time>2026-03-22T15:59:16.999Z</time></trkpt><trkpt lat="50.56495003259343" lon="3.8061968379785145"><ele>60.0</ele><time>2026-03-22T15:59:17.999Z</time></trkpt><trkpt lat="50.56511272764549" lon="3.806198012545503"><ele>60.0</ele><time>2026-03-22T15:59:18.999Z</time></trkpt><trkpt lat="50.56527705639965" lon="3.8061938207532524"><ele>60.0</ele><time>2026-03-22T15:59:19.999Z</time></trkpt><trkpt lat="50.5654414563056" lon="3.8061936172760977"><ele>59.66666666666667</ele><time>2026-03-22T15:59:20.999Z</time></trkpt><trkpt lat="50.56560440042169" lon="3.8061928618221645"><ele>59.333333333333336</ele><time>2026-03-22T15:59:21.999Z</time></trkpt><trkpt lat="50.56577034093238" lon="3.806195714311778"><ele>59.0</ele><time>2026-03-22T15:59:22.999Z</time></trkpt><trkpt lat="50.56593283157605" lon="3.8061982932634097"><ele>59.0</ele><time>2026-03-22T15:59:23.999Z</time></trkpt><trkpt lat="50.566097100075545" lon="3.8061943163123355"><ele>59.0</ele><time>2026-03-22T15:59:24.999Z</time></trkpt><trkpt lat="50.56626339185652" lon="3.8061909047652396"><ele>59.0</ele><time>2026-03-22T15:59:25.999Z</time></trkpt><trkpt lat="50.56642853698996" lon="3.8061881909544164"><ele>58.333333333333336</ele><time>2026-03-22T15:59:26.999Z</time></trkpt><trkpt lat="50.56659492545031" lon="3.8061869633608083"><ele>57.66666666666667</ele><time>2026-03-22T15:59:27.999Z</time></trkpt><trkpt lat="50.566761219114504" lon="3.8061852155619973"><ele>57.0</ele><time>2026-03-22T15:59:28.999Z</time></trkpt><trkpt lat="50.56692891012374" lon="3.8061842936815626"><ele>56.66666666666667</ele><time>2026-03-22T15:59:29.998Z</time></trkpt><trkpt lat="50.56709838113251" lon="3.8061833866873362"><ele>56.333333333333336</ele><time>2026-03-22T15:59:30.998Z</time></trkpt><trkpt lat="50.567271447314695" lon="3.8061854927442775"><ele>56.0</ele><time>2026-03-22T15:59:31.998Z</time></trkpt><trkpt lat="50.567445299811936" lon="3.8061849886460513"><ele>56.0</ele><time>2026-03-22T15:59:32.998Z</time></trkpt><trkpt lat="50.567622021709624" lon="3.8061822425607903"><ele>56.0</ele><time>2026-03-22T15:59:33.998Z</time></trkpt><trkpt lat="50.567795502660545" lon="3.8061763019593333"><ele>56.0</ele><time>2026-03-22T15:59:34.998Z</time></trkpt><trkpt lat="50.56796452214624" lon="3.806173228140809"><ele>56.0</ele><time>2026-03-22T15:59:35.998Z</time></trkpt><trkpt lat="50.568143640452824" lon="3.8061722412060437"><ele>56.0</ele><time>2026-03-22T15:59:36.998Z</time></trkpt><trkpt lat="50.568315435960876" lon="3.8061752624891363"><ele>56.0</ele><time>2026-03-22T15:59:37.998Z</time></trkpt><trkpt lat="50.568492651237584" lon="3.8061737720652755"><ele>56.0</ele><time>2026-03-22T15:59:38.998Z</time></trkpt><trkpt lat="50.56866884424475" lon="3.806171485960301"><ele>56.0</ele><time>2026-03-22T15:59:39.998Z</time></trkpt><trkpt lat="50.579409460301086" lon="3.806092834503466"><ele>55.0</ele><time>2026-03-22T16:00:40.999Z</time></trkpt><trkpt lat="50.5795479011674" lon="3.8060915145943888"><ele>54.0</ele><time>2026-03-22T16:00:41.999Z</time></trkpt><trkpt lat="50.57968134786144" lon="3.8060961104229096"><ele>53.0</ele><time>2026-03-22T16:00:42.999Z</time></trkpt><trkpt lat="50.5798064058292" lon="3.8060912776182407"><ele>52.0</ele><time>2026-03-22T16:00:43.999Z</time></trkpt><trkpt lat="50.579921238842374" lon="3.806083010260673"><ele>52.0</ele><time>2026-03-22T16:00:44.999Z</time></trkpt><trkpt lat="50.58003284189089" lon="3.8060856902960296"><ele>52.0</ele><time>2026-03-22T16:00:45.999Z</time></trkpt><trkpt lat="50.58014790497954" lon="3.806084070618897"><ele>52.0</ele><time>2026-03-22T16:00:46.999Z</time></trkpt><trkpt lat="50.58026639917554" lon="3.8060845240608177"><ele>52.0</ele><time>2026-03-22T16:00:47.999Z</time></trkpt><trkpt lat="50.58038751639536" lon="3.806084676122184"><ele>51.75</ele><time>2026-03-22T16:00:48.999Z</time></trkpt><trkpt lat="50.58050884804474" lon="3.8060883449063483"><ele>51.5</ele><time>2026-03-22T16:00:49.999Z</time></trkpt><trkpt lat="50.580633900826186" lon="3.806090341731745"><ele>51.25</ele><time>2026-03-22T16:00:50.999Z</time></trkpt><trkpt lat="50.580754918227406" lon="3.8060876453007975"><ele>51.0</ele><time>2026-03-22T16:00:51.999Z</time></trkpt><trkpt lat="50.580872726956876" lon="3.806084163175011"><ele>51.0</ele><time>2026-03-22T16:00:52.999Z</time></trkpt><trkpt lat="50.580984598489515" lon="3.806083229278295"><ele>51.0</ele><time>2026-03-22T16:00:53.999Z</time></trkpt><trkpt lat="50.58108727556613" lon="3.806082709318941"><ele>51.0</ele><time>2026-03-22T16:00:54.999Z</time></trkpt><trkpt lat="50.58118764723575" lon="3.8060842352124578"><ele>51.0</ele><time>2026-03-22T16:00:55.999Z</time></trkpt><trkpt lat="50.58129227601985" lon="3.806083073056885"><ele>51.0</ele><time>2026-03-22T16:00:56.999Z</time></trkpt><trkpt lat="50.581397491337356" lon="3.8060834425057033"><ele>51.199999999999996</ele><time>2026-03-22T16:00:57.999Z</time></trkpt><trkpt lat="50.58150564513714" lon="3.8060827470117657"><ele>51.4</ele><time>2026-03-22T16:00:58.999Z</time></trkpt><trkpt lat="50.58161394932648" lon="3.806079772676389"><ele>51.6</ele><time>2026-03-22T16:00:59.999Z</time></trkpt><trkpt lat="50.58172158883406" lon="3.8061116570987354"><ele>51.8</ele><time>2026-03-22T16:01:00.999Z</time></trkpt><trkpt lat="50.58183092898396" lon="3.806071332604968"><ele>52.0</ele><time>2026-03-22T16:01:01.999Z</time></trkpt><trkpt lat="50.58194341656104" lon="3.806048793858023"><ele>52.25</ele><time>2026-03-22T16:01:02.999Z</time></trkpt><trkpt lat="50.58205721742247" lon="3.8060763403174973"><ele>52.5</ele><time>2026-03-22T16:01:03.999Z</time></trkpt><trkpt lat="50.58217567133309" lon="3.8060705383602476"><ele>52.75</ele><time>2026-03-22T16:01:04.999Z</time></trkpt><trkpt lat="50.58229438410541" lon="3.806072643191006"><ele>53.0</ele><time>2026-03-22T16:01:05.999Z</time></trkpt><trkpt lat="50.58240619397104" lon="3.806071143852038"><ele>53.0</ele><time>2026-03-22T16:01:06.999Z</time></trkpt><trkpt lat="50.582526406702044" lon="3.806070380003578"><ele>53.0</ele><time>2026-03-22T16:01:07.999Z</time></trkpt><trkpt lat="50.582646484753184" lon="3.8060717031796787"><ele>53.0</ele><time>2026-03-22T16:01:08.999Z</time></trkpt><trkpt lat="50.58276618149664" lon="3.8060694657400633"><ele>53.0</ele><time>2026-03-22T16:01:09.999Z</time></trkpt><trkpt lat="50.58288596763954" lon="3.806064782974136"><ele>52.75</ele><time>2026-03-22T16:01:10.999Z</time></trkpt><trkpt lat="50.58300803536615" lon="3.806062713960124"><ele>52.5</ele><time>2026-03-22T16:01:11.999Z</time></trkpt><trkpt lat="50.583126849828574" lon="3.806061589210734"><ele>52.25</ele><time>2026-03-22T16:01:12.999Z</time></trkpt><trkpt lat="50.58324415289525" lon="3.806060558776784"><ele>52.0</ele><time>2026-03-22T16:01:13.999Z</time></trkpt><trkpt lat="50.58336397826844" lon="3.806060080074487"><ele>52.0</ele><time>2026-03-22T16:01:14.999Z</time></trkpt><trkpt lat="50.58348611967827" lon="3.80605879112041"><ele>52.0</ele><time>2026-03-22T16:01:15.999Z</time></trkpt><trkpt lat="50.58360768214324" lon="3.8060588725429825"><ele>52.0</ele><time>2026-03-22T16:01:16.999Z</time></trkpt><trkpt lat="50.58372634381406" lon="3.8060568573238114"><ele>52.0</ele><time>2026-03-22T16:01:17.999Z</time></trkpt><trkpt lat="50.58384137649853" lon="3.806055512030965"><ele>52.0</ele><time>2026-03-22T16:01:18.999Z</time></trkpt><trkpt lat="50.58395409895635" lon="3.806049858642942"><ele>52.0</ele><time>2026-03-22T16:01:19.999Z</time></trkpt><trkpt lat="50.58406421691123" lon="3.8060556313527782"><ele>52.0</ele><time>2026-03-22T16:01:20.999Z</time></trkpt><trkpt lat="50.58417246423701" lon="3.806052671606521"><ele>52.0</ele><time>2026-03-22T16:01:21.999Z</time></trkpt><trkpt lat="50.584275783812544" lon="3.8060493044800614"><ele>52.0</ele><time>2026-03-22T16:01:22.999Z</time></trkpt><trkpt lat="50.58438485273774" lon="3.806048585049788"><ele>52.0</ele><time>2026-03-22T16:01:23.999Z</time></trkpt><trkpt lat="50.58450000612763" lon="3.8060489551501315"><ele>52.0</ele><time>2026-03-22T16:01:24.999Z</time></trkpt><trkpt lat="50.58461858937814" lon="3.8060459657958896"><ele>52.0</ele><time>2026-03-22T16:01:25.999Z</time></trkpt><trkpt lat="50.58472801583819" lon="3.8060445945220565"><ele>52.0</ele><time>2026-03-22T16:01:26.999Z</time></trkpt><trkpt lat="50.58483453103444" lon="3.80604362470062"><ele>52.0</ele><time>2026-03-22T16:01:27.999Z</time></trkpt><trkpt lat="50.58493917476887" lon="3.8060465943880475"><ele>52.0</ele><time>2026-03-22T16:01:28.999Z</time></trkpt><trkpt lat="50.58504336259472" lon="3.806040346257211"><ele>52.0</ele><time>2026-03-22T16:01:29.998Z</time></trkpt><trkpt lat="50.58514363461494" lon="3.8060373732105024"><ele>52.0</ele><time>2026-03-22T16:01:30.998Z</time></trkpt><trkpt lat="50.58524639561324" lon="3.8060357534072007"><ele>52.0</ele><time>2026-03-22T16:01:31.998Z</time></trkpt><trkpt lat="50.5853377088" lon="3.8060288960787743"><ele>52.0</ele><time>2026-03-22T16:01:32.998Z</time></trkpt><trkpt lat="50.58543766761532" lon="3.8060319172727057"><ele>52.0</ele><time>2026-03-22T16:01:33.998Z</time></trkpt><trkpt lat="50.58554847241157" lon="3.8060375463911376"><ele>52.0</ele><time>2026-03-22T16:01:34.998Z</time></trkpt><trkpt lat="50.585657494825256" lon="3.806051611479659"><ele>52.0</ele><time>2026-03-22T16:01:35.998Z</time></trkpt><trkpt lat="50.5857553999538" lon="3.8060747494959477"><ele>52.0</ele><time>2026-03-22T16:01:36.998Z</time></trkpt><trkpt lat="50.585838712379896" lon="3.806097949445404"><ele>52.0</ele><time>2026-03-22T16:01:37.998Z</time></trkpt><trkpt lat="50.58591451074011" lon="3.8061207402514494"><ele>52.0</ele><time>2026-03-22T16:01:38.998Z</time></trkpt><trkpt lat="50.585978669788574" lon="3.8061500928803587"><ele>52.0</ele><time>2026-03-22T16:01:39.998Z</time></trkpt><trkpt lat="50.58752690677973" lon="3.81344956542195"><ele>52.0</ele><time>2026-03-22T16:02:41Z</time></trkpt><trkpt lat="50.58758682888869" lon="3.8136167627961055"><ele>52.0</ele><time>2026-03-22T16:02:42Z</time></trkpt><trkpt lat="50.58765379751803" lon="3.8137834608878487"><ele>52.0</ele><time>2026-03-22T16:02:43Z</time></trkpt><trkpt lat="50.58772802039646" lon="3.8139481864458316"><ele>52.0</ele><time>2026-03-22T16:02:44Z</time></trkpt><trkpt lat="50.58780020216708" lon="3.8141123998625175"><ele>52.25</ele><time>2026-03-22T16:02:45Z</time></trkpt><trkpt lat="50.58787343546124" lon="3.814269968605364"><ele>52.5</ele><time>2026-03-22T16:02:46Z</time></trkpt><trkpt lat="50.58794358747563" lon="3.8144290710026385"><ele>52.75</ele><time>2026-03-22T16:02:47Z</time></trkpt><trkpt lat="50.58801446469046" lon="3.8145868434581867"><ele>53.0</ele><time>2026-03-22T16:02:48Z</time></trkpt><trkpt lat="50.588082928070115" lon="3.814746810179583"><ele>53.0</ele><time>2026-03-22T16:02:49Z</time></trkpt><trkpt lat="50.58815573555485" lon="3.814912453514235"><ele>53.0</ele><time>2026-03-22T16:02:50Z</time></trkpt><trkpt lat="50.58822854601965" lon="3.815078721431359"><ele>53.0</ele><time>2026-03-22T16:02:51Z</time></trkpt><trkpt lat="50.58829941911194" lon="3.8152509102108927"><ele>53.0</ele><time>2026-03-22T16:02:52Z</time></trkpt><trkpt lat="50.588371074669055" lon="3.81541991962278"><ele>53.25</ele><time>2026-03-22T16:02:53Z</time></trkpt><trkpt lat="50.588446992910704" lon="3.815589950380921"><ele>53.5</ele><time>2026-03-22T16:02:54Z</time></trkpt><trkpt lat="50.58852844667979" lon="3.8157569798263355"><ele>53.75</ele><time>2026-03-22T16:02:55Z</time></trkpt><trkpt lat="50.58860475946858" lon="3.815927835324002"><ele>54.0</ele><time>2026-03-22T16:02:56Z</time></trkpt><trkpt lat="50.58867977069237" lon="3.8160953148330696"><ele>54.25</ele><time>2026-03-22T16:02:57Z</time></trkpt><trkpt lat="50.588744711922764" lon="3.8162529846517583"><ele>54.5</ele><time>2026-03-22T16:02:57.999Z</time></trkpt><trkpt lat="50.588805875259034" lon="3.8164062764963624"><ele>54.75</ele><time>2026-03-22T16:02:58.999Z</time></trkpt><trkpt lat="50.588870162277736" lon="3.816562298047799"><ele>55.0</ele><time>2026-03-22T16:02:59.999Z</time></trkpt><trkpt lat="50.588936192357785" lon="3.816710298984987"><ele>55.0</ele><time>2026-03-22T16:03:00.999Z</time></trkpt><trkpt lat="50.588998108404326" lon="3.8168546805904713"><ele>55.0</ele><time>2026-03-22T16:03:01.999Z</time></trkpt><trkpt lat="50.58906092631995" lon="3.81700005826193"><ele>55.0</ele><time>2026-03-22T16:03:02.999Z</time></trkpt><trkpt lat="50.58912804127569" lon="3.8171561917831065"><ele>55.0</ele><time>2026-03-22T16:03:03.999Z</time></trkpt><trkpt lat="50.589185748342935" lon="3.8172826923403402"><ele>55.0</ele><time>2026-03-22T16:03:04.999Z</time></trkpt><trkpt lat="50.58923344464011" lon="3.8173953716743214"><ele>55.0</ele><time>2026-03-22T16:03:05.999Z</time></trkpt><trkpt lat="50.58927667679662" lon="3.8174953874337874"><ele>55.0</ele><time>2026-03-22T16:03:06.999Z</time></trkpt><trkpt lat="50.58932503052001" lon="3.817601356780382"><ele>55.0</ele><time>2026-03-22T16:03:07.999Z</time></trkpt><trkpt lat="50.5893775492975" lon="3.8177321387826075"><ele>55.0</ele><time>2026-03-22T16:03:08.999Z</time></trkpt><trkpt lat="50.58943858752789" lon="3.817862095823248"><ele>55.0</ele><time>2026-03-22T16:03:09.999Z</time></trkpt><trkpt lat="50.58949937523892" lon="3.8180002426637674"><ele>55.75</ele><time>2026-03-22T16:03:10.999Z</time></trkpt><trkpt lat="50.58956813332854" lon="3.81817387321862"><ele>56.5</ele><time>2026-03-22T16:03:11.999Z</time></trkpt><trkpt lat="50.589642871227895" lon="3.8183453049194664"><ele>57.25</ele><time>2026-03-22T16:03:12.999Z</time></trkpt><trkpt lat="50.58971774231206" lon="3.8185260543739497"><ele>58.0</ele><time>2026-03-22T16:03:13.999Z</time></trkpt><trkpt lat="50.589805447206466" lon="3.8187139313879297"><ele>58.0</ele><time>2026-03-22T16:03:14.999Z</time></trkpt><trkpt lat="50.58988823470138" lon="3.8189034172456013"><ele>58.0</ele><time>2026-03-22T16:03:15.999Z</time></trkpt><trkpt lat="50.58996442639243" lon="3.81908477966237"><ele>58.0</ele><time>2026-03-22T16:03:16.999Z</time></trkpt><trkpt lat="50.590049506720966" lon="3.8192686153110804"><ele>58.0</ele><time>2026-03-22T16:03:17.999Z</time></trkpt><trkpt lat="50.590130517354375" lon="3.8194571730090106"><ele>58.0</ele><time>2026-03-22T16:03:18.999Z</time></trkpt><trkpt lat="50.59021273748223" lon="3.8196497143535617"><ele>58.0</ele><time>2026-03-22T16:03:19.999Z</time></trkpt><trkpt lat="50.59028997872466" lon="3.8198258692545304"><ele>58.0</ele><time>2026-03-22T16:03:20.999Z</time></trkpt><trkpt lat="50.590366435508294" lon="3.819997992500417"><ele>58.0</ele><time>2026-03-22T16:03:21.999Z</time></trkpt><trkpt lat="50.59044162077527" lon="3.8201771414499395"><ele>58.0</ele><time>2026-03-22T16:03:22.999Z</time></trkpt><trkpt lat="50.59051821253794" lon="3.8203597424207567"><ele>58.0</ele><time>2026-03-22T16:03:23.999Z</time></trkpt><trkpt lat="50.59059673069678" lon="3.8205417536408137"><ele>58.0</ele><time>2026-03-22T16:03:24.999Z</time></trkpt><trkpt lat="50.59067594686219" lon="3.8207197894069056"><ele>58.0</ele><time>2026-03-22T16:03:25.999Z</time></trkpt><trkpt lat="50.59075693271991" lon="3.820907529207884"><ele>58.25</ele><time>2026-03-22T16:03:26.999Z</time></trkpt><trkpt lat="50.59083851892667" lon="3.8210928389908627"><ele>58.5</ele><time>2026-03-22T16:03:27.999Z</time></trkpt><trkpt lat="50.590918335988675" lon="3.821282676438981"><ele>58.75</ele><time>2026-03-22T16:03:28.999Z</time></trkpt><trkpt lat="50.591004086400524" lon="3.8214749032546598"><ele>59.0</ele><time>2026-03-22T16:03:29.999Z</time></trkpt><trkpt lat="50.59108674105976" lon="3.821666782235147"><ele>59.0</ele><time>2026-03-22T16:03:30.999Z</time></trkpt><trkpt lat="50.5911714363025" lon="3.8218613665426333"><ele>59.0</ele><time>2026-03-22T16:03:31.999Z</time></trkpt><trkpt lat="50.591260636216404" lon="3.822064635144229"><ele>59.0</ele><time>2026-03-22T16:03:32.999Z</time></trkpt><trkpt lat="50.591348693139366" lon="3.8222715050786285"><ele>59.333333333333336</ele><time>2026-03-22T16:03:33.999Z</time></trkpt><trkpt lat="50.59143931621436" lon="3.8224816868448377"><ele>59.66666666666667</ele><time>2026-03-22T16:03:34.999Z</time></trkpt><trkpt lat="50.591535320238094" lon="3.8226927612550545"><ele>60.0</ele><time>2026-03-22T16:03:35.999Z</time></trkpt><trkpt lat="50.59162865668989" lon="3.8229085693216702"><ele>59.33333333333333</ele><time>2026-03-22T16:03:36.999Z</time></trkpt><trkpt lat="50.59171759511457" lon="3.823119215591816"><ele>58.666666666666664</ele><time>2026-03-22T16:03:37.999Z</time></trkpt><trkpt lat="50.59180626788997" lon="3.8233176948244574"><ele>58.0</ele><time>2026-03-22T16:03:38.999Z</time></trkpt><trkpt lat="50.5918911476651" lon="3.8235129146940268"><ele>53.0</ele><time>2026-03-22T16:03:39.999Z</time></trkpt><trkpt lat="50.596041636597356" lon="3.8313485722342384"><ele>53.0</ele><time>2026-03-22T16:04:41Z</time></trkpt><trkpt lat="50.596210916003706" lon="3.831475231582306"><ele>53.0</ele><time>2026-03-22T16:04:42Z</time></trkpt><trkpt lat="50.596387630555476" lon="3.831602243648596"><ele>53.0</ele><time>2026-03-22T16:04:43Z</time></trkpt><trkpt lat="50.59655946180867" lon="3.831733355514249"><ele>52.66666666666667</ele><time>2026-03-22T16:04:44Z</time></trkpt><trkpt lat="50.596731402192354" lon="3.831866523099984"><ele>52.33333333333333</ele><time>2026-03-22T16:04:45Z</time></trkpt><trkpt lat="50.59690501495324" lon="3.8319990073707326"><ele>52.0</ele><time>2026-03-22T16:04:46Z</time></trkpt><trkpt lat="50.59708379399516" lon="3.83213781705251"><ele>51.33333333333333</ele><time>2026-03-22T16:04:47Z</time></trkpt><trkpt lat="50.597273587422535" lon="3.832283649054978"><ele>50.66666666666667</ele><time>2026-03-22T16:04:48Z</time></trkpt><trkpt lat="50.59747434040346" lon="3.832431786450186"><ele>50.0</ele><time>2026-03-22T16:04:49Z</time></trkpt><trkpt lat="50.59766847217777" lon="3.8325734823426263"><ele>49.0</ele><time>2026-03-22T16:04:50Z</time></trkpt><trkpt lat="50.597843688203405" lon="3.832705439258387"><ele>48.0</ele><time>2026-03-22T16:04:51Z</time></trkpt><trkpt lat="50.59800844965301" lon="3.832834636434143"><ele>47.0</ele><time>2026-03-22T16:04:52Z</time></trkpt><trkpt lat="50.59816792315522" lon="3.8329583943459284"><ele>47.0</ele><time>2026-03-22T16:04:53Z</time></trkpt><trkpt lat="50.598325430211204" lon="3.833078615416179"><ele>47.0</ele><time>2026-03-22T16:04:54Z</time></trkpt><trkpt lat="50.59848332441359" lon="3.8331976512459445"><ele>47.0</ele><time>2026-03-22T16:04:55Z</time></trkpt><trkpt lat="50.59863970336883" lon="3.833315481765812"><ele>47.0</ele><time>2026-03-22T16:04:56Z</time></trkpt><trkpt lat="50.598793166975504" lon="3.8334360092938065"><ele>47.0</ele><time>2026-03-22T16:04:57Z</time></trkpt><trkpt lat="50.598935322235036" lon="3.8335475151520138"><ele>47.0</ele><time>2026-03-22T16:04:58Z</time></trkpt><trkpt lat="50.599072246763086" lon="3.833654346780727"><ele>46.75</ele><time>2026-03-22T16:04:59Z</time></trkpt><trkpt lat="50.599211375852654" lon="3.8337560605671683"><ele>46.5</ele><time>2026-03-22T16:05:00Z</time></trkpt><trkpt lat="50.59934760724641" lon="3.8338593696123286"><ele>46.25</ele><time>2026-03-22T16:05:01Z</time></trkpt><trkpt lat="50.59947384103504" lon="3.83395935967637"><ele>46.0</ele><time>2026-03-22T16:05:02Z</time></trkpt><trkpt lat="50.59959300080305" lon="3.8340483856352474"><ele>46.0</ele><time>2026-03-22T16:05:03Z</time></trkpt><trkpt lat="50.59970055363307" lon="3.8341277150737234"><ele>46.0</ele><time>2026-03-22T16:05:04Z</time></trkpt><trkpt lat="50.59978867215231" lon="3.834190842140047"><ele>46.0</ele><time>2026-03-22T16:05:05Z</time></trkpt><trkpt lat="50.59985527318874" lon="3.834245157230741"><ele>46.0</ele><time>2026-03-22T16:05:06Z</time></trkpt><trkpt lat="50.59993012948843" lon="3.834299743871532"><ele>46.0</ele><time>2026-03-22T16:05:07Z</time></trkpt><trkpt lat="50.60001819898464" lon="3.834364839683247"><ele>46.0</ele><time>2026-03-22T16:05:08Z</time></trkpt><trkpt lat="50.600110762617895" lon="3.8344245411916953"><ele>46.0</ele><time>2026-03-22T16:05:09Z</time></trkpt><trkpt lat="50.60020282109214" lon="3.8344827726368225"><ele>46.0</ele><time>2026-03-22T16:05:10Z</time></trkpt><trkpt lat="50.60030247803715" lon="3.8345460156933573"><ele>46.0</ele><time>2026-03-22T16:05:11Z</time></trkpt><trkpt lat="50.60041444279762" lon="3.834618500541855"><ele>46.0</ele><time>2026-03-22T16:05:12Z</time></trkpt><trkpt lat="50.6005335910953" lon="3.8346945175472307"><ele>46.25</ele><time>2026-03-22T16:05:13Z</time></trkpt><trkpt lat="50.60065227227285" lon="3.834772104309976"><ele>46.5</ele><time>2026-03-22T16:05:14Z</time></trkpt><trkpt lat="50.60078530616118" lon="3.8348555469601373"><ele>46.75</ele><time>2026-03-22T16:05:15Z</time></trkpt><trkpt lat="50.600910686808795" lon="3.834935261662606"><ele>47.0</ele><time>2026-03-22T16:05:16Z</time></trkpt><trkpt lat="50.60102655439778" lon="3.835007980126405"><ele>47.0</ele><time>2026-03-22T16:05:17Z</time></trkpt><trkpt lat="50.60112617363937" lon="3.835070311021177"><ele>47.0</ele><time>2026-03-22T16:05:17.999Z</time></trkpt><trkpt lat="50.60121736963061" lon="3.8351257494714677"><ele>47.0</ele><time>2026-03-22T16:05:18.999Z</time></trkpt><trkpt lat="50.6012893907543" lon="3.8351729941967703"><ele>47.0</ele><time>2026-03-22T16:05:19.999Z</time></trkpt><trkpt lat="50.60134869749087" lon="3.8352087997389717"><ele>47.0</ele><time>2026-03-22T16:05:20.999Z</time></trkpt><trkpt lat="50.60148118207151" lon="3.8352874386755715"><ele>46.2</ele><time>2026-03-22T16:05:22.999Z</time></trkpt><trkpt lat="50.601551099290326" lon="3.8353350666459978"><ele>45.400000000000006</ele><time>2026-03-22T16:05:23.999Z</time></trkpt><trkpt lat="50.60163703984314" lon="3.8353870996697683"><ele>44.599999999999994</ele><time>2026-03-22T16:05:24.999Z</time></trkpt><trkpt lat="50.60172816853389" lon="3.8354457574318888"><ele>43.8</ele><time>2026-03-22T16:05:25.999Z</time></trkpt><trkpt lat="50.60182559891639" lon="3.835508209382279"><ele>43.0</ele><time>2026-03-22T16:05:26.999Z</time></trkpt><trkpt lat="50.60192999236079" lon="3.835576449922646"><ele>43.0</ele><time>2026-03-22T16:05:27.999Z</time></trkpt><trkpt lat="50.602039355362734" lon="3.8356442997703875"><ele>43.0</ele><time>2026-03-22T16:05:28.999Z</time></trkpt><trkpt lat="50.602151503387766" lon="3.8357129709721147"><ele>43.0</ele><time>2026-03-22T16:05:29.999Z</time></trkpt><trkpt lat="50.60226819649302" lon="3.8357849686794063"><ele>43.0</ele><time>2026-03-22T16:05:30.999Z</time></trkpt><trkpt lat="50.60238792519197" lon="3.835858615366764"><ele>43.0</ele><time>2026-03-22T16:05:31.999Z</time></trkpt><trkpt lat="50.60250255961178" lon="3.8359281409808785"><ele>43.0</ele><time>2026-03-22T16:05:32.999Z</time></trkpt><trkpt lat="50.602597389823686" lon="3.8359908213569733"><ele>43.0</ele><time>2026-03-22T16:05:33.999Z</time></trkpt><trkpt lat="50.602683277250485" lon="3.8360492717081005"><ele>43.0</ele><time>2026-03-22T16:05:34.999Z</time></trkpt><trkpt lat="50.60275261615727" lon="3.83608563015377"><ele>43.0</ele><time>2026-03-22T16:05:35.999Z</time></trkpt><trkpt lat="50.60284950033959" lon="3.8361458622135864"><ele>42.5</ele><time>2026-03-22T16:05:37.999Z</time></trkpt><trkpt lat="50.60295852968746" lon="3.835875698199695"><ele>42.0</ele><time>2026-03-22T16:05:39.999Z</time></trkpt><trkpt lat="50.607236849390006" lon="3.8379758596003075"><ele>42.0</ele><time>2026-03-22T16:06:41Z</time></trkpt><trkpt lat="50.607333267892464" lon="3.838018191993641"><ele>42.0</ele><time>2026-03-22T16:06:42Z</time></trkpt><trkpt lat="50.60742825809922" lon="3.838058708515561"><ele>42.0</ele><time>2026-03-22T16:06:43Z</time></trkpt><trkpt lat="50.607516829348704" lon="3.838074382936531"><ele>42.0</ele><time>2026-03-22T16:06:44Z</time></trkpt><trkpt lat="50.607579404948694" lon="3.8381249232069408"><ele>42.0</ele><time>2026-03-22T16:06:45Z</time></trkpt><trkpt lat="50.607642015363275" lon="3.8382868621679953"><ele>42.0</ele><time>2026-03-22T16:06:47Z</time></trkpt><trkpt lat="50.60761245230085" lon="3.8383939331791037"><ele>42.0</ele><time>2026-03-22T16:06:48Z</time></trkpt><trkpt lat="50.60759491641107" lon="3.838508199134042"><ele>42.0</ele><time>2026-03-22T16:06:49Z</time></trkpt><trkpt lat="50.6075928589866" lon="3.83864022295791"><ele>42.0</ele><time>2026-03-22T16:06:50Z</time></trkpt><trkpt lat="50.607577897621205" lon="3.838748002431378"><ele>42.0</ele><time>2026-03-22T16:06:51Z</time></trkpt><trkpt lat="50.607556217871505" lon="3.838901526187773"><ele>42.0</ele><time>2026-03-22T16:06:53Z</time></trkpt><trkpt lat="50.60753891609583" lon="3.8390195805109006"><ele>42.0</ele><time>2026-03-22T16:06:59Z</time></trkpt><trkpt lat="50.60770025626459" lon="3.8391517416851695"><ele>42.0</ele><time>2026-03-22T16:07:02Z</time></trkpt><trkpt lat="50.60779390715795" lon="3.8391864221974434"><ele>42.0</ele><time>2026-03-22T16:07:03Z</time></trkpt><trkpt lat="50.60789317527873" lon="3.839247710831438"><ele>42.0</ele><time>2026-03-22T16:07:04Z</time></trkpt><trkpt lat="50.607994685586924" lon="3.8393095781547206"><ele>41.8</ele><time>2026-03-22T16:07:05Z</time></trkpt><trkpt lat="50.60809707230183" lon="3.8393669346863053"><ele>41.6</ele><time>2026-03-22T16:07:06Z</time></trkpt><trkpt lat="50.60819068032526" lon="3.839425861777428"><ele>41.4</ele><time>2026-03-22T16:07:07Z</time></trkpt><trkpt lat="50.60828502285765" lon="3.83948162952315"><ele>41.199999999999996</ele><time>2026-03-22T16:07:08Z</time></trkpt><trkpt lat="50.60837274222323" lon="3.839537754613365"><ele>41.0</ele><time>2026-03-22T16:07:09Z</time></trkpt><trkpt lat="50.6084585015987" lon="3.8395918785455936"><ele>41.0</ele><time>2026-03-22T16:07:10Z</time></trkpt><trkpt lat="50.608540286725145" lon="3.839643045811916"><ele>41.0</ele><time>2026-03-22T16:07:11Z</time></trkpt><trkpt lat="50.60862869084109" lon="3.8396878208900933"><ele>41.0</ele><time>2026-03-22T16:07:12Z</time></trkpt><trkpt lat="50.6087162863103" lon="3.8397362558595844"><ele>41.0</ele><time>2026-03-22T16:07:13Z</time></trkpt><trkpt lat="50.60880148140364" lon="3.839785248445219"><ele>41.0</ele><time>2026-03-22T16:07:14Z</time></trkpt><trkpt lat="50.60888820376749" lon="3.839838867592452"><ele>41.0</ele><time>2026-03-22T16:07:15Z</time></trkpt><trkpt lat="50.608972237624464" lon="3.8398916655658915"><ele>41.0</ele><time>2026-03-22T16:07:16Z</time></trkpt><trkpt lat="50.60904763478802" lon="3.8399462453808697"><ele>41.0</ele><time>2026-03-22T16:07:17Z</time></trkpt><trkpt lat="50.60910579519362" lon="3.8400118700986448"><ele>41.0</ele><time>2026-03-22T16:07:18Z</time></trkpt><trkpt lat="50.6091556173383" lon="3.8400951621161243"><ele>41.0</ele><time>2026-03-22T16:07:19Z</time></trkpt><trkpt lat="50.609200192736154" lon="3.840189914830296"><ele>41.0</ele><time>2026-03-22T16:07:20Z</time></trkpt><trkpt lat="50.60924511045552" lon="3.8402917293259926"><ele>41.166666666666664</ele><time>2026-03-22T16:07:21Z</time></trkpt><trkpt lat="50.60928493467803" lon="3.840399924932412"><ele>41.33333333333333</ele><time>2026-03-22T16:07:22Z</time></trkpt><trkpt lat="50.609320067843655" lon="3.8405128552195578"><ele>41.5</ele><time>2026-03-22T16:07:23Z</time></trkpt><trkpt lat="50.60934594132324" lon="3.8406234604727407"><ele>41.666666666666664</ele><time>2026-03-22T16:07:24Z</time></trkpt><trkpt lat="50.60938125509305" lon="3.840727617849188"><ele>41.833333333333336</ele><time>2026-03-22T16:07:25Z</time></trkpt><trkpt lat="50.60942048252494" lon="3.8408399788868417"><ele>42.0</ele><time>2026-03-22T16:07:26Z</time></trkpt><trkpt lat="50.609462642830984" lon="3.840964828863352"><ele>42.0</ele><time>2026-03-22T16:07:27Z</time></trkpt><trkpt lat="50.609508562539816" lon="3.8410998622469084"><ele>42.0</ele><time>2026-03-22T16:07:28Z</time></trkpt><trkpt lat="50.60956113453152" lon="3.841230058872203"><ele>42.0</ele><time>2026-03-22T16:07:29Z</time></trkpt><trkpt lat="50.609632628631836" lon="3.841326246437155"><ele>42.0</ele><time>2026-03-22T16:07:29.999Z</time></trkpt><trkpt lat="50.60972616089795" lon="3.84138594577107"><ele>42.0</ele><time>2026-03-22T16:07:30.999Z</time></trkpt><trkpt lat="50.60982958675673" lon="3.8414109643534906"><ele>42.0</ele><time>2026-03-22T16:07:31.999Z</time></trkpt><trkpt lat="50.609930457292634" lon="3.8414248743817265"><ele>42.0</ele><time>2026-03-22T16:07:32.999Z</time></trkpt><trkpt lat="50.61003029232941" lon="3.841436002438849"><ele>42.0</ele><time>2026-03-22T16:07:33.999Z</time></trkpt><trkpt lat="50.610128281858955" lon="3.8414478676425623"><ele>42.0</ele><time>2026-03-22T16:07:34.999Z</time></trkpt><trkpt lat="50.61021429801171" lon="3.841463182356025"><ele>42.0</ele><time>2026-03-22T16:07:35.999Z</time></trkpt><trkpt lat="50.61029466050326" lon="3.841475706094212"><ele>42.5</ele><time>2026-03-22T16:07:36.999Z</time></trkpt><trkpt lat="50.6103731429111" lon="3.841486743400298"><ele>43.0</ele><time>2026-03-22T16:07:37.999Z</time></trkpt><trkpt lat="50.6104508201027" lon="3.84150152523096"><ele>43.5</ele><time>2026-03-22T16:07:38.999Z</time></trkpt><trkpt lat="50.610534449505764" lon="3.8415072150880154"><ele>44.0</ele><time>2026-03-22T16:07:39.999Z</time></trkpt><trkpt lat="50.614758680150835" lon="3.847526114256598"><ele>46.666666666666664</ele><time>2026-03-22T16:08:40.999Z</time></trkpt><trkpt lat="50.61488076637111" lon="3.8477186134195582"><ele>49.33333333333333</ele><time>2026-03-22T16:08:41.999Z</time></trkpt><trkpt lat="50.61501234605727" lon="3.8479228158161547"><ele>52.0</ele><time>2026-03-22T16:08:42.999Z</time></trkpt><trkpt lat="50.615153826990735" lon="3.848158684391214"><ele>52.0</ele><time>2026-03-22T16:08:43.999Z</time></trkpt><trkpt lat="50.615299445068324" lon="3.84840740695412"><ele>52.0</ele><time>2026-03-22T16:08:44.999Z</time></trkpt><trkpt lat="50.61544446680644" lon="3.8486531359940455"><ele>52.0</ele><time>2026-03-22T16:08:45.999Z</time></trkpt><trkpt lat="50.615583726012105" lon="3.8488958674030926"><ele>52.0</ele><time>2026-03-22T16:08:46.999Z</time></trkpt><trkpt lat="50.615715256998534" lon="3.849122683100982"><ele>52.0</ele><time>2026-03-22T16:08:47.999Z</time></trkpt><trkpt lat="50.61584541319833" lon="3.8493374953836654"><ele>52.0</ele><time>2026-03-22T16:08:48.999Z</time></trkpt><trkpt lat="50.615975234076984" lon="3.849554497764841"><ele>52.33333333333333</ele><time>2026-03-22T16:08:49.999Z</time></trkpt><trkpt lat="50.61610254391567" lon="3.849773773168246"><ele>52.66666666666667</ele><time>2026-03-22T16:08:50.999Z</time></trkpt><trkpt lat="50.61622194042991" lon="3.8500119805208675"><ele>53.0</ele><time>2026-03-22T16:08:51.999Z</time></trkpt><trkpt lat="50.616332679838706" lon="3.8502663954103538"><ele>53.333333333333336</ele><time>2026-03-22T16:08:52.999Z</time></trkpt><trkpt lat="50.616446475363226" lon="3.850536511513467"><ele>53.66666666666667</ele><time>2026-03-22T16:08:53.999Z</time></trkpt><trkpt lat="50.61656214365038" lon="3.850815654662158"><ele>54.0</ele><time>2026-03-22T16:08:54.999Z</time></trkpt><trkpt lat="50.61667300258163" lon="3.8511037661057146"><ele>54.33333333333333</ele><time>2026-03-22T16:08:55.999Z</time></trkpt><trkpt lat="50.61677911504508" lon="3.851374344215984"><ele>54.666666666666664</ele><time>2026-03-22T16:08:56.999Z</time></trkpt><trkpt lat="50.616885327314264" lon="3.8516212001598484"><ele>55.0</ele><time>2026-03-22T16:08:57.999Z</time></trkpt><trkpt lat="50.61698857367556" lon="3.851862268461686"><ele>55.33333333333333</ele><time>2026-03-22T16:08:58.999Z</time></trkpt><trkpt lat="50.617090723087465" lon="3.8520953918310976"><ele>55.66666666666667</ele><time>2026-03-22T16:08:59.999Z</time></trkpt><trkpt lat="50.61719299095299" lon="3.8523177721355113"><ele>56.0</ele><time>2026-03-22T16:09:00.999Z</time></trkpt><trkpt lat="50.617306997968996" lon="3.8525268827374384"><ele>56.0</ele><time>2026-03-22T16:09:01.999Z</time></trkpt><trkpt lat="50.617425680954305" lon="3.8527215093751446"><ele>56.0</ele><time>2026-03-22T16:09:02.999Z</time></trkpt><trkpt lat="50.61754469577104" lon="3.852904033008118"><ele>56.0</ele><time>2026-03-22T16:09:03.999Z</time></trkpt><trkpt lat="50.617656824911556" lon="3.853072693334899"><ele>56.0</ele><time>2026-03-22T16:09:04.999Z</time></trkpt><trkpt lat="50.61775559601046" lon="3.853224847352902"><ele>55.99999999999999</ele><time>2026-03-22T16:09:05.999Z</time></trkpt><trkpt lat="50.61783738799067" lon="3.853347229845328"><ele>55.99999999999999</ele><time>2026-03-22T16:09:06.999Z</time></trkpt><trkpt lat="50.6178947683636" lon="3.8534372011712636"><ele>56.0</ele><time>2026-03-22T16:09:07.999Z</time></trkpt><trkpt lat="50.61797616434985" lon="3.853508931699997"><ele>56.0</ele><time>2026-03-22T16:09:09.999Z</time></trkpt><trkpt lat="50.625582453073484" lon="3.858613962676651"><ele>59.66666666666667</ele><time>2026-03-22T16:12:40.998Z</time></trkpt><trkpt lat="50.625740941994756" lon="3.858761054489587"><ele>63.33333333333333</ele><time>2026-03-22T16:12:41.998Z</time></trkpt><trkpt lat="50.625898367078655" lon="3.8589017126044673"><ele>67.0</ele><time>2026-03-22T16:12:42.998Z</time></trkpt><trkpt lat="50.626061202078645" lon="3.8590435178943627"><ele>66.33333333333333</ele><time>2026-03-22T16:12:43.998Z</time></trkpt><trkpt lat="50.62623153112166" lon="3.8591853384458843"><ele>65.66666666666667</ele><time>2026-03-22T16:12:45Z</time></trkpt><trkpt lat="50.62639944619673" lon="3.8593230215424237"><ele>65.0</ele><time>2026-03-22T16:12:46Z</time></trkpt><trkpt lat="50.62655458547077" lon="3.8594528710089757"><ele>65.0</ele><time>2026-03-22T16:12:47Z</time></trkpt><trkpt lat="50.626705124412474" lon="3.8595751497514343"><ele>65.0</ele><time>2026-03-22T16:12:48Z</time></trkpt><trkpt lat="50.626851497581576" lon="3.8596891716933777"><ele>65.0</ele><time>2026-03-22T16:12:49Z</time></trkpt><trkpt lat="50.626991982757694" lon="3.85980233918169"><ele>63.66666666666667</ele><time>2026-03-22T16:12:50Z</time></trkpt><trkpt lat="50.62712440135987" lon="3.859910119442839"><ele>62.33333333333333</ele><time>2026-03-22T16:12:51Z</time></trkpt><trkpt lat="50.62725867987427" lon="3.860017069532176"><ele>61.0</ele><time>2026-03-22T16:12:52Z</time></trkpt><trkpt lat="50.627397652318116" lon="3.8601235614578875"><ele>61.0</ele><time>2026-03-22T16:12:53Z</time></trkpt><trkpt lat="50.62753414562547" lon="3.8602325730682447"><ele>61.0</ele><time>2026-03-22T16:12:54Z</time></trkpt><trkpt lat="50.6276667734143" lon="3.860342935574044"><ele>61.0</ele><time>2026-03-22T16:12:55Z</time></trkpt><trkpt lat="50.62779516367615" lon="3.860442462900095"><ele>61.0</ele><time>2026-03-22T16:12:56Z</time></trkpt><trkpt lat="50.62792302806957" lon="3.860515378784721"><ele>60.33333333333333</ele><time>2026-03-22T16:12:57Z</time></trkpt><trkpt lat="50.6280611945665" lon="3.860572155395914"><ele>59.66666666666667</ele><time>2026-03-22T16:12:58Z</time></trkpt><trkpt lat="50.628208901975746" lon="3.860626700211341"><ele>59.0</ele><time>2026-03-22T16:12:59Z</time></trkpt><trkpt lat="50.62836089367417" lon="3.86069260467627"><ele>59.0</ele><time>2026-03-22T16:13:00Z</time></trkpt><trkpt lat="50.62850459904081" lon="3.860760476914803"><ele>59.0</ele><time>2026-03-22T16:13:01Z</time></trkpt><trkpt lat="50.628645451017356" lon="3.860828217928433"><ele>59.0</ele><time>2026-03-22T16:13:02Z</time></trkpt><trkpt lat="50.62878240922708" lon="3.8608908836556894"><ele>59.0</ele><time>2026-03-22T16:13:03Z</time></trkpt><trkpt lat="50.62892424682635" lon="3.860954117741783"><ele>58.5</ele><time>2026-03-22T16:13:04Z</time></trkpt><trkpt lat="50.62906472448799" lon="3.861018342235009"><ele>58.0</ele><time>2026-03-22T16:13:05Z</time></trkpt><trkpt lat="50.62920053952393" lon="3.861078110185518"><ele>57.5</ele><time>2026-03-22T16:13:06Z</time></trkpt><trkpt lat="50.62932964145497" lon="3.86113789569026"><ele>57.0</ele><time>2026-03-22T16:13:07Z</time></trkpt><trkpt lat="50.62945523390872" lon="3.8611990700339014"><ele>56.75</ele><time>2026-03-22T16:13:08Z</time></trkpt><trkpt lat="50.62958739713668" lon="3.861255175556058"><ele>56.5</ele><time>2026-03-22T16:13:09Z</time></trkpt><trkpt lat="50.62972686368732" lon="3.8613152105805564"><ele>56.25</ele><time>2026-03-22T16:13:10Z</time></trkpt><trkpt lat="50.62986842406596" lon="3.8613782555364278"><ele>56.0</ele><time>2026-03-22T16:13:11Z</time></trkpt><trkpt lat="50.63001129162691" lon="3.8614422697856488"><ele>56.0</ele><time>2026-03-22T16:13:12Z</time></trkpt><trkpt lat="50.63015117094921" lon="3.8615023066380814"><ele>56.0</ele><time>2026-03-22T16:13:13Z</time></trkpt><trkpt lat="50.63028719350888" lon="3.8615657550788187"><ele>56.0</ele><time>2026-03-22T16:13:14Z</time></trkpt><trkpt lat="50.63042104433372" lon="3.8616247190368354"><ele>56.0</ele><time>2026-03-22T16:13:15Z</time></trkpt><trkpt lat="50.630559012612544" lon="3.8616862515419808"><ele>55.75</ele><time>2026-03-22T16:13:16Z</time></trkpt><trkpt lat="50.630691704802786" lon="3.8617450866005028"><ele>55.5</ele><time>2026-03-22T16:13:17Z</time></trkpt><trkpt lat="50.6308214118208" lon="3.86180368265913"><ele>55.25</ele><time>2026-03-22T16:13:18Z</time></trkpt><trkpt lat="50.63094963905887" lon="3.861856537614538"><ele>55.0</ele><time>2026-03-22T16:13:18.999Z</time></trkpt><trkpt lat="50.63107002770708" lon="3.8619121211601644"><ele>55.0</ele><time>2026-03-22T16:13:19.999Z</time></trkpt><trkpt lat="50.631188204844825" lon="3.861970141795598"><ele>55.0</ele><time>2026-03-22T16:13:20.999Z</time></trkpt><trkpt lat="50.63131320731927" lon="3.8620314329473096"><ele>55.0</ele><time>2026-03-22T16:13:21.999Z</time></trkpt><trkpt lat="50.631444979273034" lon="3.862090533142183"><ele>55.0</ele><time>2026-03-22T16:13:22.999Z</time></trkpt><trkpt lat="50.63158001797712" lon="3.8621507293541013"><ele>55.0</ele><time>2026-03-22T16:13:23.999Z</time></trkpt><trkpt lat="50.63171230243627" lon="3.8622137812363677"><ele>55.0</ele><time>2026-03-22T16:13:24.999Z</time></trkpt><trkpt lat="50.63183717642268" lon="3.862267934576407"><ele>55.0</ele><time>2026-03-22T16:13:25.999Z</time></trkpt><trkpt lat="50.63195862093336" lon="3.8623130725429022"><ele>55.0</ele><time>2026-03-22T16:13:26.999Z</time></trkpt><trkpt lat="50.632070042807875" lon="3.862350666301896"><ele>54.99999999999999</ele><time>2026-03-22T16:13:27.999Z</time></trkpt><trkpt lat="50.63216715836537" lon="3.8623723938071004"><ele>55.0</ele><time>2026-03-22T16:13:28.999Z</time></trkpt><trkpt lat="50.632249913621166" lon="3.8623934214047058"><ele>55.0</ele><time>2026-03-22T16:13:29.999Z</time></trkpt><trkpt lat="50.63234288544681" lon="3.8624749377772116"><ele>55.0</ele><time>2026-03-22T16:13:31.999Z</time></trkpt><trkpt lat="50.6323489873693" lon="3.8626021873997445"><ele>54.99999999999999</ele><time>2026-03-22T16:13:33.999Z</time></trkpt><trkpt lat="50.632359156877285" lon="3.862715127345805"><ele>55.0</ele><time>2026-03-22T16:13:35.999Z</time></trkpt><trkpt lat="50.63243765367501" lon="3.8628638090684135"><ele>54.666666666666664</ele><time>2026-03-22T16:13:37.999Z</time></trkpt><trkpt lat="50.632514611616024" lon="3.8629217813205736"><ele>54.33333333333333</ele><time>2026-03-22T16:13:38.999Z</time></trkpt><trkpt lat="50.63260463560511" lon="3.8629747799096195"><ele>54.0</ele><time>2026-03-22T16:13:39.999Z</time></trkpt><trkpt lat="50.63260610560421" lon="3.8710914420968563"><ele>54.0</ele><time>2026-03-22T16:14:40.998Z</time></trkpt><trkpt lat="50.63245636828457" lon="3.871141460809075"><ele>54.0</ele><time>2026-03-22T16:14:41.998Z</time></trkpt><trkpt lat="50.632312334174024" lon="3.8711913712237043"><ele>54.0</ele><time>2026-03-22T16:14:42.998Z</time></trkpt><trkpt lat="50.63215651411015" lon="3.8712131985925864"><ele>54.0</ele><time>2026-03-22T16:14:43.998Z</time></trkpt><trkpt lat="50.63199876502957" lon="3.8712552595186502"><ele>54.0</ele><time>2026-03-22T16:14:44.998Z</time></trkpt><trkpt lat="50.63183699467951" lon="3.871304636532809"><ele>54.0</ele><time>2026-03-22T16:14:45.998Z</time></trkpt><trkpt lat="50.631674034291066" lon="3.871366022607966"><ele>54.33333333333333</ele><time>2026-03-22T16:14:46.998Z</time></trkpt><trkpt lat="50.631511936752986" lon="3.8714464159370676"><ele>54.666666666666664</ele><time>2026-03-22T16:14:47.998Z</time></trkpt><trkpt lat="50.631357496204885" lon="3.8715334052589205"><ele>55.0</ele><time>2026-03-22T16:14:48.998Z</time></trkpt><trkpt lat="50.63120958612364" lon="3.8716209595550093"><ele>55.25</ele><time>2026-03-22T16:14:49.998Z</time></trkpt><trkpt lat="50.63106271471837" lon="3.871708153925536"><ele>55.5</ele><time>2026-03-22T16:14:51Z</time></trkpt><trkpt lat="50.63092029454518" lon="3.8717929052529145"><ele>55.75</ele><time>2026-03-22T16:14:52Z</time></trkpt><trkpt lat="50.63079438546483" lon="3.8718679664122395"><ele>56.0</ele><time>2026-03-22T16:14:53Z</time></trkpt><trkpt lat="50.63066470061873" lon="3.87194501262931"><ele>56.0</ele><time>2026-03-22T16:14:54Z</time></trkpt><trkpt lat="50.63055803702268" lon="3.872008141105744"><ele>56.0</ele><time>2026-03-22T16:14:55Z</time></trkpt><trkpt lat="50.63045618631622" lon="3.872066731435025"><ele>56.0</ele><time>2026-03-22T16:14:56Z</time></trkpt><trkpt lat="50.63035269185893" lon="3.872133711778747"><ele>56.0</ele><time>2026-03-22T16:14:57Z</time></trkpt><trkpt lat="50.630248940890844" lon="3.872223175347252"><ele>57.5</ele><time>2026-03-22T16:14:58Z</time></trkpt><trkpt lat="50.6301443178334" lon="3.8723200555378994"><ele>59.0</ele><time>2026-03-22T16:14:59Z</time></trkpt><trkpt lat="50.63003683739098" lon="3.872421749642715"><ele>60.5</ele><time>2026-03-22T16:15:00Z</time></trkpt><trkpt lat="50.62993455310557" lon="3.8725144495480555"><ele>62.0</ele><time>2026-03-22T16:15:01Z</time></trkpt><trkpt lat="50.62983453864595" lon="3.8725899828595454"><ele>62.0</ele><time>2026-03-22T16:15:02Z</time></trkpt><trkpt lat="50.62974433131841" lon="3.8726535509308766"><ele>62.0</ele><time>2026-03-22T16:15:03Z</time></trkpt><trkpt lat="50.629667454701504" lon="3.872703902419989"><ele>62.0</ele><time>2026-03-22T16:15:04Z</time></trkpt><trkpt lat="50.629561243487494" lon="3.872773352426124"><ele>62.0</ele><time>2026-03-22T16:15:06Z</time></trkpt><trkpt lat="50.629495286086886" lon="3.872815922879677"><ele>62.0</ele><time>2026-03-22T16:15:07Z</time></trkpt><trkpt lat="50.62940436487939" lon="3.8728704132460523"><ele>62.0</ele><time>2026-03-22T16:15:08Z</time></trkpt><trkpt lat="50.629297692938906" lon="3.872930414619569"><ele>62.0</ele><time>2026-03-22T16:15:09Z</time></trkpt><trkpt lat="50.62917227762328" lon="3.872989482796379"><ele>62.0</ele><time>2026-03-22T16:15:10Z</time></trkpt><trkpt lat="50.629031163806275" lon="3.8730459688264376"><ele>62.0</ele><time>2026-03-22T16:15:11Z</time></trkpt><trkpt lat="50.628870579322275" lon="3.8731045970454403"><ele>62.0</ele><time>2026-03-22T16:15:12Z</time></trkpt><trkpt lat="50.62869079445217" lon="3.8731702352613073"><ele>62.0</ele><time>2026-03-22T16:15:13Z</time></trkpt><trkpt lat="50.62850380699621" lon="3.873238503112346"><ele>62.0</ele><time>2026-03-22T16:15:14Z</time></trkpt><trkpt lat="50.628322939420485" lon="3.873306716988549"><ele>62.0</ele><time>2026-03-22T16:15:15Z</time></trkpt><trkpt lat="50.62816685881063" lon="3.873395329443265"><ele>62.0</ele><time>2026-03-22T16:15:16Z</time></trkpt><trkpt lat="50.62803758865076" lon="3.873436486984715"><ele>62.0</ele><time>2026-03-22T16:15:17Z</time></trkpt><trkpt lat="50.627930617085944" lon="3.8735385121235804"><ele>62.0</ele><time>2026-03-22T16:15:18Z</time></trkpt><trkpt lat="50.627820551127094" lon="3.8736218663781283"><ele>61.66666666666667</ele><time>2026-03-22T16:15:19Z</time></trkpt><trkpt lat="50.627695952771994" lon="3.8737228618710495"><ele>61.33333333333333</ele><time>2026-03-22T16:15:20Z</time></trkpt><trkpt lat="50.62754697909004" lon="3.8737839636661446"><ele>61.0</ele><time>2026-03-22T16:15:21Z</time></trkpt><trkpt lat="50.62739743460227" lon="3.873903852664985"><ele>61.0</ele><time>2026-03-22T16:15:22Z</time></trkpt><trkpt lat="50.627230429098574" lon="3.8740128003378396"><ele>61.0</ele><time>2026-03-22T16:15:23Z</time></trkpt><trkpt lat="50.62705304856746" lon="3.8741270566196846"><ele>61.0</ele><time>2026-03-22T16:15:24Z</time></trkpt><trkpt lat="50.62688452614245" lon="3.874229226750897"><ele>61.75</ele><time>2026-03-22T16:15:25Z</time></trkpt><trkpt lat="50.626731426977855" lon="3.8742758095249012"><ele>62.5</ele><time>2026-03-22T16:15:26Z</time></trkpt><trkpt lat="50.626593458171776" lon="3.874315322954484"><ele>63.25</ele><time>2026-03-22T16:15:27Z</time></trkpt><trkpt lat="50.626460765671865" lon="3.874395447945788"><ele>64.0</ele><time>2026-03-22T16:15:28Z</time></trkpt><trkpt lat="50.62632016948885" lon="3.874466001386909"><ele>64.0</ele><time>2026-03-22T16:15:29Z</time></trkpt><trkpt lat="50.62617092165425" lon="3.874549777259319"><ele>64.0</ele><time>2026-03-22T16:15:30Z</time></trkpt><trkpt lat="50.6260199065407" lon="3.8746583706468924"><ele>64.0</ele><time>2026-03-22T16:15:31Z</time></trkpt><trkpt lat="50.62587587035567" lon="3.8747835036704106"><ele>64.75</ele><time>2026-03-22T16:15:32Z</time></trkpt><trkpt lat="50.62573746999329" lon="3.8749132547447247"><ele>65.5</ele><time>2026-03-22T16:15:33Z</time></trkpt><trkpt lat="50.62561744709841" lon="3.8750247005798224"><ele>66.25</ele><time>2026-03-22T16:15:34Z</time></trkpt><trkpt lat="50.62551060366216" lon="3.8751160455473643"><ele>67.0</ele><time>2026-03-22T16:15:35Z</time></trkpt><trkpt lat="50.62540146255811" lon="3.8752158503253264"><ele>67.5</ele><time>2026-03-22T16:15:36Z</time></trkpt><trkpt lat="50.62528528469307" lon="3.875314739402148"><ele>68.0</ele><time>2026-03-22T16:15:36.999Z</time></trkpt><trkpt lat="50.625176611456936" lon="3.8754341581326965"><ele>68.5</ele><time>2026-03-22T16:15:37.999Z</time></trkpt><trkpt lat="50.625068649883644" lon="3.8755752465055098"><ele>69.0</ele><time>2026-03-22T16:15:38.999Z</time></trkpt><trkpt lat="50.62494076648767" lon="3.8756936810894267"><ele>69.0</ele><time>2026-03-22T16:15:39.999Z</time></trkpt><trkpt lat="50.616997460133824" lon="3.877963059371223"><ele>68.66666666666667</ele><time>2026-03-22T16:16:40.998Z</time></trkpt><trkpt lat="50.616830913559454" lon="3.877926102160753"><ele>68.33333333333334</ele><time>2026-03-22T16:16:41.998Z</time></trkpt><trkpt lat="50.61666923013872" lon="3.877888475111809"><ele>68.0</ele><time>2026-03-22T16:16:42.998Z</time></trkpt><trkpt lat="50.61652722178716" lon="3.8778550354811436"><ele>68.0</ele><time>2026-03-22T16:16:43.998Z</time></trkpt><trkpt lat="50.61638740598927" lon="3.877822362296788"><ele>68.0</ele><time>2026-03-22T16:16:44.998Z</time></trkpt><trkpt lat="50.61624341868459" lon="3.8777900501754785"><ele>68.0</ele><time>2026-03-22T16:16:45.998Z</time></trkpt><trkpt lat="50.616096013213415" lon="3.877756971000394"><ele>68.0</ele><time>2026-03-22T16:16:46.998Z</time></trkpt><trkpt lat="50.615952411736686" lon="3.877724745471975"><ele>68.0</ele><time>2026-03-22T16:16:47.998Z</time></trkpt><trkpt lat="50.61581244721275" lon="3.8776929109109486"><ele>68.0</ele><time>2026-03-22T16:16:48.998Z</time></trkpt><trkpt lat="50.615682389494246" lon="3.877663109652231"><ele>68.0</ele><time>2026-03-22T16:16:49.998Z</time></trkpt><trkpt lat="50.615565272347155" lon="3.8776331310081633"><ele>68.0</ele><time>2026-03-22T16:16:50.998Z</time></trkpt><trkpt lat="50.61546089173503" lon="3.877593931427415"><ele>68.5</ele><time>2026-03-22T16:16:51.998Z</time></trkpt><trkpt lat="50.61535612337897" lon="3.8775589772982855"><ele>69.0</ele><time>2026-03-22T16:16:52.998Z</time></trkpt><trkpt lat="50.615276753733966" lon="3.8774186850052024"><ele>69.5</ele><time>2026-03-22T16:16:53.998Z</time></trkpt><trkpt lat="50.61518857284112" lon="3.8773061975197063"><ele>70.0</ele><time>2026-03-22T16:16:54.998Z</time></trkpt><trkpt lat="50.615098466865106" lon="3.877192779531341"><ele>70.0</ele><time>2026-03-22T16:16:55.998Z</time></trkpt><trkpt lat="50.615009041001215" lon="3.877078469161138"><ele>70.0</ele><time>2026-03-22T16:16:57Z</time></trkpt><trkpt lat="50.614908535275674" lon="3.876953492547668"><ele>70.0</ele><time>2026-03-22T16:16:58Z</time></trkpt><trkpt lat="50.6148085978107" lon="3.876830070673263"><ele>70.0</ele><time>2026-03-22T16:16:59Z</time></trkpt><trkpt lat="50.614701863674256" lon="3.8766982549444746"><ele>70.33333333333333</ele><time>2026-03-22T16:17:00Z</time></trkpt><trkpt lat="50.61458930659208" lon="3.876559247671292"><ele>70.66666666666667</ele><time>2026-03-22T16:17:01Z</time></trkpt><trkpt lat="50.6144694826154" lon="3.8764111886760304"><ele>71.0</ele><time>2026-03-22T16:17:02Z</time></trkpt><trkpt lat="50.614341775933134" lon="3.8762525409182227"><ele>71.5</ele><time>2026-03-22T16:17:03Z</time></trkpt><trkpt lat="50.614210383930484" lon="3.8761225482730164"><ele>72.0</ele><time>2026-03-22T16:17:04Z</time></trkpt><trkpt lat="50.6141051697372" lon="3.8759958303908153"><ele>72.5</ele><time>2026-03-22T16:17:05Z</time></trkpt><trkpt lat="50.61399128601028" lon="3.8758882497527187"><ele>73.0</ele><time>2026-03-22T16:17:06Z</time></trkpt><trkpt lat="50.61386472055217" lon="3.8757967666696884"><ele>73.33333333333333</ele><time>2026-03-22T16:17:07Z</time></trkpt><trkpt lat="50.61373084389504" lon="3.875711222455294"><ele>73.66666666666667</ele><time>2026-03-22T16:17:08Z</time></trkpt><trkpt lat="50.61358127528162" lon="3.875605683114949"><ele>74.0</ele><time>2026-03-22T16:17:09Z</time></trkpt><trkpt lat="50.613444949115944" lon="3.8755263799027526"><ele>74.66666666666667</ele><time>2026-03-22T16:17:10Z</time></trkpt><trkpt lat="50.613285274661685" lon="3.875430041524224"><ele>75.33333333333333</ele><time>2026-03-22T16:17:11Z</time></trkpt><trkpt lat="50.61312019882408" lon="3.8753304442785144"><ele>76.0</ele><time>2026-03-22T16:17:12Z</time></trkpt><trkpt lat="50.61294961368074" lon="3.8752273413591354"><ele>76.33333333333333</ele><time>2026-03-22T16:17:13Z</time></trkpt><trkpt lat="50.61278190790427" lon="3.8751259187468174"><ele>76.66666666666667</ele><time>2026-03-22T16:17:14Z</time></trkpt><trkpt lat="50.61262345686127" lon="3.875030043666762"><ele>77.0</ele><time>2026-03-22T16:17:15Z</time></trkpt><trkpt lat="50.61247597515189" lon="3.874939445735258"><ele>76.0</ele><time>2026-03-22T16:17:16Z</time></trkpt><trkpt lat="50.612337248763815" lon="3.8748524255561287"><ele>75.0</ele><time>2026-03-22T16:17:17Z</time></trkpt><trkpt lat="50.612236335126084" lon="3.8747841274520205"><ele>74.0</ele><time>2026-03-22T16:17:18Z</time></trkpt><trkpt lat="50.61211275845114" lon="3.874654236250314"><ele>73.0</ele><time>2026-03-22T16:17:19Z</time></trkpt><trkpt lat="50.61199554350997" lon="3.874487732871276"><ele>73.33333333333333</ele><time>2026-03-22T16:17:20Z</time></trkpt><trkpt lat="50.6118608475077" lon="3.8743227017372805"><ele>73.66666666666667</ele><time>2026-03-22T16:17:21Z</time></trkpt><trkpt lat="50.61173695139386" lon="3.874124431300381"><ele>74.0</ele><time>2026-03-22T16:17:22Z</time></trkpt><trkpt lat="50.61160311635615" lon="3.8739168083205313"><ele>72.33333333333334</ele><time>2026-03-22T16:17:23Z</time></trkpt><trkpt lat="50.61146659366278" lon="3.8737117051466528"><ele>70.66666666666667</ele><time>2026-03-22T16:17:24Z</time></trkpt><trkpt lat="50.61133530853749" lon="3.8735207337723345"><ele>69.0</ele><time>2026-03-22T16:17:25Z</time></trkpt><trkpt lat="50.611203133295106" lon="3.8733386498455036"><ele>68.33333333333333</ele><time>2026-03-22T16:17:26Z</time></trkpt><trkpt lat="50.61107078035296" lon="3.873161007947816"><ele>67.66666666666666</ele><time>2026-03-22T16:17:27Z</time></trkpt><trkpt lat="50.61093137064725" lon="3.8729845868168615"><ele>67.0</ele><time>2026-03-22T16:17:28Z</time></trkpt><trkpt lat="50.61079113795018" lon="3.872815051837133"><ele>67.0</ele><time>2026-03-22T16:17:29Z</time></trkpt><trkpt lat="50.61064854149453" lon="3.8726473499492835"><ele>67.0</ele><time>2026-03-22T16:17:30Z</time></trkpt><trkpt lat="50.61051350209564" lon="3.8724915721402122"><ele>67.0</ele><time>2026-03-22T16:17:31Z</time></trkpt><trkpt lat="50.61038227059203" lon="3.8723526152675856"><ele>66.33333333333333</ele><time>2026-03-22T16:17:32Z</time></trkpt><trkpt lat="50.610247662138235" lon="3.8722261867671244"><ele>65.66666666666667</ele><time>2026-03-22T16:17:33Z</time></trkpt><trkpt lat="50.610107488458155" lon="3.8721293199047397"><ele>65.0</ele><time>2026-03-22T16:17:34Z</time></trkpt><trkpt lat="50.60995832049241" lon="3.87204643195755"><ele>65.0</ele><time>2026-03-22T16:17:35Z</time></trkpt><trkpt lat="50.60979901265417" lon="3.8719767485399075"><ele>65.0</ele><time>2026-03-22T16:17:36Z</time></trkpt><trkpt lat="50.60963638684652" lon="3.871904853712391"><ele>65.0</ele><time>2026-03-22T16:17:37Z</time></trkpt><trkpt lat="50.6094634439303" lon="3.8718242415890116"><ele>65.33333333333334</ele><time>2026-03-22T16:17:38Z</time></trkpt><trkpt lat="50.60929116911849" lon="3.871742905042457"><ele>65.66666666666667</ele><time>2026-03-22T16:17:39Z</time></trkpt><trkpt lat="50.60911172564813" lon="3.8716713676324197"><ele>66.0</ele><time>2026-03-22T16:17:40Z</time></trkpt><trkpt lat="50.599837003789546" lon="3.865396074537148"><ele>64.0</ele><time>2026-03-22T16:18:40.999Z</time></trkpt><trkpt lat="50.59969605410952" lon="3.8652500733183985"><ele>62.0</ele><time>2026-03-22T16:18:41.999Z</time></trkpt><trkpt lat="50.59954125770815" lon="3.8651096105603684"><ele>60.0</ele><time>2026-03-22T16:18:42.999Z</time></trkpt><trkpt lat="50.599368718921575" lon="3.8649763280201603"><ele>59.66666666666667</ele><time>2026-03-22T16:18:43.999Z</time></trkpt><trkpt lat="50.5991813132776" lon="3.864848594128241"><ele>59.333333333333336</ele><time>2026-03-22T16:18:44.999Z</time></trkpt><trkpt lat="50.599006011066294" lon="3.8647290111134702"><ele>59.0</ele><time>2026-03-22T16:18:45.999Z</time></trkpt><trkpt lat="50.59886844034255" lon="3.864625894117986"><ele>59.0</ele><time>2026-03-22T16:18:46.999Z</time></trkpt><trkpt lat="50.598754776396916" lon="3.8645400592266204"><ele>59.0</ele><time>2026-03-22T16:18:47.999Z</time></trkpt><trkpt lat="50.59864900876942" lon="3.864497962004783"><ele>59.0</ele><time>2026-03-22T16:18:48.998Z</time></trkpt><trkpt lat="50.59853620630129" lon="3.8644969579286066"><ele>59.0</ele><time>2026-03-22T16:18:49.998Z</time></trkpt><trkpt lat="50.598412225445976" lon="3.8645394294034356"><ele>59.25</ele><time>2026-03-22T16:18:50.998Z</time></trkpt><trkpt lat="50.598278553699984" lon="3.8646054822299036"><ele>59.5</ele><time>2026-03-22T16:18:51.998Z</time></trkpt><trkpt lat="50.59813371803729" lon="3.8646589338567834"><ele>59.75</ele><time>2026-03-22T16:18:52.998Z</time></trkpt><trkpt lat="50.597979626677116" lon="3.864706245010909"><ele>60.0</ele><time>2026-03-22T16:18:53.998Z</time></trkpt><trkpt lat="50.59783486053863" lon="3.8647440700605746"><ele>58.75</ele><time>2026-03-22T16:18:54.998Z</time></trkpt><trkpt lat="50.59769784793246" lon="3.864769458192498"><ele>57.5</ele><time>2026-03-22T16:18:55.998Z</time></trkpt><trkpt lat="50.597565353773376" lon="3.8647834986682"><ele>56.25</ele><time>2026-03-22T16:18:56.998Z</time></trkpt><trkpt lat="50.59743879477886" lon="3.864788310864041"><ele>55.0</ele><time>2026-03-22T16:18:57.998Z</time></trkpt><trkpt lat="50.59731808743617" lon="3.8647790896761247"><ele>55.0</ele><time>2026-03-22T16:18:58.998Z</time></trkpt><trkpt lat="50.59720363171987" lon="3.8647565082707387"><ele>55.0</ele><time>2026-03-22T16:18:59.998Z</time></trkpt><trkpt lat="50.59709013587041" lon="3.86473164042838"><ele>55.0</ele><time>2026-03-22T16:19:00.998Z</time></trkpt><trkpt lat="50.596965690436555" lon="3.8646973348869373"><ele>55.0</ele><time>2026-03-22T16:19:01.998Z</time></trkpt><trkpt lat="50.59684292892772" lon="3.8646551180169353"><ele>54.8</ele><time>2026-03-22T16:19:03.001Z</time></trkpt><trkpt lat="50.59671654440467" lon="3.8646225621385097"><ele>54.6</ele><time>2026-03-22T16:19:04.001Z</time></trkpt><trkpt lat="50.59660022001194" lon="3.8645897306781682"><ele>54.400000000000006</ele><time>2026-03-22T16:19:05Z</time></trkpt><trkpt lat="50.596495911817364" lon="3.864556414149306"><ele>54.2</ele><time>2026-03-22T16:19:06.001Z</time></trkpt><trkpt lat="50.5964101589828" lon="3.8645348400178454"><ele>54.0</ele><time>2026-03-22T16:19:07.001Z</time></trkpt><trkpt lat="50.59629157573417" lon="3.8644500411870735"><ele>54.0</ele><time>2026-03-22T16:19:09Z</time></trkpt><trkpt lat="50.59623273940612" lon="3.8643795230586018"><ele>54.0</ele><time>2026-03-22T16:19:10.001Z</time></trkpt><trkpt lat="50.59617902433081" lon="3.8642880283124867"><ele>54.0</ele><time>2026-03-22T16:19:11Z</time></trkpt><trkpt lat="50.59613019105694" lon="3.864192026880061"><ele>54.0</ele><time>2026-03-22T16:19:12Z</time></trkpt><trkpt lat="50.59608464412935" lon="3.8640876764545293"><ele>54.0</ele><time>2026-03-22T16:19:13Z</time></trkpt><trkpt lat="50.59603812359355" lon="3.863973277533987"><ele>54.0</ele><time>2026-03-22T16:19:14Z</time></trkpt><trkpt lat="50.59598592475678" lon="3.863852451030861"><ele>53.6</ele><time>2026-03-22T16:19:15Z</time></trkpt><trkpt lat="50.595929715152536" lon="3.8637292657522453"><ele>53.2</ele><time>2026-03-22T16:19:16Z</time></trkpt><trkpt lat="50.59586904146626" lon="3.863597334044098"><ele>52.800000000000004</ele><time>2026-03-22T16:19:17Z</time></trkpt><trkpt lat="50.59580938970541" lon="3.8634693949354126"><ele>52.400000000000006</ele><time>2026-03-22T16:19:18Z</time></trkpt><trkpt lat="50.595747934356254" lon="3.863339455798145"><ele>52.0</ele><time>2026-03-22T16:19:19Z</time></trkpt><trkpt lat="50.595691269668734" lon="3.8632060230085066"><ele>52.0</ele><time>2026-03-22T16:19:20Z</time></trkpt><trkpt lat="50.59562767291098" lon="3.863067057713634"><ele>52.0</ele><time>2026-03-22T16:19:21Z</time></trkpt><trkpt lat="50.595573276322035" lon="3.862933253385241"><ele>52.0</ele><time>2026-03-22T16:19:22Z</time></trkpt><trkpt lat="50.595511653408295" lon="3.8628057253035792"><ele>52.0</ele><time>2026-03-22T16:19:23Z</time></trkpt><trkpt lat="50.595457339731986" lon="3.8626866355079437"><ele>52.0</ele><time>2026-03-22T16:19:24Z</time></trkpt><trkpt lat="50.595404934111684" lon="3.862583787629708"><ele>51.99999999999999</ele><time>2026-03-22T16:19:25Z</time></trkpt><trkpt lat="50.595367014504525" lon="3.862471863410178"><ele>52.0</ele><time>2026-03-22T16:19:26Z</time></trkpt><trkpt lat="50.595319253225654" lon="3.8623688890606327"><ele>52.0</ele><time>2026-03-22T16:19:27Z</time></trkpt><trkpt lat="50.59526700545038" lon="3.86225624167141"><ele>52.0</ele><time>2026-03-22T16:19:28Z</time></trkpt><trkpt lat="50.595199305787744" lon="3.862150013847414"><ele>51.99999999999999</ele><time>2026-03-22T16:19:29Z</time></trkpt><trkpt lat="50.59514582034522" lon="3.8620275654762555"><ele>52.0</ele><time>2026-03-22T16:19:30Z</time></trkpt><trkpt lat="50.59509958842064" lon="3.861917721524912"><ele>52.0</ele><time>2026-03-22T16:19:31Z</time></trkpt><trkpt lat="50.59505152158186" lon="3.8618088999242675"><ele>52.0</ele><time>2026-03-22T16:19:32Z</time></trkpt><trkpt lat="50.594996133522926" lon="3.8616843585870386"><ele>52.0</ele><time>2026-03-22T16:19:33Z</time></trkpt><trkpt lat="50.594939279100664" lon="3.8615545020621007"><ele>52.0</ele><time>2026-03-22T16:19:34Z</time></trkpt><trkpt lat="50.59488237477654" lon="3.8614338750267185"><ele>52.0</ele><time>2026-03-22T16:19:35Z</time></trkpt><trkpt lat="50.59482499473167" lon="3.8613143090101323"><ele>51.400000000000006</ele><time>2026-03-22T16:19:36Z</time></trkpt><trkpt lat="50.59477323055404" lon="3.86118968930832"><ele>50.800000000000004</ele><time>2026-03-22T16:19:37Z</time></trkpt><trkpt lat="50.594717686571464" lon="3.8610631589313043"><ele>50.2</ele><time>2026-03-22T16:19:38Z</time></trkpt><trkpt lat="50.59466545337981" lon="3.8609349590810274"><ele>49.6</ele><time>2026-03-22T16:19:39Z</time></trkpt><trkpt lat="50.5946123177543" lon="3.8608112156272765"><ele>49.0</ele><time>2026-03-22T16:19:40Z</time></trkpt><trkpt lat="50.5901554834878" lon="3.85845539924543"><ele>50.166666666666664</ele><time>2026-03-22T16:20:40.999Z</time></trkpt><trkpt lat="50.59007629335436" lon="3.858418503351603"><ele>51.33333333333333</ele><time>2026-03-22T16:20:41.999Z</time></trkpt><trkpt lat="50.59000884244576" lon="3.8583760936265046"><ele>52.5</ele><time>2026-03-22T16:20:42.999Z</time></trkpt><trkpt lat="50.58991910834273" lon="3.858248316612759"><ele>53.66666666666667</ele><time>2026-03-22T16:20:44.999Z</time></trkpt><trkpt lat="50.58986882207368" lon="3.8581847052239557"><ele>54.833333333333336</ele><time>2026-03-22T16:20:45.999Z</time></trkpt><trkpt lat="50.58980284625823" lon="3.8581263648307242"><ele>56.0</ele><time>2026-03-22T16:20:46.999Z</time></trkpt><trkpt lat="50.58972468090389" lon="3.8580875668784573"><ele>56.0</ele><time>2026-03-22T16:20:47.999Z</time></trkpt><trkpt lat="50.58962805467143" lon="3.8580696624435555"><ele>56.0</ele><time>2026-03-22T16:20:48.999Z</time></trkpt><trkpt lat="50.58953647660362" lon="3.8580422295485093"><ele>56.0</ele><time>2026-03-22T16:20:49.999Z</time></trkpt><trkpt lat="50.589415321944415" lon="3.858021335935618"><ele>56.0</ele><time>2026-03-22T16:20:50.999Z</time></trkpt><trkpt lat="50.58927835242153" lon="3.8579993959754604"><ele>56.333333333333336</ele><time>2026-03-22T16:20:51.999Z</time></trkpt><trkpt lat="50.58912783016266" lon="3.8579727909872097"><ele>56.66666666666667</ele><time>2026-03-22T16:20:52.999Z</time></trkpt><trkpt lat="50.58896184999361" lon="3.8579432728689693"><ele>57.0</ele><time>2026-03-22T16:20:53.999Z</time></trkpt><trkpt lat="50.58879392147092" lon="3.857912263779211"><ele>57.33333333333333</ele><time>2026-03-22T16:20:54.999Z</time></trkpt><trkpt lat="50.58862912712754" lon="3.8578800349527955"><ele>57.666666666666664</ele><time>2026-03-22T16:20:55.999Z</time></trkpt><trkpt lat="50.58846087525439" lon="3.8578497294210985"><ele>58.0</ele><time>2026-03-22T16:20:56.999Z</time></trkpt><trkpt lat="50.58828358161765" lon="3.857815482568145"><ele>58.0</ele><time>2026-03-22T16:20:57.999Z</time></trkpt><trkpt lat="50.58809196992419" lon="3.857771456492668"><ele>58.0</ele><time>2026-03-22T16:20:58.999Z</time></trkpt><trkpt lat="50.58788272121406" lon="3.8577158577082638"><ele>58.0</ele><time>2026-03-22T16:20:59.998Z</time></trkpt><trkpt lat="50.587659139906364" lon="3.8576556570493157"><ele>57.5</ele><time>2026-03-22T16:21:00.998Z</time></trkpt><trkpt lat="50.587411943873434" lon="3.857590865578259"><ele>57.0</ele><time>2026-03-22T16:21:01.998Z</time></trkpt><trkpt lat="50.58714163980541" lon="3.8575193792591196"><ele>58.0</ele><time>2026-03-22T16:21:02.998Z</time></trkpt><trkpt lat="50.58687347928304" lon="3.8574447621414802"><ele>59.0</ele><time>2026-03-22T16:21:03.998Z</time></trkpt><trkpt lat="50.586607298454794" lon="3.857371288489481"><ele>59.0</ele><time>2026-03-22T16:21:04.998Z</time></trkpt><trkpt lat="50.58635339964542" lon="3.8573115394465303"><ele>59.0</ele><time>2026-03-22T16:21:05.998Z</time></trkpt><trkpt lat="50.58611666820537" lon="3.857265503556911"><ele>58.333333333333336</ele><time>2026-03-22T16:21:06.998Z</time></trkpt><trkpt lat="50.58589472298264" lon="3.8572329174855917"><ele>57.66666666666667</ele><time>2026-03-22T16:21:07.997Z</time></trkpt><trkpt lat="50.585682232663736" lon="3.8572075992662618"><ele>57.0</ele><time>2026-03-22T16:21:09Z</time></trkpt><trkpt lat="50.585477214529554" lon="3.8572009695320255"><ele>57.0</ele><time>2026-03-22T16:21:10Z</time></trkpt><trkpt lat="50.58525736909773" lon="3.8572052163101356"><ele>57.0</ele><time>2026-03-22T16:21:11Z</time></trkpt><trkpt lat="50.58502071952076" lon="3.857222413809152"><ele>57.0</ele><time>2026-03-22T16:21:12Z</time></trkpt><trkpt lat="50.58475663727477" lon="3.8572520083400774"><ele>57.0</ele><time>2026-03-22T16:21:13Z</time></trkpt><trkpt lat="50.58446876075871" lon="3.8572759962281373"><ele>57.0</ele><time>2026-03-22T16:21:14Z</time></trkpt><trkpt lat="50.58416161003137" lon="3.857296405034465"><ele>57.0</ele><time>2026-03-22T16:21:15Z</time></trkpt><trkpt lat="50.583885246639305" lon="3.857317349955028"><ele>57.5</ele><time>2026-03-22T16:21:16Z</time></trkpt><trkpt lat="50.583639342680186" lon="3.8573375781409465"><ele>58.0</ele><time>2026-03-22T16:21:17Z</time></trkpt><trkpt lat="50.5834291608486" lon="3.8573542673047774"><ele>58.0</ele><time>2026-03-22T16:21:18Z</time></trkpt><trkpt lat="50.58323607339849" lon="3.8573751749025678"><ele>58.0</ele><time>2026-03-22T16:21:19Z</time></trkpt><trkpt lat="50.5830691109633" lon="3.8573834539326346"><ele>58.0</ele><time>2026-03-22T16:21:20Z</time></trkpt><trkpt lat="50.58292088914004" lon="3.857379067116776"><ele>57.75</ele><time>2026-03-22T16:21:21Z</time></trkpt><trkpt lat="50.5827882892321" lon="3.857343370188186"><ele>57.5</ele><time>2026-03-22T16:21:22Z</time></trkpt><trkpt lat="50.58267873634203" lon="3.8572256515975343"><ele>57.25</ele><time>2026-03-22T16:21:23Z</time></trkpt><trkpt lat="50.58255580829212" lon="3.857099857838444"><ele>57.0</ele><time>2026-03-22T16:21:24Z</time></trkpt><trkpt lat="50.582424091029814" lon="3.8569829663696007"><ele>57.0</ele><time>2026-03-22T16:21:25Z</time></trkpt><trkpt lat="50.58230520237467" lon="3.856845861925829"><ele>57.0</ele><time>2026-03-22T16:21:26Z</time></trkpt><trkpt lat="50.58219730787262" lon="3.856720426972821"><ele>57.0</ele><time>2026-03-22T16:21:27Z</time></trkpt><trkpt lat="50.582104231437086" lon="3.856596689732565"><ele>57.0</ele><time>2026-03-22T16:21:28Z</time></trkpt><trkpt lat="50.58202250935034" lon="3.8564784293997167"><ele>57.6</ele><time>2026-03-22T16:21:28.999Z</time></trkpt><trkpt lat="50.58194151254152" lon="3.856357506874675"><ele>58.2</ele><time>2026-03-22T16:21:29.999Z</time></trkpt><trkpt lat="50.581867376133495" lon="3.856239976008636"><ele>58.8</ele><time>2026-03-22T16:21:30.999Z</time></trkpt><trkpt lat="50.58179893660109" lon="3.85613029224629"><ele>59.4</ele><time>2026-03-22T16:21:31.999Z</time></trkpt><trkpt lat="50.58174362757022" lon="3.856056490817824"><ele>60.0</ele><time>2026-03-22T16:21:32.999Z</time></trkpt><trkpt lat="50.581690082350654" lon="3.8559730411311754"><ele>60.0</ele><time>2026-03-22T16:21:33.999Z</time></trkpt><trkpt lat="50.58163266881883" lon="3.855870253219402"><ele>60.0</ele><time>2026-03-22T16:21:35.999Z</time></trkpt><trkpt lat="50.579339370372715" lon="3.859953017430875"><ele>60.33333333333333</ele><time>2026-03-22T16:22:40.998Z</time></trkpt><trkpt lat="50.57922951266246" lon="3.8601544650986668"><ele>60.666666666666664</ele><time>2026-03-22T16:22:41.998Z</time></trkpt><trkpt lat="50.579118283922256" lon="3.8603650374550167"><ele>61.0</ele><time>2026-03-22T16:22:42.998Z</time></trkpt><trkpt lat="50.579010403059" lon="3.8605771097220156"><ele>61.0</ele><time>2026-03-22T16:22:43.998Z</time></trkpt><trkpt lat="50.57889772931917" lon="3.8607955825256233"><ele>61.0</ele><time>2026-03-22T16:22:44.998Z</time></trkpt><trkpt lat="50.57878099697105" lon="3.861014713734201"><ele>61.0</ele><time>2026-03-22T16:22:45.998Z</time></trkpt><trkpt lat="50.578664138533824" lon="3.8612335213652065"><ele>61.33333333333333</ele><time>2026-03-22T16:22:46.998Z</time></trkpt><trkpt lat="50.5785479916165" lon="3.8614568159841762"><ele>61.66666666666667</ele><time>2026-03-22T16:22:47.998Z</time></trkpt><trkpt lat="50.57842999791328" lon="3.8616832941568346"><ele>62.0</ele><time>2026-03-22T16:22:48.998Z</time></trkpt><trkpt lat="50.578310369183804" lon="3.8619117515190453"><ele>62.333333333333336</ele><time>2026-03-22T16:22:49.998Z</time></trkpt><trkpt lat="50.578192646497584" lon="3.8621386991220157"><ele>62.66666666666667</ele><time>2026-03-22T16:22:50.998Z</time></trkpt><trkpt lat="50.57807663169702" lon="3.862369129147612"><ele>63.0</ele><time>2026-03-22T16:22:51.998Z</time></trkpt><trkpt lat="50.57794959964594" lon="3.862603518336822"><ele>62.66666666666667</ele><time>2026-03-22T16:22:52.998Z</time></trkpt><trkpt lat="50.57781809306312" lon="3.8628448510632003"><ele>62.333333333333336</ele><time>2026-03-22T16:22:53.998Z</time></trkpt><trkpt lat="50.57768628758211" lon="3.863096440639803"><ele>62.0</ele><time>2026-03-22T16:22:54.998Z</time></trkpt><trkpt lat="50.57755389853576" lon="3.8633553908374174"><ele>62.0</ele><time>2026-03-22T16:22:55.998Z</time></trkpt><trkpt lat="50.57741683255529" lon="3.8636183772902184"><ele>62.0</ele><time>2026-03-22T16:22:56.998Z</time></trkpt><trkpt lat="50.577276034087234" lon="3.8638913422358274"><ele>62.0</ele><time>2026-03-22T16:22:57.998Z</time></trkpt><trkpt lat="50.57712650304125" lon="3.8641748431788354"><ele>62.5</ele><time>2026-03-22T16:22:58.998Z</time></trkpt><trkpt lat="50.576966931856035" lon="3.864471434647549"><ele>63.0</ele><time>2026-03-22T16:22:59.998Z</time></trkpt><trkpt lat="50.57680147767586" lon="3.8647799305114225"><ele>63.0</ele><time>2026-03-22T16:23:00.998Z</time></trkpt><trkpt lat="50.57663212014567" lon="3.86510135028662"><ele>63.0</ele><time>2026-03-22T16:23:01.998Z</time></trkpt><trkpt lat="50.57645887833854" lon="3.865432421996422"><ele>63.5</ele><time>2026-03-22T16:23:02.998Z</time></trkpt><trkpt lat="50.576286786758715" lon="3.865763508350626"><ele>64.0</ele><time>2026-03-22T16:23:03.998Z</time></trkpt><trkpt lat="50.576115014605406" lon="3.866091219540162"><ele>64.0</ele><time>2026-03-22T16:23:04.998Z</time></trkpt><trkpt lat="50.5759438626102" lon="3.8664196834931994"><ele>64.0</ele><time>2026-03-22T16:23:05.998Z</time></trkpt><trkpt lat="50.57577085717986" lon="3.8667481446474303"><ele>65.5</ele><time>2026-03-22T16:23:06.998Z</time></trkpt><trkpt lat="50.57559985082056" lon="3.8670682149397346"><ele>67.0</ele><time>2026-03-22T16:23:07.998Z</time></trkpt><trkpt lat="50.57543609212827" lon="3.867379492709378"><ele>68.0</ele><time>2026-03-22T16:23:08.998Z</time></trkpt><trkpt lat="50.5752769047173" lon="3.867687807381541"><ele>69.0</ele><time>2026-03-22T16:23:09.998Z</time></trkpt><trkpt lat="50.575117724038925" lon="3.867989309465462"><ele>69.0</ele><time>2026-03-22T16:23:10.998Z</time></trkpt><trkpt lat="50.57496160319003" lon="3.868277866306387"><ele>69.0</ele><time>2026-03-22T16:23:11.998Z</time></trkpt><trkpt lat="50.57480866300988" lon="3.8685635090503956"><ele>69.0</ele><time>2026-03-22T16:23:12.998Z</time></trkpt><trkpt lat="50.574660326923144" lon="3.868842029241151"><ele>69.0</ele><time>2026-03-22T16:23:13.998Z</time></trkpt><trkpt lat="50.574516622793965" lon="3.869120445421055"><ele>70.33333333333333</ele><time>2026-03-22T16:23:15Z</time></trkpt><trkpt lat="50.57437816782204" lon="3.8693875084038876"><ele>71.66666666666666</ele><time>2026-03-22T16:23:16Z</time></trkpt><trkpt lat="50.574248701719576" lon="3.8696327388145213"><ele>73.0</ele><time>2026-03-22T16:23:17Z</time></trkpt><trkpt lat="50.574127070682344" lon="3.869867240477436"><ele>73.0</ele><time>2026-03-22T16:23:18Z</time></trkpt><trkpt lat="50.57401294591969" lon="3.870085461017585"><ele>73.0</ele><time>2026-03-22T16:23:19Z</time></trkpt><trkpt lat="50.57390519814576" lon="3.870291448262219"><ele>73.0</ele><time>2026-03-22T16:23:20Z</time></trkpt><trkpt lat="50.573805735273766" lon="3.870476185750847"><ele>73.0</ele><time>2026-03-22T16:23:21Z</time></trkpt><trkpt lat="50.57371126728326" lon="3.8706531381556504"><ele>73.0</ele><time>2026-03-22T16:23:22Z</time></trkpt><trkpt lat="50.573628109163124" lon="3.870815745106015"><ele>73.0</ele><time>2026-03-22T16:23:23Z</time></trkpt><trkpt lat="50.573556084674806" lon="3.870956482130384"><ele>73.0</ele><time>2026-03-22T16:23:24Z</time></trkpt><trkpt lat="50.57348486710645" lon="3.8710950456070825"><ele>73.25</ele><time>2026-03-22T16:23:25Z</time></trkpt><trkpt lat="50.57340983742502" lon="3.8712375015278333"><ele>73.5</ele><time>2026-03-22T16:23:26Z</time></trkpt><trkpt lat="50.57333373651525" lon="3.8713776088400675"><ele>73.75</ele><time>2026-03-22T16:23:27Z</time></trkpt><trkpt lat="50.57325749982873" lon="3.871521881799424"><ele>74.0</ele><time>2026-03-22T16:23:28Z</time></trkpt><trkpt lat="50.57318149561435" lon="3.871676359276634"><ele>73.75</ele><time>2026-03-22T16:23:29Z</time></trkpt><trkpt lat="50.57309849973722" lon="3.8718333028988274"><ele>73.5</ele><time>2026-03-22T16:23:30Z</time></trkpt><trkpt lat="50.57301192152125" lon="3.8719936091848375"><ele>73.25</ele><time>2026-03-22T16:23:31Z</time></trkpt><trkpt lat="50.5729234190382" lon="3.872160887505473"><ele>73.0</ele><time>2026-03-22T16:23:32Z</time></trkpt><trkpt lat="50.57283220911995" lon="3.8723395156387923"><ele>73.0</ele><time>2026-03-22T16:23:33Z</time></trkpt><trkpt lat="50.57273664115454" lon="3.8725203603257756"><ele>73.0</ele><time>2026-03-22T16:23:34Z</time></trkpt><trkpt lat="50.572638306241764" lon="3.872706885934939"><ele>73.0</ele><time>2026-03-22T16:23:35Z</time></trkpt><trkpt lat="50.57253720800066" lon="3.8728987725570243"><ele>72.66666666666666</ele><time>2026-03-22T16:23:36Z</time></trkpt><trkpt lat="50.5724338550946" lon="3.8730937538717543"><ele>72.33333333333333</ele><time>2026-03-22T16:23:37Z</time></trkpt><trkpt lat="50.57232933817577" lon="3.8732960826075"><ele>72.0</ele><time>2026-03-22T16:23:38Z</time></trkpt><trkpt lat="50.57222428051808" lon="3.8735019712812466"><ele>72.0</ele><time>2026-03-22T16:23:39Z</time></trkpt><trkpt lat="50.57211840045886" lon="3.8737104476634405"><ele>72.0</ele><time>2026-03-22T16:23:40Z</time></trkpt><trkpt lat="50.56497683420767" lon="3.88735807999805"><ele>72.0</ele><time>2026-03-22T16:24:40.998Z</time></trkpt><trkpt lat="50.56486546040008" lon="3.887565824418102"><ele>72.0</ele><time>2026-03-22T16:24:41.998Z</time></trkpt><trkpt lat="50.56475799614278" lon="3.8877697432652156"><ele>72.0</ele><time>2026-03-22T16:24:42.998Z</time></trkpt><trkpt lat="50.56465078606687" lon="3.8879755792750905"><ele>72.0</ele><time>2026-03-22T16:24:43.998Z</time></trkpt><trkpt lat="50.56454763718032" lon="3.8881768863215136"><ele>72.0</ele><time>2026-03-22T16:24:44.998Z</time></trkpt><trkpt lat="50.56444540190063" lon="3.8883749079402086"><ele>72.0</ele><time>2026-03-22T16:24:45.998Z</time></trkpt><trkpt lat="50.56434296938232" lon="3.8885701278848246"><ele>72.66666666666667</ele><time>2026-03-22T16:24:46.998Z</time></trkpt><trkpt lat="50.56423958447592" lon="3.8887703972904832"><ele>73.33333333333334</ele><time>2026-03-22T16:24:47.998Z</time></trkpt><trkpt lat="50.56413665677625" lon="3.888967485640608"><ele>74.0</ele><time>2026-03-22T16:24:48.998Z</time></trkpt><trkpt lat="50.56402897799178" lon="3.8891683480369124"><ele>73.66666666666667</ele><time>2026-03-22T16:24:49.998Z</time></trkpt><trkpt lat="50.5639244040453" lon="3.8893706348450827"><ele>73.33333333333333</ele><time>2026-03-22T16:24:50.998Z</time></trkpt><trkpt lat="50.563816847386214" lon="3.8895750017847686"><ele>73.0</ele><time>2026-03-22T16:24:51.998Z</time></trkpt><trkpt lat="50.56370598443453" lon="3.889781526815717"><ele>72.66666666666666</ele><time>2026-03-22T16:24:52.998Z</time></trkpt><trkpt lat="50.56359592942876" lon="3.8899910557083914"><ele>72.33333333333333</ele><time>2026-03-22T16:24:53.998Z</time></trkpt><trkpt lat="50.56348322887869" lon="3.8902029495649004"><ele>72.0</ele><time>2026-03-22T16:24:54.998Z</time></trkpt><trkpt lat="50.563372284610004" lon="3.8904164650428683"><ele>71.66666666666667</ele><time>2026-03-22T16:24:55.998Z</time></trkpt><trkpt lat="50.56326048846902" lon="3.89063673447065"><ele>71.33333333333334</ele><time>2026-03-22T16:24:56.998Z</time></trkpt><trkpt lat="50.56314726436236" lon="3.890860341727693"><ele>71.0</ele><time>2026-03-22T16:24:57.998Z</time></trkpt><trkpt lat="50.563033674360184" lon="3.891079247741379"><ele>71.0</ele><time>2026-03-22T16:24:58.998Z</time></trkpt><trkpt lat="50.562920126647214" lon="3.8912915692762753"><ele>71.0</ele><time>2026-03-22T16:24:59.998Z</time></trkpt><trkpt lat="50.56280335635923" lon="3.8915010493897695"><ele>71.0</ele><time>2026-03-22T16:25:00.998Z</time></trkpt><trkpt lat="50.56269525471366" lon="3.8917066033882186"><ele>70.33333333333334</ele><time>2026-03-22T16:25:01.998Z</time></trkpt><trkpt lat="50.56259077505486" lon="3.891908520739284"><ele>69.66666666666667</ele><time>2026-03-22T16:25:02.998Z</time></trkpt><trkpt lat="50.562487209172964" lon="3.8921069733627736"><ele>69.0</ele><time>2026-03-22T16:25:03.998Z</time></trkpt><trkpt lat="50.56238490316318" lon="3.892310359419941"><ele>69.0</ele><time>2026-03-22T16:25:04.998Z</time></trkpt><trkpt lat="50.56228488147411" lon="3.8925071917894982"><ele>69.0</ele><time>2026-03-22T16:25:05.998Z</time></trkpt><trkpt lat="50.562184775710946" lon="3.8926940246951944"><ele>69.0</ele><time>2026-03-22T16:25:06.998Z</time></trkpt><trkpt lat="50.562085434407294" lon="3.8928814537788545"><ele>69.0</ele><time>2026-03-22T16:25:07.998Z</time></trkpt><trkpt lat="50.56198791269304" lon="3.8930677235153364"><ele>69.0</ele><time>2026-03-22T16:25:08.998Z</time></trkpt><trkpt lat="50.56189313641649" lon="3.8932473521091957"><ele>69.0</ele><time>2026-03-22T16:25:09.998Z</time></trkpt><trkpt lat="50.56180175027344" lon="3.8934236881408997"><ele>69.0</ele><time>2026-03-22T16:25:10.998Z</time></trkpt><trkpt lat="50.56171192037868" lon="3.8935963065645414"><ele>69.0</ele><time>2026-03-22T16:25:11.998Z</time></trkpt><trkpt lat="50.561620586045265" lon="3.893771332675446"><ele>69.0</ele><time>2026-03-22T16:25:12.998Z</time></trkpt><trkpt lat="50.561529162214875" lon="3.8939405594863623"><ele>69.0</ele><time>2026-03-22T16:25:13.998Z</time></trkpt><trkpt lat="50.56143767110771" lon="3.8941110103183774"><ele>69.0</ele><time>2026-03-22T16:25:14.998Z</time></trkpt><trkpt lat="50.56134486002187" lon="3.8942778932203637"><ele>68.75</ele><time>2026-03-22T16:25:15.998Z</time></trkpt><trkpt lat="50.56124332155372" lon="3.8944303883625064"><ele>68.5</ele><time>2026-03-22T16:25:16.998Z</time></trkpt><trkpt lat="50.56112818690471" lon="3.894563187609012"><ele>68.25</ele><time>2026-03-22T16:25:17.998Z</time></trkpt><trkpt lat="50.56099675853841" lon="3.8946704995804073"><ele>68.0</ele><time>2026-03-22T16:25:18.998Z</time></trkpt><trkpt lat="50.56085580352436" lon="3.8947596215064837"><ele>68.0</ele><time>2026-03-22T16:25:19.998Z</time></trkpt><trkpt lat="50.560711364089144" lon="3.8948408480066763"><ele>68.0</ele><time>2026-03-22T16:25:21Z</time></trkpt><trkpt lat="50.560577759121756" lon="3.894916047219532"><ele>68.0</ele><time>2026-03-22T16:25:22Z</time></trkpt><trkpt lat="50.56044920242637" lon="3.894990026869971"><ele>68.0</ele><time>2026-03-22T16:25:23Z</time></trkpt><trkpt lat="50.560319339782495" lon="3.8950421323002655"><ele>67.5</ele><time>2026-03-22T16:25:24Z</time></trkpt><trkpt lat="50.56020074863463" lon="3.8951091555295516"><ele>67.0</ele><time>2026-03-22T16:25:25Z</time></trkpt><trkpt lat="50.56008698904436" lon="3.8951734481021902"><ele>66.5</ele><time>2026-03-22T16:25:26Z</time></trkpt><trkpt lat="50.55997170431514" lon="3.8952649047485877"><ele>66.0</ele><time>2026-03-22T16:25:27Z</time></trkpt><trkpt lat="50.5598564613464" lon="3.895303733640335"><ele>66.0</ele><time>2026-03-22T16:25:28Z</time></trkpt><trkpt lat="50.55975205098942" lon="3.8953630209534413"><ele>66.0</ele><time>2026-03-22T16:25:29Z</time></trkpt><trkpt lat="50.55965763770909" lon="3.8954451565228645"><ele>66.0</ele><time>2026-03-22T16:25:30Z</time></trkpt><trkpt lat="50.55957816634417" lon="3.8954634033980358"><ele>66.0</ele><time>2026-03-22T16:25:31Z</time></trkpt><trkpt lat="50.55948623604265" lon="3.895529052499328"><ele>66.0</ele><time>2026-03-22T16:25:33Z</time></trkpt><trkpt lat="50.559422299458674" lon="3.895567635481797"><ele>66.0</ele><time>2026-03-22T16:25:35Z</time></trkpt><trkpt lat="50.55936269749614" lon="3.8956065141794376"><ele>66.0</ele><time>2026-03-22T16:25:37Z</time></trkpt><trkpt lat="50.55930311405707" lon="3.89564018490471"><ele>66.0</ele><time>2026-03-22T16:25:39Z</time></trkpt><trkpt lat="50.556457438893055" lon="3.9005642760207473"><ele>66.0</ele><time>2026-03-22T16:26:40.999Z</time></trkpt><trkpt lat="50.55636958254931" lon="3.900557335070754"><ele>66.0</ele><time>2026-03-22T16:26:41.999Z</time></trkpt><trkpt lat="50.55628449784489" lon="3.9005269563461584"><ele>66.0</ele><time>2026-03-22T16:26:42.999Z</time></trkpt><trkpt lat="50.55620330379356" lon="3.9004747671437285"><ele>66.0</ele><time>2026-03-22T16:26:43.999Z</time></trkpt><trkpt lat="50.55612932411222" lon="3.9003882098500973"><ele>66.0</ele><time>2026-03-22T16:26:44.999Z</time></trkpt><trkpt lat="50.556070701485446" lon="3.9002955652065388"><ele>66.0</ele><time>2026-03-22T16:26:45.998Z</time></trkpt><trkpt lat="50.55601929410003" lon="3.900211450157582"><ele>65.2</ele><time>2026-03-22T16:26:46.998Z</time></trkpt><trkpt lat="50.55595078743834" lon="3.9001519939206153"><ele>64.39999999999999</ele><time>2026-03-22T16:26:47.998Z</time></trkpt><trkpt lat="50.55586203960295" lon="3.9001363174335935"><ele>63.6</ele><time>2026-03-22T16:26:48.998Z</time></trkpt><trkpt lat="50.555764304836465" lon="3.9001544522317335"><ele>62.8</ele><time>2026-03-22T16:26:49.998Z</time></trkpt><trkpt lat="50.555660392806004" lon="3.900134329788412"><ele>62.0</ele><time>2026-03-22T16:26:50.998Z</time></trkpt><trkpt lat="50.55555242876768" lon="3.9001388778786303"><ele>62.0</ele><time>2026-03-22T16:26:51.998Z</time></trkpt><trkpt lat="50.5554379145822" lon="3.900143794062636"><ele>62.0</ele><time>2026-03-22T16:26:52.998Z</time></trkpt><trkpt lat="50.55532069458187" lon="3.9001500780103595"><ele>62.0</ele><time>2026-03-22T16:26:53.998Z</time></trkpt><trkpt lat="50.55520211944057" lon="3.9001554518101615"><ele>62.0</ele><time>2026-03-22T16:26:54.998Z</time></trkpt><trkpt lat="50.55508012870011" lon="3.9001609804049315"><ele>61.75</ele><time>2026-03-22T16:26:55.998Z</time></trkpt><trkpt lat="50.55495685762074" lon="3.9001683558227294"><ele>61.5</ele><time>2026-03-22T16:26:56.998Z</time></trkpt><trkpt lat="50.554829234238255" lon="3.900175875876264"><ele>61.25</ele><time>2026-03-22T16:26:57.998Z</time></trkpt><trkpt lat="50.55469719876992" lon="3.9001836559077874"><ele>61.0</ele><time>2026-03-22T16:26:58.998Z</time></trkpt><trkpt lat="50.55456312150687" lon="3.9002249240252893"><ele>61.0</ele><time>2026-03-22T16:26:59.998Z</time></trkpt><trkpt lat="50.55442982046042" lon="3.9002565683841643"><ele>61.0</ele><time>2026-03-22T16:27:00.998Z</time></trkpt><trkpt lat="50.55430207038172" lon="3.90032167447918"><ele>61.0</ele><time>2026-03-22T16:27:01.998Z</time></trkpt><trkpt lat="50.55418049987557" lon="3.9004083573529185"><ele>61.0</ele><time>2026-03-22T16:27:02.998Z</time></trkpt><trkpt lat="50.55406028071177" lon="3.9005063003323777"><ele>61.0</ele><time>2026-03-22T16:27:03.998Z</time></trkpt><trkpt lat="50.55394301268065" lon="3.90059736549901"><ele>61.0</ele><time>2026-03-22T16:27:04.998Z</time></trkpt><trkpt lat="50.55383159317127" lon="3.9006727010189604"><ele>61.0</ele><time>2026-03-22T16:27:05.998Z</time></trkpt><trkpt lat="50.553731133053105" lon="3.900751389654879"><ele>61.0</ele><time>2026-03-22T16:27:06.998Z</time></trkpt><trkpt lat="50.55363562787276" lon="3.900834690010522"><ele>61.25</ele><time>2026-03-22T16:27:07.998Z</time></trkpt><trkpt lat="50.55352787599467" lon="3.900891431483759"><ele>61.5</ele><time>2026-03-22T16:27:08.998Z</time></trkpt><trkpt lat="50.55342515662629" lon="3.90097251171037"><ele>61.75</ele><time>2026-03-22T16:27:09.998Z</time></trkpt><trkpt lat="50.553321961544086" lon="3.9010531580570693"><ele>62.0</ele><time>2026-03-22T16:27:10.998Z</time></trkpt><trkpt lat="50.55322689782822" lon="3.9011559056133365"><ele>62.0</ele><time>2026-03-22T16:27:11.998Z</time></trkpt><trkpt lat="50.553122121230366" lon="3.901233542642704"><ele>62.0</ele><time>2026-03-22T16:27:12.998Z</time></trkpt><trkpt lat="50.5530100756951" lon="3.9012803699171617"><ele>62.0</ele><time>2026-03-22T16:27:13.998Z</time></trkpt><trkpt lat="50.55290036682247" lon="3.9013465538640637"><ele>62.0</ele><time>2026-03-22T16:27:14.998Z</time></trkpt><trkpt lat="50.55279467616992" lon="3.901407967337362"><ele>62.6</ele><time>2026-03-22T16:27:15.998Z</time></trkpt><trkpt lat="50.552689315024416" lon="3.9014581676293574"><ele>63.2</ele><time>2026-03-22T16:27:16.998Z</time></trkpt><trkpt lat="50.552586842078284" lon="3.901506718914313"><ele>63.8</ele><time>2026-03-22T16:27:17.998Z</time></trkpt><trkpt lat="50.55248530702613" lon="3.901580010875857"><ele>64.4</ele><time>2026-03-22T16:27:18.998Z</time></trkpt><trkpt lat="50.55237052833712" lon="3.9016101080315053"><ele>65.0</ele><time>2026-03-22T16:27:19.998Z</time></trkpt><trkpt lat="50.552255787675094" lon="3.9016914451540137"><ele>64.75</ele><time>2026-03-22T16:27:20.998Z</time></trkpt><trkpt lat="50.55213193534893" lon="3.9017512258338796"><ele>64.5</ele><time>2026-03-22T16:27:21.998Z</time></trkpt><trkpt lat="50.55200305872512" lon="3.9018111223013885"><ele>64.25</ele><time>2026-03-22T16:27:22.998Z</time></trkpt><trkpt lat="50.55186957155099" lon="3.9018752733781796"><ele>64.0</ele><time>2026-03-22T16:27:23.998Z</time></trkpt><trkpt lat="50.55173146466054" lon="3.9019409992114666"><ele>65.0</ele><time>2026-03-22T16:27:24.998Z</time></trkpt><trkpt lat="50.55158768481459" lon="3.902006279020329"><ele>66.0</ele><time>2026-03-22T16:27:26Z</time></trkpt><trkpt lat="50.55142909511627" lon="3.9020546958037863"><ele>67.0</ele><time>2026-03-22T16:27:27Z</time></trkpt><trkpt lat="50.55127041881954" lon="3.9021300885403276"><ele>67.66666666666666</ele><time>2026-03-22T16:27:28Z</time></trkpt><trkpt lat="50.55110462512372" lon="3.902235096624074"><ele>68.33333333333333</ele><time>2026-03-22T16:27:29Z</time></trkpt><trkpt lat="50.55093080820293" lon="3.9023104953502172"><ele>69.0</ele><time>2026-03-22T16:27:30Z</time></trkpt><trkpt lat="50.55077211784403" lon="3.902387546487986"><ele>69.0</ele><time>2026-03-22T16:27:31Z</time></trkpt><trkpt lat="50.550619581367954" lon="3.902465133631202"><ele>69.0</ele><time>2026-03-22T16:27:32Z</time></trkpt><trkpt lat="50.55046825274664" lon="3.9025363811009677"><ele>69.0</ele><time>2026-03-22T16:27:33Z</time></trkpt><trkpt lat="50.55032351802341" lon="3.902601079534698"><ele>69.5</ele><time>2026-03-22T16:27:34Z</time></trkpt><trkpt lat="50.55019149170171" lon="3.902658376037285"><ele>70.0</ele><time>2026-03-22T16:27:35Z</time></trkpt><trkpt lat="50.55006549483247" lon="3.9027190004314"><ele>70.5</ele><time>2026-03-22T16:27:36Z</time></trkpt><trkpt lat="50.549950090827444" lon="3.902776196698293"><ele>71.0</ele><time>2026-03-22T16:27:37Z</time></trkpt><trkpt lat="50.549829200982366" lon="3.902835309618629"><ele>71.0</ele><time>2026-03-22T16:27:38Z</time></trkpt><trkpt lat="50.54970846142166" lon="3.902893434139185"><ele>71.0</ele><time>2026-03-22T16:27:39Z</time></trkpt><trkpt lat="50.54958187947432" lon="3.9029257016936736"><ele>71.0</ele><time>2026-03-22T16:27:40Z</time></trkpt><trkpt lat="50.541037808077355" lon="3.9069795070633537"><ele>69.66666666666667</ele><time>2026-03-22T16:28:40.999Z</time></trkpt><trkpt lat="50.54084886347455" lon="3.9070691822511345"><ele>68.33333333333333</ele><time>2026-03-22T16:28:41.999Z</time></trkpt><trkpt lat="50.540658448393074" lon="3.9071626930958026"><ele>67.0</ele><time>2026-03-22T16:28:42.999Z</time></trkpt><trkpt lat="50.5404684575148" lon="3.9072521828150757"><ele>67.33333333333333</ele><time>2026-03-22T16:28:43.999Z</time></trkpt><trkpt lat="50.54028527422935" lon="3.9073336551700675"><ele>67.66666666666667</ele><time>2026-03-22T16:28:44.999Z</time></trkpt><trkpt lat="50.5401148466723" lon="3.9074136515485454"><ele>68.0</ele><time>2026-03-22T16:28:45.999Z</time></trkpt><trkpt lat="50.53995135086015" lon="3.907497519894081"><ele>68.0</ele><time>2026-03-22T16:28:46.999Z</time></trkpt><trkpt lat="50.53978340849328" lon="3.9075791279736696"><ele>68.0</ele><time>2026-03-22T16:28:47.999Z</time></trkpt><trkpt lat="50.53961683552238" lon="3.9076555138057048"><ele>68.0</ele><time>2026-03-22T16:28:48.999Z</time></trkpt><trkpt lat="50.53945694001982" lon="3.9077330263510035"><ele>68.33333333333334</ele><time>2026-03-22T16:28:49.999Z</time></trkpt><trkpt lat="50.539299349248175" lon="3.9078106669170056"><ele>68.66666666666667</ele><time>2026-03-22T16:28:50.999Z</time></trkpt><trkpt lat="50.53913526665663" lon="3.9078617268401046"><ele>69.0</ele><time>2026-03-22T16:28:51.999Z</time></trkpt><trkpt lat="50.5389790136744" lon="3.9079355700814897"><ele>69.0</ele><time>2026-03-22T16:28:52.999Z</time></trkpt><trkpt lat="50.53882732359977" lon="3.9080314020667046"><ele>69.0</ele><time>2026-03-22T16:28:53.999Z</time></trkpt><trkpt lat="50.538672249020784" lon="3.9080996242722543"><ele>69.0</ele><time>2026-03-22T16:28:54.999Z</time></trkpt><trkpt lat="50.53851821709076" lon="3.908171474119707"><ele>70.33333333333333</ele><time>2026-03-22T16:28:55.999Z</time></trkpt><trkpt lat="50.53836288252748" lon="3.908247645918118"><ele>71.66666666666666</ele><time>2026-03-22T16:28:56.999Z</time></trkpt><trkpt lat="50.53820941287737" lon="3.908318982369232"><ele>73.0</ele><time>2026-03-22T16:28:57.999Z</time></trkpt><trkpt lat="50.53805920829305" lon="3.9083872639309445"><ele>73.0</ele><time>2026-03-22T16:28:58.998Z</time></trkpt><trkpt lat="50.53790946387366" lon="3.9084553630193866"><ele>73.0</ele><time>2026-03-22T16:28:59.998Z</time></trkpt><trkpt lat="50.53775905380523" lon="3.908527749362923"><ele>73.0</ele><time>2026-03-22T16:29:00.998Z</time></trkpt><trkpt lat="50.53761003259796" lon="3.908596951769651"><ele>73.0</ele><time>2026-03-22T16:29:01.998Z</time></trkpt><trkpt lat="50.53746274036123" lon="3.908662846231587"><ele>73.0</ele><time>2026-03-22T16:29:02.998Z</time></trkpt><trkpt lat="50.53731847320671" lon="3.9087298264151817"><ele>73.0</ele><time>2026-03-22T16:29:03.998Z</time></trkpt><trkpt lat="50.53717419267499" lon="3.9087973278655155"><ele>73.33333333333333</ele><time>2026-03-22T16:29:04.998Z</time></trkpt><trkpt lat="50.537031399981856" lon="3.908868378533449"><ele>73.66666666666667</ele><time>2026-03-22T16:29:05.998Z</time></trkpt><trkpt lat="50.53688595487238" lon="3.908941695078401"><ele>74.0</ele><time>2026-03-22T16:29:06.998Z</time></trkpt><trkpt lat="50.53674117448123" lon="3.9090090675301914"><ele>74.0</ele><time>2026-03-22T16:29:07.998Z</time></trkpt><trkpt lat="50.53660017796007" lon="3.9090726072818054"><ele>74.0</ele><time>2026-03-22T16:29:08.998Z</time></trkpt><trkpt lat="50.53646197722402" lon="3.9091395065821843"><ele>74.0</ele><time>2026-03-22T16:29:09.998Z</time></trkpt><trkpt lat="50.53632705327023" lon="3.909205177332268"><ele>74.0</ele><time>2026-03-22T16:29:10.998Z</time></trkpt><trkpt lat="50.53619525003714" lon="3.909271737571153"><ele>74.0</ele><time>2026-03-22T16:29:11.998Z</time></trkpt><trkpt lat="50.53606560124066" lon="3.909336849510394"><ele>74.0</ele><time>2026-03-22T16:29:12.998Z</time></trkpt><trkpt lat="50.53592974978061" lon="3.909388242915605"><ele>74.0</ele><time>2026-03-22T16:29:13.998Z</time></trkpt><trkpt lat="50.53579152276195" lon="3.9094320617187024"><ele>74.0</ele><time>2026-03-22T16:29:14.998Z</time></trkpt><trkpt lat="50.535651602654916" lon="3.909470975076658"><ele>74.0</ele><time>2026-03-22T16:29:15.998Z</time></trkpt><trkpt lat="50.53555115855378" lon="3.9095740065190046"><ele>74.0</ele><time>2026-03-22T16:29:16.998Z</time></trkpt><trkpt lat="50.53542148509359" lon="3.9096355760864365"><ele>74.0</ele><time>2026-03-22T16:29:17.998Z</time></trkpt><trkpt lat="50.535299815373634" lon="3.9097009762572843"><ele>74.0</ele><time>2026-03-22T16:29:18.998Z</time></trkpt><trkpt lat="50.53517950499066" lon="3.9097690466737838"><ele>74.0</ele><time>2026-03-22T16:29:19.998Z</time></trkpt><trkpt lat="50.535063420447514" lon="3.909836140771998"><ele>74.0</ele><time>2026-03-22T16:29:20.998Z</time></trkpt><trkpt lat="50.53495349822562" lon="3.9099066880723288"><ele>74.0</ele><time>2026-03-22T16:29:21.998Z</time></trkpt><trkpt lat="50.53484717821089" lon="3.9099833647376196"><ele>74.0</ele><time>2026-03-22T16:29:22.998Z</time></trkpt><trkpt lat="50.53473930029855" lon="3.9100612739363716"><ele>74.0</ele><time>2026-03-22T16:29:23.998Z</time></trkpt><trkpt lat="50.53463022410884" lon="3.910134484490286"><ele>74.0</ele><time>2026-03-22T16:29:24.998Z</time></trkpt><trkpt lat="50.53452062114881" lon="3.9102047346258364"><ele>74.0</ele><time>2026-03-22T16:29:25.998Z</time></trkpt><trkpt lat="50.534411898365285" lon="3.910274945737817"><ele>74.0</ele><time>2026-03-22T16:29:26.998Z</time></trkpt><trkpt lat="50.534302350474846" lon="3.910345060668262"><ele>74.5</ele><time>2026-03-22T16:29:27.998Z</time></trkpt><trkpt lat="50.53419275942623" lon="3.9104154513238147"><ele>75.0</ele><time>2026-03-22T16:29:28.998Z</time></trkpt><trkpt lat="50.53408155152198" lon="3.9104867754258397"><ele>75.5</ele><time>2026-03-22T16:29:29.998Z</time></trkpt><trkpt lat="50.53396927547222" lon="3.910559694706334"><ele>76.0</ele><time>2026-03-22T16:29:30.998Z</time></trkpt><trkpt lat="50.533855281227645" lon="3.9106347443308755"><ele>76.0</ele><time>2026-03-22T16:29:32Z</time></trkpt><trkpt lat="50.53373971145475" lon="3.9107091604861677"><ele>76.0</ele><time>2026-03-22T16:29:33Z</time></trkpt><trkpt lat="50.53362468601619" lon="3.9107807632954734"><ele>76.0</ele><time>2026-03-22T16:29:34Z</time></trkpt><trkpt lat="50.53351248185311" lon="3.9108556891338853"><ele>76.0</ele><time>2026-03-22T16:29:35Z</time></trkpt><trkpt lat="50.53340137453194" lon="3.9109296363921686"><ele>76.0</ele><time>2026-03-22T16:29:36Z</time></trkpt><trkpt lat="50.53328880800285" lon="3.9109980230837413"><ele>76.0</ele><time>2026-03-22T16:29:37Z</time></trkpt><trkpt lat="50.533175852036045" lon="3.9110715349517613"><ele>76.0</ele><time>2026-03-22T16:29:38Z</time></trkpt><trkpt lat="50.533064273033496" lon="3.9111468809178"><ele>76.0</ele><time>2026-03-22T16:29:39Z</time></trkpt><trkpt lat="50.53295777868158" lon="3.9112163167374567"><ele>78.0</ele><time>2026-03-22T16:29:40Z</time></trkpt><trkpt lat="50.52576680779661" lon="3.9142647541595488"><ele>78.0</ele><time>2026-03-22T16:30:40.999Z</time></trkpt><trkpt lat="50.52565056766076" lon="3.9143141975869815"><ele>78.0</ele><time>2026-03-22T16:30:41.999Z</time></trkpt><trkpt lat="50.5255387895862" lon="3.9143623288066345"><ele>78.0</ele><time>2026-03-22T16:30:42.999Z</time></trkpt><trkpt lat="50.525428634190455" lon="3.914416437937618"><ele>78.0</ele><time>2026-03-22T16:30:43.999Z</time></trkpt><trkpt lat="50.52531942772004" lon="3.914471391722703"><ele>78.0</ele><time>2026-03-22T16:30:44.999Z</time></trkpt><trkpt lat="50.52521551001134" lon="3.9145287776925466"><ele>78.0</ele><time>2026-03-22T16:30:45.999Z</time></trkpt><trkpt lat="50.52511714558896" lon="3.9145932975311277"><ele>78.0</ele><time>2026-03-22T16:30:46.999Z</time></trkpt><trkpt lat="50.52502232652631" lon="3.91465383211604"><ele>78.0</ele><time>2026-03-22T16:30:47.999Z</time></trkpt><trkpt lat="50.5249246029898" lon="3.9147200910278466"><ele>78.0</ele><time>2026-03-22T16:30:48.999Z</time></trkpt><trkpt lat="50.52482474110575" lon="3.9147945350751585"><ele>78.0</ele><time>2026-03-22T16:30:49.999Z</time></trkpt><trkpt lat="50.524715641332726" lon="3.9148414787520616"><ele>78.0</ele><time>2026-03-22T16:30:50.999Z</time></trkpt><trkpt lat="50.52461816136575" lon="3.9149142649365816"><ele>78.0</ele><time>2026-03-22T16:30:51.999Z</time></trkpt><trkpt lat="50.524520138755854" lon="3.9149903836707067"><ele>78.0</ele><time>2026-03-22T16:30:52.999Z</time></trkpt><trkpt lat="50.524421081292246" lon="3.9150673060852292"><ele>78.0</ele><time>2026-03-22T16:30:53.999Z</time></trkpt><trkpt lat="50.52432237115349" lon="3.9151444624302476"><ele>77.75</ele><time>2026-03-22T16:30:54.999Z</time></trkpt><trkpt lat="50.524222968732055" lon="3.915222360559606"><ele>77.5</ele><time>2026-03-22T16:30:55.999Z</time></trkpt><trkpt lat="50.52411754819456" lon="3.9153049773261652"><ele>77.25</ele><time>2026-03-22T16:30:56.999Z</time></trkpt><trkpt lat="50.524005553629955" lon="3.9153927435742126"><ele>77.0</ele><time>2026-03-22T16:30:57.999Z</time></trkpt><trkpt lat="50.523891719682915" lon="3.9154814698317524"><ele>77.0</ele><time>2026-03-22T16:30:58.999Z</time></trkpt><trkpt lat="50.523775022722624" lon="3.9155705730178525"><ele>77.0</ele><time>2026-03-22T16:30:59.999Z</time></trkpt><trkpt lat="50.52366384198774" lon="3.9156554643958"><ele>77.0</ele><time>2026-03-22T16:31:00.999Z</time></trkpt><trkpt lat="50.52355029828704" lon="3.9157421599292905"><ele>77.0</ele><time>2026-03-22T16:31:01.999Z</time></trkpt><trkpt lat="50.52344080629486" lon="3.9158258105725565"><ele>77.25</ele><time>2026-03-22T16:31:02.999Z</time></trkpt><trkpt lat="50.52333097135514" lon="3.9159109562972816"><ele>77.5</ele><time>2026-03-22T16:31:03.999Z</time></trkpt><trkpt lat="50.523220670032345" lon="3.915996463614435"><ele>77.75</ele><time>2026-03-22T16:31:04.999Z</time></trkpt><trkpt lat="50.52310965493401" lon="3.9160825241692776"><ele>78.0</ele><time>2026-03-22T16:31:05.999Z</time></trkpt><trkpt lat="50.52299923932204" lon="3.916168034652898"><ele>78.5</ele><time>2026-03-22T16:31:06.999Z</time></trkpt><trkpt lat="50.52289247689553" lon="3.91625069219748"><ele>79.0</ele><time>2026-03-22T16:31:07.999Z</time></trkpt><trkpt lat="50.52278409499776" lon="3.916334603663942"><ele>79.5</ele><time>2026-03-22T16:31:08.999Z</time></trkpt><trkpt lat="50.522679704051896" lon="3.9164376744855223"><ele>80.0</ele><time>2026-03-22T16:31:09.999Z</time></trkpt><trkpt lat="50.52256807361735" lon="3.9165200283097183"><ele>80.0</ele><time>2026-03-22T16:31:10.999Z</time></trkpt><trkpt lat="50.522452533267355" lon="3.9166101129593467"><ele>80.0</ele><time>2026-03-22T16:31:11.999Z</time></trkpt><trkpt lat="50.52233295429885" lon="3.9167026562809983"><ele>80.0</ele><time>2026-03-22T16:31:12.998Z</time></trkpt><trkpt lat="50.52221130593125" lon="3.916795925499885"><ele>80.0</ele><time>2026-03-22T16:31:13.998Z</time></trkpt><trkpt lat="50.5220885480217" lon="3.9168924982383304"><ele>80.25</ele><time>2026-03-22T16:31:14.998Z</time></trkpt><trkpt lat="50.52196232013884" lon="3.9169970258454994"><ele>80.5</ele><time>2026-03-22T16:31:15.998Z</time></trkpt><trkpt lat="50.521828186816556" lon="3.9170727351666565"><ele>80.75</ele><time>2026-03-22T16:31:16.998Z</time></trkpt><trkpt lat="50.521694071881704" lon="3.9171769742949145"><ele>81.0</ele><time>2026-03-22T16:31:17.998Z</time></trkpt><trkpt lat="50.52156654157244" lon="3.917304259178013"><ele>81.0</ele><time>2026-03-22T16:31:18.998Z</time></trkpt><trkpt lat="50.52143221293809" lon="3.917404658728684"><ele>81.0</ele><time>2026-03-22T16:31:19.998Z</time></trkpt><trkpt lat="50.521300035375134" lon="3.917505254330087"><ele>81.0</ele><time>2026-03-22T16:31:20.998Z</time></trkpt><trkpt lat="50.52116801148738" lon="3.9176069242918414"><ele>81.0</ele><time>2026-03-22T16:31:21.998Z</time></trkpt><trkpt lat="50.52103460181394" lon="3.917713119822066"><ele>81.25</ele><time>2026-03-22T16:31:22.998Z</time></trkpt><trkpt lat="50.520904113464454" lon="3.9178116990847722"><ele>81.5</ele><time>2026-03-22T16:31:23.998Z</time></trkpt><trkpt lat="50.52077172707544" lon="3.917911340069458"><ele>81.75</ele><time>2026-03-22T16:31:24.998Z</time></trkpt><trkpt lat="50.52063840284243" lon="3.9180146447312523"><ele>82.0</ele><time>2026-03-22T16:31:25.998Z</time></trkpt><trkpt lat="50.520508642135894" lon="3.918120171651779"><ele>81.75</ele><time>2026-03-22T16:31:26.998Z</time></trkpt><trkpt lat="50.520378641869" lon="3.9182231730971044"><ele>81.5</ele><time>2026-03-22T16:31:27.998Z</time></trkpt><trkpt lat="50.520246377102765" lon="3.9183280448800666"><ele>81.25</ele><time>2026-03-22T16:31:28.998Z</time></trkpt><trkpt lat="50.52011819826859" lon="3.9184248768976078"><ele>81.0</ele><time>2026-03-22T16:31:29.998Z</time></trkpt><trkpt lat="50.51998661094198" lon="3.9185215421639703"><ele>81.0</ele><time>2026-03-22T16:31:30.998Z</time></trkpt><trkpt lat="50.51985948858998" lon="3.918621570483859"><ele>81.0</ele><time>2026-03-22T16:31:31.998Z</time></trkpt><trkpt lat="50.5197382238502" lon="3.9187170162429954"><ele>81.0</ele><time>2026-03-22T16:31:32.998Z</time></trkpt><trkpt lat="50.5196198300774" lon="3.91880583978015"><ele>81.0</ele><time>2026-03-22T16:31:33.998Z</time></trkpt><trkpt lat="50.51950947409426" lon="3.9188913989865175"><ele>80.75</ele><time>2026-03-22T16:31:34.998Z</time></trkpt><trkpt lat="50.51939662502964" lon="3.9189800696973127"><ele>80.5</ele><time>2026-03-22T16:31:35.998Z</time></trkpt><trkpt lat="50.51928125235347" lon="3.9190714787772505"><ele>80.25</ele><time>2026-03-22T16:31:36.998Z</time></trkpt><trkpt lat="50.519160066245895" lon="3.9191639117661414"><ele>80.0</ele><time>2026-03-22T16:31:38Z</time></trkpt><trkpt lat="50.51904445197764" lon="3.919251578325827"><ele>80.0</ele><time>2026-03-22T16:31:39Z</time></trkpt><trkpt lat="50.51892920466209" lon="3.919340104620674"><ele>80.0</ele><time>2026-03-22T16:31:40Z</time></trkpt><trkpt lat="50.5124774489762" lon="3.9243241581247057"><ele>81.8</ele><time>2026-03-22T16:32:40.999Z</time></trkpt><trkpt lat="50.51238774927604" lon="3.924398383749298"><ele>83.6</ele><time>2026-03-22T16:32:41.999Z</time></trkpt><trkpt lat="50.512302714876625" lon="3.9244635038108737"><ele>85.4</ele><time>2026-03-22T16:32:42.999Z</time></trkpt><trkpt lat="50.51221806795416" lon="3.924523323693961"><ele>87.2</ele><time>2026-03-22T16:32:43.999Z</time></trkpt><trkpt lat="50.512133908325175" lon="3.924587282141011"><ele>89.0</ele><time>2026-03-22T16:32:44.999Z</time></trkpt><trkpt lat="50.512045019205075" lon="3.924654126008092"><ele>89.0</ele><time>2026-03-22T16:32:45.999Z</time></trkpt><trkpt lat="50.51195166284121" lon="3.9247312093220046"><ele>89.0</ele><time>2026-03-22T16:32:46.999Z</time></trkpt><trkpt lat="50.511850774116645" lon="3.924808757627144"><ele>89.0</ele><time>2026-03-22T16:32:47.999Z</time></trkpt><trkpt lat="50.51175084174321" lon="3.924891023284698"><ele>89.0</ele><time>2026-03-22T16:32:48.999Z</time></trkpt><trkpt lat="50.5116498149987" lon="3.924960018103498"><ele>89.0</ele><time>2026-03-22T16:32:49.999Z</time></trkpt><trkpt lat="50.51154710450109" lon="3.925030258929879"><ele>88.80000000000001</ele><time>2026-03-22T16:32:50.999Z</time></trkpt><trkpt lat="50.511454747734966" lon="3.9251168586185945"><ele>88.60000000000001</ele><time>2026-03-22T16:32:51.999Z</time></trkpt><trkpt lat="50.51136007103287" lon="3.9251917353499284"><ele>88.4</ele><time>2026-03-22T16:32:52.999Z</time></trkpt><trkpt lat="50.51125907158758" lon="3.9252739045914513"><ele>88.2</ele><time>2026-03-22T16:32:53.999Z</time></trkpt><trkpt lat="50.51115320722179" lon="3.9253561719382333"><ele>88.0</ele><time>2026-03-22T16:32:54.999Z</time></trkpt><trkpt lat="50.51104037504311" lon="3.9254398550149294"><ele>88.0</ele><time>2026-03-22T16:32:55.999Z</time></trkpt><trkpt lat="50.510922072614086" lon="3.9255293061080256"><ele>88.0</ele><time>2026-03-22T16:32:56.999Z</time></trkpt><trkpt lat="50.51080873173171" lon="3.925619511182569"><ele>88.0</ele><time>2026-03-22T16:32:57.999Z</time></trkpt><trkpt lat="50.51069423986264" lon="3.9257048978324596"><ele>88.0</ele><time>2026-03-22T16:32:58.999Z</time></trkpt><trkpt lat="50.510581645753525" lon="3.925792875853077"><ele>88.0</ele><time>2026-03-22T16:32:59.999Z</time></trkpt><trkpt lat="50.51046884470188" lon="3.9258812471315614"><ele>88.0</ele><time>2026-03-22T16:33:00.999Z</time></trkpt><trkpt lat="50.51035663392273" lon="3.9259653104883947"><ele>88.0</ele><time>2026-03-22T16:33:01.999Z</time></trkpt><trkpt lat="50.510247163754684" lon="3.926054505065402"><ele>88.0</ele><time>2026-03-22T16:33:02.999Z</time></trkpt><trkpt lat="50.51014248694865" lon="3.92614123798599"><ele>88.0</ele><time>2026-03-22T16:33:03.999Z</time></trkpt><trkpt lat="50.510035973535174" lon="3.9262158669093283"><ele>88.0</ele><time>2026-03-22T16:33:04.999Z</time></trkpt><trkpt lat="50.509942614064364" lon="3.926290978478484"><ele>88.0</ele><time>2026-03-22T16:33:05.999Z</time></trkpt><trkpt lat="50.50984911925571" lon="3.9263377733550917"><ele>88.0</ele><time>2026-03-22T16:33:06.999Z</time></trkpt><trkpt lat="50.50976791735767" lon="3.9264252727153006"><ele>88.0</ele><time>2026-03-22T16:33:07.999Z</time></trkpt><trkpt lat="50.50968048957593" lon="3.926489439167726"><ele>88.0</ele><time>2026-03-22T16:33:08.999Z</time></trkpt><trkpt lat="50.50958885638644" lon="3.92656062781621"><ele>88.0</ele><time>2026-03-22T16:33:09.999Z</time></trkpt><trkpt lat="50.50948471580188" lon="3.9266435391880283"><ele>88.0</ele><time>2026-03-22T16:33:10.999Z</time></trkpt><trkpt lat="50.50938126853326" lon="3.9267289616713636"><ele>88.0</ele><time>2026-03-22T16:33:11.999Z</time></trkpt><trkpt lat="50.50927191946179" lon="3.9268134272470303"><ele>88.25</ele><time>2026-03-22T16:33:12.999Z</time></trkpt><trkpt lat="50.50916279926847" lon="3.926896483840927"><ele>88.5</ele><time>2026-03-22T16:33:13.999Z</time></trkpt><trkpt lat="50.50906052763917" lon="3.926976391346619"><ele>88.75</ele><time>2026-03-22T16:33:14.999Z</time></trkpt><trkpt lat="50.50896069987824" lon="3.9270535025059523"><ele>89.0</ele><time>2026-03-22T16:33:15.999Z</time></trkpt><trkpt lat="50.50886467106313" lon="3.9271285117642987"><ele>89.0</ele><time>2026-03-22T16:33:16.999Z</time></trkpt><trkpt lat="50.50876645984543" lon="3.927206314934105"><ele>89.0</ele><time>2026-03-22T16:33:17.999Z</time></trkpt><trkpt lat="50.50867039265433" lon="3.9272776049689"><ele>89.0</ele><time>2026-03-22T16:33:18.999Z</time></trkpt><trkpt lat="50.50857239594154" lon="3.9273572791597364"><ele>89.0</ele><time>2026-03-22T16:33:19.999Z</time></trkpt><trkpt lat="50.50847029998568" lon="3.9274352679045523"><ele>89.0</ele><time>2026-03-22T16:33:20.999Z</time></trkpt><trkpt lat="50.50836341848193" lon="3.92751366564163"><ele>89.0</ele><time>2026-03-22T16:33:21.999Z</time></trkpt><trkpt lat="50.50826153959642" lon="3.9275897595595777"><ele>89.0</ele><time>2026-03-22T16:33:22.999Z</time></trkpt><trkpt lat="50.50815739130481" lon="3.9276700142923953"><ele>89.0</ele><time>2026-03-22T16:33:23.999Z</time></trkpt><trkpt lat="50.50805362269552" lon="3.927749513430763"><ele>89.0</ele><time>2026-03-22T16:33:24.999Z</time></trkpt><trkpt lat="50.50795206302355" lon="3.9278312594873133"><ele>88.6</ele><time>2026-03-22T16:33:25.999Z</time></trkpt><trkpt lat="50.50784751818079" lon="3.9279137815607172"><ele>88.2</ele><time>2026-03-22T16:33:26.998Z</time></trkpt><trkpt lat="50.5077412201004" lon="3.927994693039482"><ele>87.8</ele><time>2026-03-22T16:33:27.998Z</time></trkpt><trkpt lat="50.50764555619673" lon="3.928068062883911"><ele>87.39999999999999</ele><time>2026-03-22T16:33:28.998Z</time></trkpt><trkpt lat="50.50756542117764" lon="3.928134559157441"><ele>87.0</ele><time>2026-03-22T16:33:29.998Z</time></trkpt><trkpt lat="50.50747403590736" lon="3.928199919210336"><ele>87.0</ele><time>2026-03-22T16:33:31.998Z</time></trkpt><trkpt lat="50.50741113330098" lon="3.928241795505047"><ele>87.0</ele><time>2026-03-22T16:33:33.998Z</time></trkpt><trkpt lat="50.507329226753086" lon="3.928296230777944"><ele>87.0</ele><time>2026-03-22T16:33:35.998Z</time></trkpt><trkpt lat="50.50726192374305" lon="3.9283405787110053"><ele>87.0</ele><time>2026-03-22T16:33:36.998Z</time></trkpt><trkpt lat="50.50719353579256" lon="3.9284175241288306"><ele>87.0</ele><time>2026-03-22T16:33:37.998Z</time></trkpt><trkpt lat="50.507114495610296" lon="3.92847262058789"><ele>87.0</ele><time>2026-03-22T16:33:38.998Z</time></trkpt><trkpt lat="50.507028798201105" lon="3.92853798905545"><ele>88.0</ele><time>2026-03-22T16:33:39.998Z</time></trkpt><trkpt lat="50.50055033369875" lon="3.933557139630896"><ele>88.0</ele><time>2026-03-22T16:34:40.999Z</time></trkpt><trkpt lat="50.500427368794696" lon="3.9336527250253064"><ele>88.0</ele><time>2026-03-22T16:34:41.999Z</time></trkpt><trkpt lat="50.50030149806216" lon="3.933750373548825"><ele>88.0</ele><time>2026-03-22T16:34:42.999Z</time></trkpt><trkpt lat="50.50017180472492" lon="3.9338513754717805"><ele>88.0</ele><time>2026-03-22T16:34:43.999Z</time></trkpt><trkpt lat="50.50003486439389" lon="3.933959409412121"><ele>88.75</ele><time>2026-03-22T16:34:44.999Z</time></trkpt><trkpt lat="50.4998999699807" lon="3.934064566918461"><ele>89.5</ele><time>2026-03-22T16:34:45.999Z</time></trkpt><trkpt lat="50.49976685201838" lon="3.934168456145484"><ele>90.25</ele><time>2026-03-22T16:34:46.999Z</time></trkpt><trkpt lat="50.49963611260037" lon="3.934271538292215"><ele>91.0</ele><time>2026-03-22T16:34:47.999Z</time></trkpt><trkpt lat="50.499505924143484" lon="3.9343739028170712"><ele>91.0</ele><time>2026-03-22T16:34:48.998Z</time></trkpt><trkpt lat="50.499384081856995" lon="3.9344988717108142"><ele>91.0</ele><time>2026-03-22T16:34:49.998Z</time></trkpt><trkpt lat="50.49925355889532" lon="3.9346007087762023"><ele>91.0</ele><time>2026-03-22T16:34:50.998Z</time></trkpt><trkpt lat="50.49912466386119" lon="3.93470376231057"><ele>91.0</ele><time>2026-03-22T16:34:51.998Z</time></trkpt><trkpt lat="50.49899955300541" lon="3.9348026665912643"><ele>91.0</ele><time>2026-03-22T16:34:52.998Z</time></trkpt><trkpt lat="50.49887667891992" lon="3.934890304387853"><ele>91.0</ele><time>2026-03-22T16:34:53.998Z</time></trkpt><trkpt lat="50.49875683987586" lon="3.934985417260071"><ele>91.0</ele><time>2026-03-22T16:34:54.998Z</time></trkpt><trkpt lat="50.498630932649036" lon="3.935082356539131"><ele>91.0</ele><time>2026-03-22T16:34:55.998Z</time></trkpt><trkpt lat="50.4985100263292" lon="3.9351844103253675"><ele>89.66666666666666</ele><time>2026-03-22T16:34:56.998Z</time></trkpt><trkpt lat="50.4983741664076" lon="3.9352833909719984"><ele>88.33333333333333</ele><time>2026-03-22T16:34:57.998Z</time></trkpt><trkpt lat="50.49823944088082" lon="3.935390762501257"><ele>87.0</ele><time>2026-03-22T16:34:58.998Z</time></trkpt><trkpt lat="50.498102809957686" lon="3.9355034358230205"><ele>87.0</ele><time>2026-03-22T16:34:59.998Z</time></trkpt><trkpt lat="50.49795211720764" lon="3.93561588317639"><ele>87.0</ele><time>2026-03-22T16:35:00.998Z</time></trkpt><trkpt lat="50.49780082742483" lon="3.9357354805370406"><ele>87.0</ele><time>2026-03-22T16:35:01.998Z</time></trkpt><trkpt lat="50.497631396790645" lon="3.935839959087192"><ele>84.66666666666667</ele><time>2026-03-22T16:35:02.998Z</time></trkpt><trkpt lat="50.497472081806954" lon="3.9359853327587313"><ele>82.33333333333334</ele><time>2026-03-22T16:35:03.998Z</time></trkpt><trkpt lat="50.497301899853724" lon="3.93612624918044"><ele>80.0</ele><time>2026-03-22T16:35:04.998Z</time></trkpt><trkpt lat="50.49713028126334" lon="3.9362601741945564"><ele>77.0</ele><time>2026-03-22T16:35:05.998Z</time></trkpt><trkpt lat="50.49695071097211" lon="3.9363969977586355"><ele>74.0</ele><time>2026-03-22T16:35:06.998Z</time></trkpt><trkpt lat="50.49677221608696" lon="3.9365350774850385"><ele>71.0</ele><time>2026-03-22T16:35:07.998Z</time></trkpt><trkpt lat="50.49659359954345" lon="3.936680586619435"><ele>71.0</ele><time>2026-03-22T16:35:08.998Z</time></trkpt><trkpt lat="50.49643194755994" lon="3.936812216083814"><ele>71.0</ele><time>2026-03-22T16:35:09.998Z</time></trkpt><trkpt lat="50.496287746255945" lon="3.9369285575092943"><ele>71.0</ele><time>2026-03-22T16:35:10.998Z</time></trkpt><trkpt lat="50.49614807164508" lon="3.937034990666806"><ele>68.5</ele><time>2026-03-22T16:35:11.998Z</time></trkpt><trkpt lat="50.496027236036696" lon="3.9371192745110215"><ele>66.0</ele><time>2026-03-22T16:35:12.998Z</time></trkpt><trkpt lat="50.4959132824367" lon="3.93722156746097"><ele>63.5</ele><time>2026-03-22T16:35:13.998Z</time></trkpt><trkpt lat="50.49579595112159" lon="3.937308777195886"><ele>61.0</ele><time>2026-03-22T16:35:14.998Z</time></trkpt><trkpt lat="50.49568467613298" lon="3.93739272722083"><ele>61.0</ele><time>2026-03-22T16:35:15.998Z</time></trkpt><trkpt lat="50.49557184149821" lon="3.9374814694835565"><ele>61.0</ele><time>2026-03-22T16:35:16.998Z</time></trkpt><trkpt lat="50.49545421929825" lon="3.937579601755301"><ele>61.0</ele><time>2026-03-22T16:35:17.998Z</time></trkpt><trkpt lat="50.49532733516542" lon="3.9376740182856325"><ele>61.0</ele><time>2026-03-22T16:35:18.998Z</time></trkpt><trkpt lat="50.49520666627748" lon="3.937766176215726"><ele>61.25</ele><time>2026-03-22T16:35:19.998Z</time></trkpt><trkpt lat="50.495082052563816" lon="3.937860062632702"><ele>61.5</ele><time>2026-03-22T16:35:20.998Z</time></trkpt><trkpt lat="50.49496180041549" lon="3.9379519798486515"><ele>61.75</ele><time>2026-03-22T16:35:21.998Z</time></trkpt><trkpt lat="50.494853123222136" lon="3.938040678124476"><ele>62.0</ele><time>2026-03-22T16:35:22.998Z</time></trkpt><trkpt lat="50.49474627500195" lon="3.9381264570207413"><ele>62.0</ele><time>2026-03-22T16:35:23.998Z</time></trkpt><trkpt lat="50.49464621265972" lon="3.938205002928948"><ele>62.0</ele><time>2026-03-22T16:35:24.998Z</time></trkpt><trkpt lat="50.49454176236659" lon="3.938284874747798"><ele>62.0</ele><time>2026-03-22T16:35:25.998Z</time></trkpt><trkpt lat="50.49443190020579" lon="3.9383715507491353"><ele>62.0</ele><time>2026-03-22T16:35:26.998Z</time></trkpt><trkpt lat="50.49431326535879" lon="3.9384427810794187"><ele>60.5</ele><time>2026-03-22T16:35:27.998Z</time></trkpt><trkpt lat="50.494200335932696" lon="3.9385311457339367"><ele>59.0</ele><time>2026-03-22T16:35:28.998Z</time></trkpt><trkpt lat="50.49408995490533" lon="3.938617624304562"><ele>57.5</ele><time>2026-03-22T16:35:29.998Z</time></trkpt><trkpt lat="50.49398040409531" lon="3.93870330563758"><ele>56.0</ele><time>2026-03-22T16:35:30.998Z</time></trkpt><trkpt lat="50.49386606954836" lon="3.9387928309315425"><ele>56.25</ele><time>2026-03-22T16:35:31.998Z</time></trkpt><trkpt lat="50.493747191216606" lon="3.93888632610356"><ele>56.5</ele><time>2026-03-22T16:35:32.998Z</time></trkpt><trkpt lat="50.493626960356515" lon="3.938981277510745"><ele>56.75</ele><time>2026-03-22T16:35:33.998Z</time></trkpt><trkpt lat="50.49350375437104" lon="3.9390776039090465"><ele>57.0</ele><time>2026-03-22T16:35:34.998Z</time></trkpt><trkpt lat="50.49337919933293" lon="3.9391754961706633"><ele>56.0</ele><time>2026-03-22T16:35:35.998Z</time></trkpt><trkpt lat="50.493255602996065" lon="3.9392726375041143"><ele>55.0</ele><time>2026-03-22T16:35:36.998Z</time></trkpt><trkpt lat="50.49313285112206" lon="3.939368564407206"><ele>54.0</ele><time>2026-03-22T16:35:37.998Z</time></trkpt><trkpt lat="50.493013102091986" lon="3.939461943137405"><ele>53.0</ele><time>2026-03-22T16:35:38.998Z</time></trkpt><trkpt lat="50.49289524708034" lon="3.939555018829116"><ele>48.0</ele><time>2026-03-22T16:35:39.998Z</time></trkpt><trkpt lat="50.48966466609754" lon="3.942135093062958"><ele>47.99999999999999</ele><time>2026-03-22T16:36:40.999Z</time></trkpt><trkpt lat="50.489600778504894" lon="3.9421792327555547"><ele>48.0</ele><time>2026-03-22T16:36:41.999Z</time></trkpt><trkpt lat="50.48954064992766" lon="3.942232910325901"><ele>48.0</ele><time>2026-03-22T16:36:42.999Z</time></trkpt><trkpt lat="50.48946800032325" lon="3.9422607277595056"><ele>48.0</ele><time>2026-03-22T16:36:43.999Z</time></trkpt><trkpt lat="50.4894107616993" lon="3.9423340395277524"><ele>48.0</ele><time>2026-03-22T16:36:44.999Z</time></trkpt><trkpt lat="50.4893458896008" lon="3.942380607747197"><ele>47.99999999999999</ele><time>2026-03-22T16:36:45.999Z</time></trkpt><trkpt lat="50.48927567854672" lon="3.9424319186491052"><ele>48.0</ele><time>2026-03-22T16:36:46.999Z</time></trkpt><trkpt lat="50.48920334652528" lon="3.9424901192317807"><ele>48.2</ele><time>2026-03-22T16:36:47.999Z</time></trkpt><trkpt lat="50.489127421741806" lon="3.9425486022422174"><ele>48.4</ele><time>2026-03-22T16:36:48.999Z</time></trkpt><trkpt lat="50.48904971844477" lon="3.942612857325389"><ele>48.6</ele><time>2026-03-22T16:36:49.999Z</time></trkpt><trkpt lat="50.48896818577051" lon="3.9426778577504065"><ele>48.800000000000004</ele><time>2026-03-22T16:36:50.999Z</time></trkpt><trkpt lat="50.488882803054096" lon="3.942741889539572"><ele>49.0</ele><time>2026-03-22T16:36:51.999Z</time></trkpt><trkpt lat="50.48879766604316" lon="3.9428098789036143"><ele>48.800000000000004</ele><time>2026-03-22T16:36:52.999Z</time></trkpt><trkpt lat="50.48871252184936" lon="3.942878048519221"><ele>48.6</ele><time>2026-03-22T16:36:53.999Z</time></trkpt><trkpt lat="50.48862555374707" lon="3.9429448363868835"><ele>48.4</ele><time>2026-03-22T16:36:54.999Z</time></trkpt><trkpt lat="50.4885394452384" lon="3.9430131360804"><ele>48.2</ele><time>2026-03-22T16:36:55.999Z</time></trkpt><trkpt lat="50.48845672594764" lon="3.943078587668216"><ele>48.0</ele><time>2026-03-22T16:36:56.999Z</time></trkpt><trkpt lat="50.48837569171521" lon="3.943140450799112"><ele>48.0</ele><time>2026-03-22T16:36:57.999Z</time></trkpt><trkpt lat="50.48829775093418" lon="3.943208703183311"><ele>48.0</ele><time>2026-03-22T16:36:58.999Z</time></trkpt><trkpt lat="50.488212875321" lon="3.9432421151369437"><ele>48.0</ele><time>2026-03-22T16:36:59.999Z</time></trkpt><trkpt lat="50.488138692181764" lon="3.943300799568202"><ele>48.0</ele><time>2026-03-22T16:37:00.998Z</time></trkpt><trkpt lat="50.4880653108472" lon="3.943360837495146"><ele>48.0</ele><time>2026-03-22T16:37:01.998Z</time></trkpt><trkpt lat="50.48798691115057" lon="3.9434346540645655"><ele>48.0</ele><time>2026-03-22T16:37:02.998Z</time></trkpt><trkpt lat="50.48791402785987" lon="3.9435107287162254"><ele>48.2</ele><time>2026-03-22T16:37:03.998Z</time></trkpt><trkpt lat="50.487829087045895" lon="3.9435793230880622"><ele>48.4</ele><time>2026-03-22T16:37:04.998Z</time></trkpt><trkpt lat="50.487730826543526" lon="3.943626529952511"><ele>48.6</ele><time>2026-03-22T16:37:05.998Z</time></trkpt><trkpt lat="50.487636586530535" lon="3.943699444771794"><ele>48.800000000000004</ele><time>2026-03-22T16:37:06.998Z</time></trkpt><trkpt lat="50.48753490149756" lon="3.943778301268757"><ele>49.0</ele><time>2026-03-22T16:37:07.998Z</time></trkpt><trkpt lat="50.48742834441316" lon="3.943861219410787"><ele>49.0</ele><time>2026-03-22T16:37:08.998Z</time></trkpt><trkpt lat="50.4873153176436" lon="3.9439496091262116"><ele>49.0</ele><time>2026-03-22T16:37:09.998Z</time></trkpt><trkpt lat="50.487201756386526" lon="3.9440385646393725"><ele>49.0</ele><time>2026-03-22T16:37:10.998Z</time></trkpt><trkpt lat="50.48709214920889" lon="3.9441248227140187"><ele>49.0</ele><time>2026-03-22T16:37:11.998Z</time></trkpt><trkpt lat="50.48698521373425" lon="3.9442091870302547"><ele>50.0</ele><time>2026-03-22T16:37:12.998Z</time></trkpt><trkpt lat="50.48688077619969" lon="3.9442910917352862"><ele>51.0</ele><time>2026-03-22T16:37:13.998Z</time></trkpt><trkpt lat="50.4867747232068" lon="3.944374115448328"><ele>52.0</ele><time>2026-03-22T16:37:14.998Z</time></trkpt><trkpt lat="50.4866689280636" lon="3.94445693802719"><ele>53.0</ele><time>2026-03-22T16:37:15.998Z</time></trkpt><trkpt lat="50.486561469592665" lon="3.944541606829361"><ele>53.0</ele><time>2026-03-22T16:37:16.998Z</time></trkpt><trkpt lat="50.48645105706619" lon="3.9446288199674147"><ele>53.0</ele><time>2026-03-22T16:37:17.998Z</time></trkpt><trkpt lat="50.48634029489601" lon="3.9447165952790035"><ele>53.0</ele><time>2026-03-22T16:37:18.998Z</time></trkpt><trkpt lat="50.48624315791338" lon="3.9448222594684856"><ele>53.0</ele><time>2026-03-22T16:37:19.998Z</time></trkpt><trkpt lat="50.486137854251105" lon="3.9448770227617787"><ele>53.2</ele><time>2026-03-22T16:37:20.998Z</time></trkpt><trkpt lat="50.486043440045584" lon="3.9449507854545662"><ele>53.4</ele><time>2026-03-22T16:37:21.998Z</time></trkpt><trkpt lat="50.48594793454788" lon="3.945026191050663"><ele>53.60000000000001</ele><time>2026-03-22T16:37:22.998Z</time></trkpt><trkpt lat="50.48585254612045" lon="3.945101653884943"><ele>53.800000000000004</ele><time>2026-03-22T16:37:23.998Z</time></trkpt><trkpt lat="50.48575449865996" lon="3.9451792206013883"><ele>54.0</ele><time>2026-03-22T16:37:24.998Z</time></trkpt><trkpt lat="50.48564990530591" lon="3.9452630840890426"><ele>53.25</ele><time>2026-03-22T16:37:25.998Z</time></trkpt><trkpt lat="50.485536163129126" lon="3.9453540052360654"><ele>52.5</ele><time>2026-03-22T16:37:26.998Z</time></trkpt><trkpt lat="50.485426763471" lon="3.9454684093411068"><ele>51.75</ele><time>2026-03-22T16:37:27.998Z</time></trkpt><trkpt lat="50.485309625068176" lon="3.945556926135381"><ele>51.0</ele><time>2026-03-22T16:37:28.998Z</time></trkpt><trkpt lat="50.48519658153094" lon="3.945647258465994"><ele>51.0</ele><time>2026-03-22T16:37:29.998Z</time></trkpt><trkpt lat="50.48508150537936" lon="3.94571365493939"><ele>51.0</ele><time>2026-03-22T16:37:30.998Z</time></trkpt><trkpt lat="50.4849768851525" lon="3.9457967139451062"><ele>51.0</ele><time>2026-03-22T16:37:31.998Z</time></trkpt><trkpt lat="50.484886427378235" lon="3.9458960970236387"><ele>51.0</ele><time>2026-03-22T16:37:32.998Z</time></trkpt><trkpt lat="50.48479513831466" lon="3.94596789293309"><ele>51.599999999999994</ele><time>2026-03-22T16:37:33.998Z</time></trkpt><trkpt lat="50.4847071741001" lon="3.946037713087258"><ele>52.2</ele><time>2026-03-22T16:37:34.998Z</time></trkpt><trkpt lat="50.48461407066254" lon="3.9460833360463243"><ele>52.800000000000004</ele><time>2026-03-22T16:37:35.998Z</time></trkpt><trkpt lat="50.48452767335367" lon="3.946180095010494"><ele>53.400000000000006</ele><time>2026-03-22T16:37:36.998Z</time></trkpt><trkpt lat="50.48442180727318" lon="3.9462351936003515"><ele>54.0</ele><time>2026-03-22T16:37:37.998Z</time></trkpt><trkpt lat="50.48432092479813" lon="3.9463146556525013"><ele>50.5</ele><time>2026-03-22T16:37:38.998Z</time></trkpt><trkpt lat="50.48422648705712" lon="3.9464167729383006"><ele>47.0</ele><time>2026-03-22T16:37:39.998Z</time></trkpt><trkpt lat="50.478482281172845" lon="3.9507430674350013"><ele>43.0</ele><time>2026-03-22T16:38:40.999Z</time></trkpt><trkpt lat="50.47838876832678" lon="3.9508963081257"><ele>39.0</ele><time>2026-03-22T16:38:41.999Z</time></trkpt><trkpt lat="50.47829418646805" lon="3.951046051617452"><ele>35.0</ele><time>2026-03-22T16:38:42.999Z</time></trkpt><trkpt lat="50.47819932519283" lon="3.951182298361186"><ele>31.0</ele><time>2026-03-22T16:38:43.999Z</time></trkpt><trkpt lat="50.47810308141725" lon="3.951305586231887"><ele>31.0</ele><time>2026-03-22T16:38:44.999Z</time></trkpt><trkpt lat="50.47801506205462" lon="3.9515016572408106"><ele>31.0</ele><time>2026-03-22T16:38:45.999Z</time></trkpt><trkpt lat="50.47792239606323" lon="3.9516505139328504"><ele>31.0</ele><time>2026-03-22T16:38:46.999Z</time></trkpt><trkpt lat="50.477836803085076" lon="3.951781518103157"><ele>31.0</ele><time>2026-03-22T16:38:47.999Z</time></trkpt><trkpt lat="50.47776494790686" lon="3.951894194737031"><ele>31.500000000000004</ele><time>2026-03-22T16:38:48.999Z</time></trkpt><trkpt lat="50.477704348962284" lon="3.952001667850829"><ele>32.0</ele><time>2026-03-22T16:38:49.999Z</time></trkpt><trkpt lat="50.47765473266017" lon="3.9521078706255772"><ele>32.5</ele><time>2026-03-22T16:38:50.999Z</time></trkpt><trkpt lat="50.477621505741844" lon="3.952214142176987"><ele>33.0</ele><time>2026-03-22T16:38:51.999Z</time></trkpt><trkpt lat="50.4775942886892" lon="3.9523323285048173"><ele>33.5</ele><time>2026-03-22T16:38:52.999Z</time></trkpt><trkpt lat="50.47755832596343" lon="3.9524769188071955"><ele>34.0</ele><time>2026-03-22T16:38:53.999Z</time></trkpt><trkpt lat="50.47751808824105" lon="3.9526274633833554"><ele>34.0</ele><time>2026-03-22T16:38:54.999Z</time></trkpt><trkpt lat="50.47745070310441" lon="3.952785851967279"><ele>34.0</ele><time>2026-03-22T16:38:55.999Z</time></trkpt><trkpt lat="50.47742071101552" lon="3.9529739892467455"><ele>34.0</ele><time>2026-03-22T16:38:56.999Z</time></trkpt><trkpt lat="50.47736303122549" lon="3.953141596503106"><ele>34.0</ele><time>2026-03-22T16:38:57.999Z</time></trkpt><trkpt lat="50.477322427414094" lon="3.953328232422146"><ele>34.0</ele><time>2026-03-22T16:38:58.999Z</time></trkpt><trkpt lat="50.47728444357501" lon="3.953529618210204"><ele>34.0</ele><time>2026-03-22T16:38:59.999Z</time></trkpt><trkpt lat="50.47725310013445" lon="3.9537199607587863"><ele>34.0</ele><time>2026-03-22T16:39:00.999Z</time></trkpt><trkpt lat="50.47722547508009" lon="3.9539008138084473"><ele>34.0</ele><time>2026-03-22T16:39:01.999Z</time></trkpt><trkpt lat="50.47718627794047" lon="3.9540613844074723"><ele>34.0</ele><time>2026-03-22T16:39:02.999Z</time></trkpt><trkpt lat="50.47714890379739" lon="3.95421847501584"><ele>34.0</ele><time>2026-03-22T16:39:03.999Z</time></trkpt><trkpt lat="50.477104662269745" lon="3.954378590087737"><ele>34.0</ele><time>2026-03-22T16:39:04.999Z</time></trkpt><trkpt lat="50.477038979739135" lon="3.9545306936298097"><ele>34.0</ele><time>2026-03-22T16:39:05.999Z</time></trkpt><trkpt lat="50.47697168742604" lon="3.954683257582955"><ele>34.0</ele><time>2026-03-22T16:39:06.999Z</time></trkpt><trkpt lat="50.476907693868306" lon="3.9548216779140373"><ele>34.0</ele><time>2026-03-22T16:39:07.999Z</time></trkpt><trkpt lat="50.47684176936842" lon="3.954976101574408"><ele>34.0</ele><time>2026-03-22T16:39:08.999Z</time></trkpt><trkpt lat="50.47677397891226" lon="3.955104214919219"><ele>34.0</ele><time>2026-03-22T16:39:09.999Z</time></trkpt><trkpt lat="50.47669582569179" lon="3.9552023143658825"><ele>34.0</ele><time>2026-03-22T16:39:10.999Z</time></trkpt><trkpt lat="50.4766038293087" lon="3.9552687672725293"><ele>34.5</ele><time>2026-03-22T16:39:11.999Z</time></trkpt><trkpt lat="50.47649738647536" lon="3.9553041610323345"><ele>35.0</ele><time>2026-03-22T16:39:12.999Z</time></trkpt><trkpt lat="50.4763816795914" lon="3.9553124067407257"><ele>35.5</ele><time>2026-03-22T16:39:13.999Z</time></trkpt><trkpt lat="50.476271829501805" lon="3.9553191746645804"><ele>36.0</ele><time>2026-03-22T16:39:14.998Z</time></trkpt><trkpt lat="50.47615431448527" lon="3.955350447542407"><ele>36.5</ele><time>2026-03-22T16:39:15.998Z</time></trkpt><trkpt lat="50.476029572522435" lon="3.95538422476058"><ele>37.0</ele><time>2026-03-22T16:39:16.998Z</time></trkpt><trkpt lat="50.4759016521913" lon="3.9554222160663786"><ele>37.5</ele><time>2026-03-22T16:39:17.998Z</time></trkpt><trkpt lat="50.47577233515441" lon="3.9554588703396885"><ele>38.0</ele><time>2026-03-22T16:39:18.998Z</time></trkpt><trkpt lat="50.47565821230974" lon="3.955498539123535"><ele>38.0</ele><time>2026-03-22T16:39:19.998Z</time></trkpt><trkpt lat="50.47555538143466" lon="3.9555371370298147"><ele>38.0</ele><time>2026-03-22T16:39:20.998Z</time></trkpt><trkpt lat="50.47545452884428" lon="3.9555760310365997"><ele>38.0</ele><time>2026-03-22T16:39:21.998Z</time></trkpt><trkpt lat="50.475354793413906" lon="3.9556193968365743"><ele>38.0</ele><time>2026-03-22T16:39:22.998Z</time></trkpt><trkpt lat="50.4752533266739" lon="3.9556653923510185"><ele>38.0</ele><time>2026-03-22T16:39:23.998Z</time></trkpt><trkpt lat="50.47515199127739" lon="3.9557085370675837"><ele>38.199999999999996</ele><time>2026-03-22T16:39:24.998Z</time></trkpt><trkpt lat="50.47504624888459" lon="3.955749034458521"><ele>38.4</ele><time>2026-03-22T16:39:25.998Z</time></trkpt><trkpt lat="50.47494209817907" lon="3.9557955799824738"><ele>38.599999999999994</ele><time>2026-03-22T16:39:26.998Z</time></trkpt><trkpt lat="50.47483480527389" lon="3.9558408198128605"><ele>38.8</ele><time>2026-03-22T16:39:27.998Z</time></trkpt><trkpt lat="50.47472070710829" lon="3.9558801121062452"><ele>39.0</ele><time>2026-03-22T16:39:28.998Z</time></trkpt><trkpt lat="50.47460994085075" lon="3.9559265601154125"><ele>38.75</ele><time>2026-03-22T16:39:29.998Z</time></trkpt><trkpt lat="50.47449818282591" lon="3.955974516605596"><ele>38.5</ele><time>2026-03-22T16:39:30.998Z</time></trkpt><trkpt lat="50.474390314794334" lon="3.9560198475448947"><ele>38.25</ele><time>2026-03-22T16:39:31.998Z</time></trkpt><trkpt lat="50.47428059642128" lon="3.9560600255121003"><ele>38.0</ele><time>2026-03-22T16:39:32.998Z</time></trkpt><trkpt lat="50.47417231933573" lon="3.9560969450139774"><ele>38.0</ele><time>2026-03-22T16:39:33.998Z</time></trkpt><trkpt lat="50.474063164604" lon="3.956133610583079"><ele>38.0</ele><time>2026-03-22T16:39:34.998Z</time></trkpt><trkpt lat="50.47395270006227" lon="3.9561682464079357"><ele>38.0</ele><time>2026-03-22T16:39:35.998Z</time></trkpt><trkpt lat="50.47384617940722" lon="3.9562008814429817"><ele>38.0</ele><time>2026-03-22T16:39:36.998Z</time></trkpt><trkpt lat="50.47374573280766" lon="3.95622840737809"><ele>38.0</ele><time>2026-03-22T16:39:37.998Z</time></trkpt><trkpt lat="50.473637592931176" lon="3.9562528276373556"><ele>38.5</ele><time>2026-03-22T16:39:38.998Z</time></trkpt><trkpt lat="50.473533508888586" lon="3.9562598161367513"><ele>39.0</ele><time>2026-03-22T16:39:39.998Z</time></trkpt><trkpt lat="50.46712509167871" lon="3.9574696950630446"><ele>38.2</ele><time>2026-03-22T16:40:40.999Z</time></trkpt><trkpt lat="50.46701738308478" lon="3.957514311239229"><ele>37.4</ele><time>2026-03-22T16:40:41.999Z</time></trkpt><trkpt lat="50.466905221806364" lon="3.957531949881937"><ele>36.6</ele><time>2026-03-22T16:40:42.999Z</time></trkpt><trkpt lat="50.46679566716066" lon="3.9575567286313977"><ele>35.8</ele><time>2026-03-22T16:40:43.999Z</time></trkpt><trkpt lat="50.46668387235761" lon="3.95755659782265"><ele>35.0</ele><time>2026-03-22T16:40:44.999Z</time></trkpt><trkpt lat="50.46657420654158" lon="3.957578530989992"><ele>35.0</ele><time>2026-03-22T16:40:45.999Z</time></trkpt><trkpt lat="50.46646375710493" lon="3.957600176290227"><ele>35.0</ele><time>2026-03-22T16:40:46.999Z</time></trkpt><trkpt lat="50.46635297899442" lon="3.9576470439111686"><ele>35.0</ele><time>2026-03-22T16:40:47.999Z</time></trkpt><trkpt lat="50.46623607212786" lon="3.9576523743140712"><ele>35.0</ele><time>2026-03-22T16:40:48.999Z</time></trkpt><trkpt lat="50.46612239274997" lon="3.9576795749510523"><ele>35.75</ele><time>2026-03-22T16:40:49.999Z</time></trkpt><trkpt lat="50.4659985400888" lon="3.9577026990061626"><ele>36.5</ele><time>2026-03-22T16:40:50.999Z</time></trkpt><trkpt lat="50.465872169568584" lon="3.957722138146516"><ele>37.25</ele><time>2026-03-22T16:40:51.999Z</time></trkpt><trkpt lat="50.46574990269905" lon="3.9577484752270906"><ele>38.0</ele><time>2026-03-22T16:40:52.999Z</time></trkpt><trkpt lat="50.465627380969785" lon="3.9577711989027264"><ele>38.0</ele><time>2026-03-22T16:40:53.999Z</time></trkpt><trkpt lat="50.465504442027495" lon="3.9577923703127356"><ele>38.0</ele><time>2026-03-22T16:40:54.999Z</time></trkpt><trkpt lat="50.465385232029746" lon="3.9578174963377775"><ele>38.0</ele><time>2026-03-22T16:40:55.999Z</time></trkpt><trkpt lat="50.46526500496265" lon="3.9578413657068814"><ele>38.0</ele><time>2026-03-22T16:40:56.999Z</time></trkpt><trkpt lat="50.465126559039575" lon="3.957858739291458"><ele>37.5</ele><time>2026-03-22T16:40:57.999Z</time></trkpt><trkpt lat="50.46500649853594" lon="3.9578711084670783"><ele>37.0</ele><time>2026-03-22T16:40:58.999Z</time></trkpt><trkpt lat="50.46488243772917" lon="3.9578744322713546"><ele>36.5</ele><time>2026-03-22T16:40:59.999Z</time></trkpt><trkpt lat="50.46475057971285" lon="3.957879713318575"><ele>36.0</ele><time>2026-03-22T16:41:00.999Z</time></trkpt><trkpt lat="50.46462471522947" lon="3.9578687720136823"><ele>36.0</ele><time>2026-03-22T16:41:01.999Z</time></trkpt><trkpt lat="50.46450667225308" lon="3.9578441641790123"><ele>36.0</ele><time>2026-03-22T16:41:02.999Z</time></trkpt><trkpt lat="50.46438698296471" lon="3.957822079507007"><ele>36.0</ele><time>2026-03-22T16:41:03.999Z</time></trkpt><trkpt lat="50.4642660364612" lon="3.9577945844857094"><ele>36.0</ele><time>2026-03-22T16:41:04.999Z</time></trkpt><trkpt lat="50.46414741881187" lon="3.957764897326293"><ele>36.0</ele><time>2026-03-22T16:41:05.999Z</time></trkpt><trkpt lat="50.464030604694976" lon="3.9577230735977937"><ele>36.0</ele><time>2026-03-22T16:41:06.999Z</time></trkpt><trkpt lat="50.46391671620302" lon="3.9576776375296285"><ele>36.0</ele><time>2026-03-22T16:41:07.999Z</time></trkpt><trkpt lat="50.46380231458548" lon="3.9576365363381187"><ele>36.0</ele><time>2026-03-22T16:41:08.999Z</time></trkpt><trkpt lat="50.4636883011085" lon="3.9575958557355873"><ele>36.0</ele><time>2026-03-22T16:41:09.999Z</time></trkpt><trkpt lat="50.46356658338205" lon="3.957552534165601"><ele>36.0</ele><time>2026-03-22T16:41:10.999Z</time></trkpt><trkpt lat="50.463447702165354" lon="3.9575092430952403"><ele>36.0</ele><time>2026-03-22T16:41:11.999Z</time></trkpt><trkpt lat="50.46332665113126" lon="3.9574610557821015"><ele>36.0</ele><time>2026-03-22T16:41:12.999Z</time></trkpt><trkpt lat="50.46320819800901" lon="3.9574166614688657"><ele>36.0</ele><time>2026-03-22T16:41:13.999Z</time></trkpt><trkpt lat="50.463088583419065" lon="3.9573678619395367"><ele>36.0</ele><time>2026-03-22T16:41:14.999Z</time></trkpt><trkpt lat="50.46296894326792" lon="3.9573199088770403"><ele>36.0</ele><time>2026-03-22T16:41:15.999Z</time></trkpt><trkpt lat="50.462848073832056" lon="3.957272563681914"><ele>36.0</ele><time>2026-03-22T16:41:16.999Z</time></trkpt><trkpt lat="50.46272707546215" lon="3.9572302953612013"><ele>35.75</ele><time>2026-03-22T16:41:17.999Z</time></trkpt><trkpt lat="50.46260760932364" lon="3.957183847152436"><ele>35.5</ele><time>2026-03-22T16:41:18.999Z</time></trkpt><trkpt lat="50.4624862219161" lon="3.9571378435749196"><ele>35.25</ele><time>2026-03-22T16:41:19.999Z</time></trkpt><trkpt lat="50.46236594848506" lon="3.95709434194491"><ele>35.0</ele><time>2026-03-22T16:41:20.999Z</time></trkpt><trkpt lat="50.46224797869344" lon="3.9570485351816"><ele>35.0</ele><time>2026-03-22T16:41:21.999Z</time></trkpt><trkpt lat="50.46213087788852" lon="3.9570080341758915"><ele>35.0</ele><time>2026-03-22T16:41:22.999Z</time></trkpt><trkpt lat="50.462012686411455" lon="3.9569683618621556"><ele>35.0</ele><time>2026-03-22T16:41:23.999Z</time></trkpt><trkpt lat="50.46189607971957" lon="3.9569195102310286"><ele>35.0</ele><time>2026-03-22T16:41:24.999Z</time></trkpt><trkpt lat="50.46178034716506" lon="3.9568734811186053"><ele>35.0</ele><time>2026-03-22T16:41:25.999Z</time></trkpt><trkpt lat="50.46166723707299" lon="3.9568321982206673"><ele>35.0</ele><time>2026-03-22T16:41:26.999Z</time></trkpt><trkpt lat="50.461556282882775" lon="3.9567863588689245"><ele>35.0</ele><time>2026-03-22T16:41:27.998Z</time></trkpt><trkpt lat="50.461447174062044" lon="3.9567383718295055"><ele>35.0</ele><time>2026-03-22T16:41:28.998Z</time></trkpt><trkpt lat="50.46133941304243" lon="3.956697793886175"><ele>35.33333333333333</ele><time>2026-03-22T16:41:29.998Z</time></trkpt><trkpt lat="50.46124162885777" lon="3.9566633284019717"><ele>35.666666666666664</ele><time>2026-03-22T16:41:30.998Z</time></trkpt><trkpt lat="50.461144959873174" lon="3.9566030842967206"><ele>36.0</ele><time>2026-03-22T16:41:31.998Z</time></trkpt><trkpt lat="50.46106643789601" lon="3.9565499772170574"><ele>36.333333333333336</ele><time>2026-03-22T16:41:32.998Z</time></trkpt><trkpt lat="50.460995753016846" lon="3.956501402011934"><ele>36.66666666666667</ele><time>2026-03-22T16:41:33.998Z</time></trkpt><trkpt lat="50.46093307139871" lon="3.9564308593584965"><ele>37.0</ele><time>2026-03-22T16:41:34.998Z</time></trkpt><trkpt lat="50.46088065962284" lon="3.9563508464063255"><ele>37.0</ele><time>2026-03-22T16:41:35.998Z</time></trkpt><trkpt lat="50.46081801865391" lon="3.9561799952731267"><ele>37.0</ele><time>2026-03-22T16:41:37.998Z</time></trkpt><trkpt lat="50.4608229113087" lon="3.9560601605536454"><ele>37.0</ele><time>2026-03-22T16:41:38.998Z</time></trkpt><trkpt lat="50.45529403537753" lon="3.944630705640796"><ele>36.333333333333336</ele><time>2026-03-22T16:42:41Z</time></trkpt><trkpt lat="50.455143562558824" lon="3.9444820154855877"><ele>35.666666666666664</ele><time>2026-03-22T16:42:42Z</time></trkpt><trkpt lat="50.454992382121404" lon="3.944332009097838"><ele>35.0</ele><time>2026-03-22T16:42:43Z</time></trkpt><trkpt lat="50.45483411498466" lon="3.9441793919182837"><ele>34.666666666666664</ele><time>2026-03-22T16:42:44Z</time></trkpt><trkpt lat="50.45466889426074" lon="3.9440190446915633"><ele>34.333333333333336</ele><time>2026-03-22T16:42:45Z</time></trkpt><trkpt lat="50.45449858784247" lon="3.943854249926114"><ele>34.0</ele><time>2026-03-22T16:42:46Z</time></trkpt><trkpt lat="50.454315961700125" lon="3.9436829465589933"><ele>35.0</ele><time>2026-03-22T16:42:47Z</time></trkpt><trkpt lat="50.45412453700283" lon="3.943501659070533"><ele>36.0</ele><time>2026-03-22T16:42:47.999Z</time></trkpt><trkpt lat="50.453927919168514" lon="3.9433121132532767"><ele>35.0</ele><time>2026-03-22T16:42:48.999Z</time></trkpt><trkpt lat="50.453726662934216" lon="3.9431301369162313"><ele>34.0</ele><time>2026-03-22T16:42:49.999Z</time></trkpt><trkpt lat="50.453521732756265" lon="3.9429520517280587"><ele>34.0</ele><time>2026-03-22T16:42:50.999Z</time></trkpt><trkpt lat="50.45331500447569" lon="3.94275351469809"><ele>34.0</ele><time>2026-03-22T16:42:51.999Z</time></trkpt><trkpt lat="50.45309820649858" lon="3.942547934870412"><ele>34.5</ele><time>2026-03-22T16:42:52.999Z</time></trkpt><trkpt lat="50.45289674628168" lon="3.942314167858141"><ele>35.0</ele><time>2026-03-22T16:42:53.999Z</time></trkpt><trkpt lat="50.45269436046444" lon="3.942117660053145"><ele>35.0</ele><time>2026-03-22T16:42:54.999Z</time></trkpt><trkpt lat="50.452497717375635" lon="3.9419491925394747"><ele>35.0</ele><time>2026-03-22T16:42:55.999Z</time></trkpt><trkpt lat="50.4523252071947" lon="3.941765642974136"><ele>35.0</ele><time>2026-03-22T16:42:56.999Z</time></trkpt><trkpt lat="50.45214636341316" lon="3.9415893251851073"><ele>34.666666666666664</ele><time>2026-03-22T16:42:57.999Z</time></trkpt><trkpt lat="50.45197727358908" lon="3.941410323502726"><ele>34.333333333333336</ele><time>2026-03-22T16:42:58.999Z</time></trkpt><trkpt lat="50.45180757751958" lon="3.9412272737976557"><ele>34.0</ele><time>2026-03-22T16:42:59.999Z</time></trkpt><trkpt lat="50.451636835814256" lon="3.9410400904734666"><ele>34.0</ele><time>2026-03-22T16:43:00.999Z</time></trkpt><trkpt lat="50.45147388006407" lon="3.9408478934846007"><ele>34.0</ele><time>2026-03-22T16:43:01.999Z</time></trkpt><trkpt lat="50.45131258056522" lon="3.9406659879325714"><ele>34.0</ele><time>2026-03-22T16:43:02.999Z</time></trkpt><trkpt lat="50.45113634600895" lon="3.9404852843492804"><ele>34.0</ele><time>2026-03-22T16:43:03.999Z</time></trkpt><trkpt lat="50.45096993748801" lon="3.940295456383928"><ele>34.0</ele><time>2026-03-22T16:43:04.999Z</time></trkpt><trkpt lat="50.45080902733314" lon="3.9400987203519664"><ele>34.0</ele><time>2026-03-22T16:43:05.999Z</time></trkpt><trkpt lat="50.45065879471774" lon="3.9399106140605595"><ele>33.66666666666667</ele><time>2026-03-22T16:43:06.999Z</time></trkpt><trkpt lat="50.45052180268308" lon="3.9397517375767626"><ele>33.333333333333336</ele><time>2026-03-22T16:43:07.999Z</time></trkpt><trkpt lat="50.450403375235844" lon="3.939610369731068"><ele>33.0</ele><time>2026-03-22T16:43:08.999Z</time></trkpt><trkpt lat="50.45029323198027" lon="3.9394907500718657"><ele>33.0</ele><time>2026-03-22T16:43:09.999Z</time></trkpt><trkpt lat="50.45018344397579" lon="3.9394045612848028"><ele>33.0</ele><time>2026-03-22T16:43:10.999Z</time></trkpt><trkpt lat="50.45007659223487" lon="3.939350987772277"><ele>33.0</ele><time>2026-03-22T16:43:11.999Z</time></trkpt><trkpt lat="50.44996009515991" lon="3.9393191874069564"><ele>33.0</ele><time>2026-03-22T16:43:12.999Z</time></trkpt><trkpt lat="50.449832724174186" lon="3.9393145785582724"><ele>33.0</ele><time>2026-03-22T16:43:13.999Z</time></trkpt><trkpt lat="50.449699872915595" lon="3.9393350779794187"><ele>33.0</ele><time>2026-03-22T16:43:14.999Z</time></trkpt><trkpt lat="50.44956860060251" lon="3.939391189234795"><ele>33.0</ele><time>2026-03-22T16:43:15.999Z</time></trkpt><trkpt lat="50.449447856960504" lon="3.9394743820911025"><ele>33.0</ele><time>2026-03-22T16:43:16.999Z</time></trkpt><trkpt lat="50.44933379444756" lon="3.9395849198507964"><ele>32.75</ele><time>2026-03-22T16:43:17.999Z</time></trkpt><trkpt lat="50.44922848437892" lon="3.939723160450507"><ele>32.5</ele><time>2026-03-22T16:43:18.999Z</time></trkpt><trkpt lat="50.44913196826355" lon="3.939883442239331"><ele>32.25</ele><time>2026-03-22T16:43:19.999Z</time></trkpt><trkpt lat="50.449047469312376" lon="3.9400741924975664"><ele>32.0</ele><time>2026-03-22T16:43:20.999Z</time></trkpt><trkpt lat="50.448968563112665" lon="3.9402888481129703"><ele>32.0</ele><time>2026-03-22T16:43:21.999Z</time></trkpt><trkpt lat="50.448885211718796" lon="3.940528035552391"><ele>32.0</ele><time>2026-03-22T16:43:22.999Z</time></trkpt><trkpt lat="50.44879465381139" lon="3.9407680660384825"><ele>32.0</ele><time>2026-03-22T16:43:23.999Z</time></trkpt><trkpt lat="50.44869708411701" lon="3.941004635663672"><ele>32.666666666666664</ele><time>2026-03-22T16:43:24.999Z</time></trkpt><trkpt lat="50.448599510136646" lon="3.941244398321637"><ele>33.333333333333336</ele><time>2026-03-22T16:43:25.999Z</time></trkpt><trkpt lat="50.448509780525406" lon="3.941469630011305"><ele>34.0</ele><time>2026-03-22T16:43:26.999Z</time></trkpt><trkpt lat="50.44842104111925" lon="3.941679520896179"><ele>34.333333333333336</ele><time>2026-03-22T16:43:27.999Z</time></trkpt><trkpt lat="50.44833361808908" lon="3.9418907939661194"><ele>34.666666666666664</ele><time>2026-03-22T16:43:28.999Z</time></trkpt><trkpt lat="50.44824773178926" lon="3.9421029299205532"><ele>35.0</ele><time>2026-03-22T16:43:29.999Z</time></trkpt><trkpt lat="50.44816136373422" lon="3.942311911109454"><ele>35.0</ele><time>2026-03-22T16:43:30.999Z</time></trkpt><trkpt lat="50.448076703087374" lon="3.94252452519664"><ele>35.0</ele><time>2026-03-22T16:43:31.999Z</time></trkpt><trkpt lat="50.44799204222464" lon="3.942736381780095"><ele>35.0</ele><time>2026-03-22T16:43:32.999Z</time></trkpt><trkpt lat="50.44791148634476" lon="3.9429416627928062"><ele>35.0</ele><time>2026-03-22T16:43:33.999Z</time></trkpt><trkpt lat="50.44782913611005" lon="3.9431465397604843"><ele>35.0</ele><time>2026-03-22T16:43:34.999Z</time></trkpt><trkpt lat="50.447746630797106" lon="3.9433534255026204"><ele>35.0</ele><time>2026-03-22T16:43:35.999Z</time></trkpt><trkpt lat="50.447656030746586" lon="3.943553637703328"><ele>35.0</ele><time>2026-03-22T16:43:36.999Z</time></trkpt><trkpt lat="50.44756032296999" lon="3.9437543317471775"><ele>35.0</ele><time>2026-03-22T16:43:37.999Z</time></trkpt><trkpt lat="50.44746654061093" lon="3.94396503934439"><ele>35.0</ele><time>2026-03-22T16:43:38.999Z</time></trkpt><trkpt lat="50.44507838112673" lon="3.9509796458675677"><ele>34.33333333333333</ele><time>2026-03-22T16:44:42Z</time></trkpt><trkpt lat="50.44494171550397" lon="3.951166622668894"><ele>33.666666666666664</ele><time>2026-03-22T16:45:10.999Z</time></trkpt><trkpt lat="50.44498683899582" lon="3.9507597956080227"><ele>33.0</ele><time>2026-03-22T16:45:14.999Z</time></trkpt><trkpt lat="50.44501825056554" lon="3.9506436990081184"><ele>33.0</ele><time>2026-03-22T16:45:15.999Z</time></trkpt><trkpt lat="50.44497790892817" lon="3.950736887174153"><ele>33.0</ele><time>2026-03-22T16:45:17.999Z</time></trkpt><trkpt lat="50.44488877021538" lon="3.950822959174186"><ele>33.0</ele><time>2026-03-22T16:45:20.999Z</time></trkpt><trkpt lat="50.444813058313485" lon="3.95092821259998"><ele>33.0</ele><time>2026-03-22T16:45:23.999Z</time></trkpt><trkpt lat="50.444677878172065" lon="3.950984063418683"><ele>33.0</ele><time>2026-03-22T16:45:27.999Z</time></trkpt><trkpt lat="50.44457624742694" lon="3.9510082182943504"><ele>32.75</ele><time>2026-03-22T16:45:38.999Z</time></trkpt><trkpt lat="50.44437959693902" lon="3.9509241142025946"><ele>32.5</ele><time>2026-03-22T16:46:46.067Z</time></trkpt><trkpt lat="50.444519448430086" lon="3.9509935827359044"><ele>32.25</ele><time>2026-03-22T16:47:05.048Z</time></trkpt><trkpt lat="50.44459004108692" lon="3.951014278962851"><ele>32.0</ele><time>2026-03-22T16:47:08.039Z</time></trkpt><trkpt lat="50.44465685999077" lon="3.9510977865775834"><ele>32.0</ele><time>2026-03-22T16:47:34.029Z</time></trkpt><trkpt lat="50.444546583014365" lon="3.9512245514449966"><ele>30.0</ele><time>2026-03-22T16:47:42.029Z</time></trkpt><trkpt lat="50.44475744752523" lon="3.9511066301860476"><ele>32.0</ele><time>2026-03-22T16:48:29.619Z</time></trkpt></trkseg></trk></gpx>